     2.11           OBSERVATION DATA    G (GPS)             RINEX VERSION / TYPE
teqc 2010Oct21 OPUS Account 20111028 15:34:55UTC            PGM / RUN BY / DATE
D 1527                                                      MARKER NAME
3065                                                        MARKER NUMBER
CSMIDDLETON NGS                                             OBSERVER / AGENCY
4624K01648 TRIMBLE NETR5 4.41                               REC # / TYPE / VERS
12611996 TRM41249.00 NONE                                   ANT # / TYPE
  -736694.6856 -5584325.7270  2982138.6765                  APPROX POSITION XYZ
        2.0000        0.0000        0.0000                  ANTENNA: DELTA H/E/N
     1     1                                                WAVELENGTH FACT L1/2
     5    L1    L2    C1    P1    P2                        # / TYPES OF OBSERV
    15                                                      LEAP SECONDS
  2011     8    23     0     0    0.0000000     GPS         TIME OF FIRST OBS
                                                            END OF HEADER
 11  8 23  0  0  0.0000000  0  9G10G12G17G05G04G25G09G02G30
 109792795.21118  85552950.62056  20892853.797                    20892862.445
 113918437.87617  88767692.29617  21677958.766                    21677967.145
 120958754.12917  94253676.69417  23017685.672                    23017695.043
 116869395.26317  91067151.29417  22239495.445                    22239505.902
 112878872.23418  87957713.95355  21480125.219                    21480133.914
 128741962.11717 100318459.59616  24498787.000                    24498800.184
 123047670.43916  95881388.52553  23415204.719                    23415216.215
 108500598.13418  84546041.89656  20646959.867                    20646965.797
 127911219.54315  99671009.15453  24340669.797                    24340679.832
 11  8 23  0  0 30.0000000  0  9G10G12G17G05G04G25G09G02G30
 109783890.069 8  85546011.56846  20891159.570                    20891168.332
 113850789.306 7  88714979.146 7  21665085.563                    21665094.625
 121007956.018 7  94292015.784 7  23027048.000                    23027057.840
 116775397.314 7  90993906.248 7  22221607.875                    22221618.145
 112953058.958 8  88015521.76045  21494242.227                    21494251.219
 128639759.762 7 100238821.432 6  24479338.469                    24479352.164
 123121771.596 6  95939129.59843  23429306.250                    23429317.906
 108495813.594 8  84542313.71146  20646049.313                    20646055.750
 127806937.824 6  99589750.77443  24320825.063                    24320834.730
 11  8 23  0  1  0.0000000  0  9G10G12G17G05G04G25G09G02G30
 109775607.987 8  85539558.02846  20889583.063                    20889591.941
 113783525.622 8  88662565.876 7  21652285.789                    21652294.668
 121057304.791 7  94330469.296 6  23036439.219                    23036448.813
 116681660.086 7  90920864.351 7  22203770.688                    22203780.629
 113027410.982 8  88073458.38245  21508390.734                    21508399.816
 128537684.679 6 100159282.433 6  24459914.313                    24459927.664
 123196095.313 6  95997044.08543  23443450.789                    23443461.434
 108491331.535 8  84538821.22846  20645196.313                    20645202.441
 127702845.686 6  99508640.05443  24301017.148                    24301027.109
 11  8 23  0  1 30.0000000  0  9G10G12G17G05G04G25G09G02G30
 109767949.922 8  85533590.72346  20888125.836                    20888134.762
 113716649.570 7  88610454.670 7  21639559.805                    21639568.258
 121106800.598 7  94369037.418 6  23045858.625                    23045867.723
 116588186.811 7  90848028.137 7  22185983.016                    22185993.320
 113101926.312 8  88131522.24545  21522570.773                    21522579.859
 128435739.743 6 100079844.888 6  24440514.148                    24440528.090
 123270638.448 7  96055129.55443  23457634.867                    23457646.531
 108487151.251 8  84535563.88046  20644400.930                    20644407.055
 127598945.895 6  99427679.27843  24281245.242                    24281255.703
 11  8 23  0  2  0.0000000  0  9G10G12G17G05G04G25G09G02G30
 109760916.532 8  85528110.16946  20886787.594                    20886796.184
 113650163.513 8  88558647.351 7  21626908.227                    21626916.582
 121156444.461 7  94407720.911 6  23055304.641                    23055314.391
 116494980.594 7  90775400.023 7  22168246.102                    22168256.313
 113176602.862 8  88189711.77045  21536781.023                    21536790.453
 128333927.363 6 100000510.645 6  24421139.758                    24421152.555
 123345397.334 6  96113383.08143  23471861.492                    23471873.219
 108483271.645 8  84532540.83746  20643662.602                    20643668.832
 127495241.352 6  99346870.57343  24261510.992                    24261520.805
 11  8 23  0  2 30.0000000  0  9G10G12G17G05G04G25G09G02G30
 109754508.338 8  85523116.79446  20885568.266                    20885576.844
 113584070.272 8  88507146.124 7  21614331.094                    21614339.172
 121206237.191 7  94446520.404 6  23064780.727                    23064789.977
 116402043.979 7  90702981.966 7  22150560.891                    22150571.992
 113251438.500 8  88248025.22845  21551021.828                    21551031.184
 128232250.097 6  99921281.633 6  24401791.633                    24401803.480
 123420368.583 6  96171802.12243  23486128.172                    23486139.480
 108479691.616 8  84529751.21346  20642981.516                    20642987.688
 127391734.680 6  99266216.10443  24241813.930                    24241824.340
 11  8 23  0  3  0.0000000  0  9G10G12G17G05G04G25G09G02G30
 109748725.845 7  85518610.97146  20884467.602                    20884476.633
 113518371.973 8  88455952.650 7  21601828.805                    21601837.262
 121256179.047 7  94485436.054 6  23074283.984                    23074293.508
 116309380.054 7  90630776.412 7  22132927.648                    22132937.922
 113326430.913 8  88306460.87545  21565292.578                    21565301.766
 128130710.281 6  99842159.730 6  24382468.555                    24382480.441
 123495548.921 6  96230384.08843  23500434.859                    23500445.852
 108476409.894 8  84527194.04046  20642356.891                    20642363.051
 127288428.555 6  99185717.92043  24222156.461                    24222165.988
 11  8 23  0  3 30.0000000  0  9G10G12G17G05G04G25G09G02G30
 109743569.356 8  85514592.94346  20883486.422                    20883495.188
 113453070.730 7  88405068.575 7  21589402.469                    21589410.566
 121306270.628 7  94524468.413 6  23083816.227                    23083825.559
 116216991.263 7  90558785.222 7  22115346.688                    22115356.883
 113401578.208 8  88365017.19845  21579592.352                    21579601.809
 128029310.488 6  99763146.945 6  24363173.477                    24363185.473
 123570934.899 6  96289126.28943  23514779.531                    23514791.547
 108473425.345 8  84524868.42246  20641788.680                    20641795.457
 127185325.793 7  99105378.13543  24202536.008                    24202545.629
 11  8 23  0  4  0.0000000  0  9G10G12G17G05G04G25G09G02G30
 109739039.563 8  85511063.25346  20882624.414                    20882633.199
 113388169.417 8  88354496.119 7  21577052.344                    21577059.984
 121356512.730 7  94563618.031 6  23093376.781                    23093386.469
 116124880.753 7  90487010.893 7  22097818.273                    22097828.383
 113476877.996 8  88423692.33545  21593921.539                    21593931.086
 127928053.198 7  99684245.246 6  24343905.586                    24343917.387
 123646522.989 7  96348025.96743  23529163.727                    23529175.258
 108470736.807 8  84522773.46446  20641277.156                    20641283.273
 127082429.076 6  99025198.92243  24182954.805                    24182965.758
 11  8 23  0  4 30.0000000  0  9G10G12G17G05G04G25G09G02G30
 109735137.263 8  85508022.50546  20881881.656                    20881890.293
 113323670.301 8  88304237.091 7  21564778.438                    21564786.395
 121406905.826 7  94602885.300 7  23102966.508                    23102976.129
 116033051.761 7  90415455.926 7  22080343.961                    22080353.953
 113552328.594 8  88482484.99445  21608279.531                    21608288.695
 127826941.226 7  99605456.721 6  24324664.313                    24324675.641
 123722310.031 6  96407080.65843  23543585.906                    23543597.344
 108468343.518 8  84520908.57046  20640821.797                    20640828.129
 126979741.401 6  98945182.62443  24163413.852                    24163425.176
 11  8 23  0  5  0.0000000  0  9G10G12G17G05G04G25G09G02G30
 109731862.355 8  85505470.64346  20881258.555                    20881267.074
 113259575.760 7  88254293.301 7  21552581.664                    21552589.793
 121457450.703 7  94642270.825 6  23112584.852                    23112594.648
 115941507.028 7  90344122.456 7  22062923.328                    22062933.570
 113627927.688 8  88541393.36245  21622665.898                    21622674.496
 127725977.023 7  99526783.365 6  24305451.570                    24305463.926
 123798292.392 7  96466287.59743  23558044.906                    23558056.316
 108466244.296 8  84519272.82246  20640422.625                    20640428.813
 126877265.562 6  98865331.33043  24143912.617                    24143924.160
 11  8 23  0  5 30.0000000  0  9G10G12G17G05G04G25G09G02G30
 109729215.674 8  85503408.32246  20880755.164                    20880764.289
 113195888.373 8  88204666.762 7  21540462.445                    21540470.441
 121508148.107 7  94681775.254 6  23122232.297                    23122242.055
 115850249.359 7  90273012.673 7  22045557.656                    22045567.590
 113703673.401 8  88600415.96345  21637079.703                    21637088.766
 127625163.185 7  99448227.183 6  24286267.102                    24286278.570
 123874466.785 6  96525644.17243  23572540.273                    23572552.813
 108464438.086 8  84517865.39546  20640078.695                    20640084.906
 126775004.394 6  98785647.38443  24124453.859                    24124464.238
 11  8 23  0  6  0.0000000  0  9G10G12G17G05G04G25G09G02G30
 109727197.791 8  85501835.96746  20880370.547                    20880379.676
 113132610.573 8  88155359.387 7  21528421.391                    21528429.160
 121558998.396 7  94721398.792 6  23131908.336                    23131918.035
 115759282.072 7  90202129.180 7  22028246.734                    22028257.461
 113779563.712 8  88659551.24845  21651520.992                    21651530.227
 127524502.417 7  99369790.256 6  24267112.086                    24267123.738
 123950829.818 6  96585147.74343  23587071.953                    23587083.566
 108462923.751 8  84516685.38646  20639790.664                    20639796.375
 126672960.760 6  98706132.89142  24105035.813                    24105044.645
 11  8 23  0  6 30.0000000  0  9G10G12G17G05G04G25G09G02G30
 109725808.703 8  85500753.57646  20880106.914                    20880114.883
 113069744.363 7  88106372.752 7  21516457.992                    21516466.039
 121610001.972 7  94761141.763 6  23141614.797                    23141623.895
 115668607.462 7  90131473.762 7  22010991.969                    22011002.469
 113855596.349 8  88718797.44245  21665989.313                    21665998.625
 127423997.028 7  99291474.383 6  24247985.961                    24247998.598
 124027378.086 6  96644795.65143  23601638.883                    23601651.262
 108461699.672 8  84515731.56746  20639557.547                    20639563.770
 126571137.233 6  98626789.92942  24085660.063                    24085667.555
 11  8 23  0  7  0.0000000  0  9G10G12G17G05G04G25G09G02G30
 109725048.791 8  85500161.46346  20879962.000                    20879971.047
 113007292.601 7  88057709.061 7  21504573.859                    21504582.020
 121661159.795 7  94801004.958 6  23151349.672                    23151358.785
 115578228.647 7  90061048.820 7  21993793.289                    21993803.039
 113931769.642 8  88778153.22845  21680484.859                    21680493.895
 127323649.666 7  99213281.666 6  24228890.672                    24228902.367
 124104108.323 6  96704585.33043  23616239.633                    23616252.910
 108460765.284 8  84515003.48746  20639379.609                    20639385.652
 126469536.731 6  98547620.75843  24066325.664                    24066334.305
 11  8 23  0  7 30.0000000  0  9G10G12G17G05G04G25G09G02G30
 109724918.262 8  85500059.77746  20879936.820                    20879945.645
 112945257.613 7  88009370.140 7  21492768.945                    21492777.336
 121712472.425 7  94840988.780 6  23161114.133                    23161123.379
 115488148.646 7  89990856.703 7  21976651.797                    21976661.395
 114008081.466 8  88837616.95645  21695006.656                    21695015.625
 127223463.146 6  99135214.250 6  24209825.781                    24209837.426
 124181016.931 5  96764514.05942  23630875.031                    23630887.766
 108460119.384 8  84514500.19046  20639256.578                    20639263.035
 126368162.253 6  98468627.70843  24047034.297                    24047043.883
 11  8 23  0  8  0.0000000  0  9G10G12G17G05G04G25G09G02G30
 109725417.194 8  85500448.57846  20880032.281                    20880040.762
 112883641.313 7  87961357.464 7  21481043.664                    21481052.305
 121763940.401 7  94881093.636 6  23170908.266                    23170917.785
 115398370.246 7  89920899.617 7  21959567.594                    21959577.297
 114084529.622 8  88897186.93345  21709554.508                    21709563.316
 127123439.639 6  99057273.901 6  24190791.953                    24190804.035
 124258100.232 6  96824578.85642  23645544.336                    23645555.891
 108459760.401 8  84514220.47346  20639188.438                    20639194.293
 126267016.266 6  98389812.71443  24027786.656                    24027796.848
 11  8 23  0  8 30.0000000  0  9G10G12G17G05G04G25G09G02G30
 109726546.373 8  85501328.48146  20880246.656                    20880255.590
 112822447.074 7  87913673.677 7  21469398.813                    21469407.168
 121815564.547 7  94921320.193 6  23180731.672                    23180741.883
 115308896.673 7  89851180.040 7  21942541.492                    21942550.602
 114161112.397 8  88956861.79345  21724127.523                    21724136.082
 127023582.273 6  98979462.961 6  24171789.859                    24171802.090
 124335355.374 6  96884777.59043  23660245.063                    23660256.668
 108459688.197 8  84514164.21446  20639174.789                    20639180.879
 126166102.153 6  98311178.39944  24008583.242                    24008594.352
 11  8 23  0  9  0.0000000  0  9G10G12G17G05G04G25G09G02G30
 109728305.894 8  85502699.55146  20880581.727                    20880590.293
 112761676.426 7  87866319.967 7  21457834.203                    21457842.418
 121867345.287 7  94961668.743 6  23190585.563                    23190595.168
 115219730.460 7  89781699.975 7  21925573.523                    21925583.035
 114237827.876 8  89016640.07345  21738726.070                    21738734.996
 126923893.477 6  98901783.409 6  24152819.063                    24152832.223
 124412779.100 6  96945107.67843  23674977.711                    23674990.770
 108459901.205 8  84514330.19846  20639215.102                    20639221.348
 126065422.421 7  98232726.65843  23989425.320                    23989435.813
 11  8 23  0  9 30.0000000  0  9G10G12G17G05G04G25G09G02G30
 109730695.638 8  85504561.71146  20881036.664                    20881045.277
 112701331.905 7  87819298.297 7  21446351.344                    21446359.109
 121919283.157 7  95002139.757 6  23200469.188                    23200478.699
 115130874.633 7  89712461.745 7  21908664.797                    21908674.617
 114314673.889 8  89076520.06045  21753349.203                    21753358.102
 126824375.717 7  98824237.099 6  24133881.297                    24133894.984
 124490367.569 6  97005566.15343  23689742.945                    23689754.730
 108460397.977 8  84514717.30046  20639309.945                    20639316.188
 125964979.864 6  98154459.73043  23970311.484                    23970321.352
 11  8 23  0 10  0.0000000  0  9G10G12G17G05G04G25G09G02G30
 109733715.706 7  85506915.03846  20881611.375                    20881620.352
 112641415.635 7  87772610.341 7  21434949.617                    21434957.473
 121971378.655 7  95042733.610 6  23210382.906                    23210392.348
 115042331.787 7  89643467.417 7  21891815.453                    21891825.250
 114391648.147 8  89136499.97745  21767996.766                    21768005.785
 126725031.515 7  98746826.044 6  24114976.531                    24114989.289
 124568117.448 6  97066150.36443  23704537.969                    23704550.500
 108461177.069 7  84515324.39646  20639458.211                    20639464.516
 125864777.206 6  98076379.73043  23951243.234                    23951253.488
 11  8 23  0 10 30.0000000  0  9G10G12G17G05G04G25G09G02G30
 109737366.781 8  85509760.05046  20882305.797                    20882315.066
 112581930.006 8  87726257.943 7  21423629.641                    21423637.352
 122023632.649 7  95083450.958 6  23220326.281                    23220335.973
 114954104.819 7  89574719.237 7  21875026.016                    21875035.594
 114468748.958 8  89196578.49345  21782669.078                    21782677.602
 126625863.651 7  98669552.428 6  24096106.664                    24096119.184
 124646025.522 6  97126857.83743  23719363.836                    23719376.281
 108462237.918 8  84516151.03046  20639660.023                    20639666.211
 125764817.337 6  97998488.92343  23932221.648                    23932231.387
 11  8 23  0 11  0.0000000  0  9G10G12G17G05G04G25G09G02G30
 109741648.614 7  85513096.55546  20883120.719                    20883129.516
 112522877.523 8  87680243.074 7  21412392.617                    21412400.004
 122076045.496 7  95124292.106 6  23230299.383                    23230309.453
 114866196.588 7  89506219.406 7  21858297.422                    21858307.223
 114545974.634 8  89256754.31845  21797364.125                    21797373.492
 126526874.820 7  98592418.284 6  24077269.383                    24077281.652
 124724088.381 7  97187685.92543  23734219.422                    23734230.609
 108463579.354 8  84517196.31146  20639915.445                    20639921.762
 125665103.262 6  97920789.65543  23913246.836                    23913255.734
 11  8 23  0 11 30.0000000  0  9G10G12G17G05G04G25G09G02G30
 109746561.136 8  85516924.51246  20884055.398                    20884063.988
 112464260.910 8  87634567.822 7  21401237.945                    21401246.141
 122128617.814 7  95165257.480 6  23240304.391                    23240313.992
 114778610.085 7  89437970.255 7  21841630.734                    21841640.023
 114623322.911 8  89317025.67045  21812083.414                    21812092.453
 126428067.632 7  98515425.702 6  24058467.523                    24058479.414
 124802302.529 7  97248631.92343  23749103.141                    23749114.355
 108465200.043 8  84518459.18346  20640223.484                    20640229.453
 125565637.770 6  97843284.08743  23894318.500                    23894328.344
 11  8 23  0 12  0.0000000  0  9G10G12G17G05G04G25G09G02G30
 109752104.303 8  85521243.86846  20885110.266                    20885119.137
 112406081.684 8  87589233.392 7  21390166.367                    21390174.473
 122181350.204 7  95206347.603 6  23250339.055                    23250348.703
 114691348.216 7  89369974.082 7  21825024.938                    21825033.848
 114700791.902 7  89377391.08145  21826825.172                    21826834.160
 126329444.506 7  98438576.547 7  24039699.453                    24039711.719
 124880664.744 7  97309693.28543  23764014.227                    23764025.871
 108467098.786 8  84519938.72246  20640584.828                    20640591.480
 125466423.500 6  97765974.27342  23875439.898                    23875447.875
 11  8 23  0 12 30.0000000  0  9G10G12G17G05G04G25G09G02G30
 109758278.208 8  85526054.72246  20886285.422                    20886293.980
 112348341.924 8  87544241.376 7  21379179.352                    21379187.262
 122234243.225 7  95247562.871 6  23260404.508                    23260413.934
 114604413.216 7  89302232.598 7  21808481.977                    21808491.531
 114778379.333 8  89437848.77745  21841589.508                    21841598.680
 126231007.934 7  98361872.822 6  24020967.445                    24020979.609
 124959171.466 7  97370867.25143  23778954.070                    23778965.906
 108469274.150 8  84521633.82746  20640999.086                    20641004.941
 125367463.204 6  97688862.31143  23856606.969                    23856616.809
 11  8 23  0 13  0.0000000  0  9G10G12G17G05G04G25G09G02G30
 109765083.069 8  85531357.22546  20887580.266                    20887588.977
 112291044.512 8  87499594.062 7  21368275.789                    21368284.016
 122287297.295 7  95288903.657 6  23270500.031                    23270509.750
 114517808.621 7  89234748.571 7  21792001.367                    21792011.039
 114856083.963 8  89498397.79945  21856376.508                    21856385.293
 126132760.969 7  98285316.850 6  24002271.789                    24002283.227
 125037819.521 6  97432151.33243  23793920.109                    23793933.117
 108471725.293 8  84523543.81346  20641465.211                    20641471.422
 125268760.122 6  97611950.83843  23837825.484                    23837835.570
 11  8 23  0 13 30.0000000  0  9G10G12G17G05G04G25G09G02G30
 109772518.678 8  85537151.22046  20888994.938                    20889003.266
 112234191.602 8  87455293.101 7  21357457.414                    21357465.301
 122340513.157 7  95330370.528 6  23280626.961                    23280636.184
 114431537.084 7  89167524.086 7  21775584.578                    21775594.078
 114933903.501 8  89559036.34945  21871184.938                    21871193.984
 126034706.143 6  98208910.564 7  23983611.977                    23983625.184
 125116605.585 6  97493542.92143  23808912.563                    23808925.770
 108474451.255 8  84525667.96046  20641984.094                    20641990.125
 125170316.905 6  97535241.86043  23819092.250                    23819102.516
 11  8 23  0 14  0.0000000  0  9G10G12G17G05G04G25G09G02G30
 109780584.763 8  85543436.49346  20890529.969                    20890538.563
 112177785.663 8  87411340.429 7  21346723.383                    21346731.719
 122393891.292 7  95371963.797 6  23290784.031                    23290794.445
 114345601.147 8  89100561.101 7  21759231.578                    21759241.070
 115011836.274 8  89619763.13045  21886015.328                    21886023.762
 125936845.967 7  98132655.949 7  23964990.172                    23965003.141
 125195526.311 6  97555039.51143  23823930.375                    23823943.840
 108477450.646 8  84528005.15146  20642554.711                    20642561.211
 125072136.345 6  97458737.60543  23800408.781                    23800418.648
 11  8 23  0 14 30.0000000  0  9G10G12G17G05G04G25G09G02G30
 109789281.185 8  85550212.94246  20892184.609                    20892193.777
 112121827.987 8  87367737.043 7  21336075.203                    21336082.984
 122447432.187 7  95413683.894 6  23300972.453                    23300982.930
 114260003.436 8  89033861.649 7  21742942.633                    21742951.809
 115089879.881 8  89680576.28445  21900866.703                    21900875.328
 125839182.815 7  98056554.887 6  23946406.063                    23946418.422
 125274578.005 6  97616638.07543  23838973.883                    23838986.703
 108480721.781 8  84530554.10546  20643177.133                    20643183.703
 124974221.095 6  97382440.08543  23781776.289                    23781785.344
 11  8 23  0 15  0.0000000  0  9G10G12G17G05G04G25G09G02G30
 109798607.917 8  85557480.53646  20893959.555                    20893968.520
 112066321.679 8  87324485.374 7  21325512.641                    21325520.844
 122501136.777 7  95455531.547 6  23311192.609                    23311202.688
 114174747.308 8  88967428.391 7  21726718.789                    21726728.625
 115168032.822 8  89741474.63845  21915738.367                    21915747.766
 125741719.749 7  97980609.665 6  23927858.695                    23927871.863
 125353757.455 6  97678336.25543  23854041.070                    23854054.355
 108484264.151 8  84533314.40746  20643851.336                    20643857.340
 124876574.202 6  97306351.65943  23763194.445                    23763203.473
 11  8 23  0 15 30.0000000  0  9G10G12G17G05G04G25G09G02G30
 109808564.969 8  85565239.28846  20895854.477                    20895862.969
 112011268.672 8  87281586.937 7  21315036.617                    21315044.602
 122555005.301 7  95497506.947 6  23321444.047                    23321453.488
 114089835.150 8  88901263.153 7  21710560.883                    21710570.305
 115246293.052 8  89802456.58245  21930630.438                    21930640.063
 125644459.289 7  97904822.308 6  23909351.352                    23909362.547
 125433061.331 5  97740131.39043  23869131.414                    23869144.715
 108488076.382 8  84536284.98846  20644576.891                    20644583.074
 124779198.586 6  97230474.63744  23744664.250                    23744673.797
 11  8 23  0 16  0.0000000  0  9G10G12G17G05G04G25G09G02G30
 109819151.970 8  85573488.91046  20897868.906                    20897877.660
 111956671.295 8  87239043.524 7  21304647.102                    21304655.035
 122609038.344 7  95539610.580 6  23331725.227                    23331735.258
 114005269.966 8  88835368.274 7  21694467.914                    21694477.398
 115324659.018 8  89863520.91745  21945543.570                    21945553.152
 125547404.178 7  97829194.974 6  23890882.391                    23890893.469
 125512486.233 6  97802020.80743  23884246.680                    23884259.574
 108492157.375 8  84539464.99146  20645353.211                    20645359.438
 124682097.021 7  97154811.12644  23726187.000                    23726196.301
 11  8 23  0 16 30.0000000  0  9G10G12G17G05G04G25G09G02G30
 109830369.025 8  85582229.48946  20900003.398                    20900012.414
 111902532.236 8  87196857.242 7  21294344.383                    21294352.453
 122663236.484 7  95581842.851 6  23342039.406                    23342049.438
 113921054.530 8  88769745.911 7  21678442.414                    21678451.711
 115403128.945 8  89924666.25745  21960475.781                    21960485.582
 125450557.169 7  97753729.801 6  23872452.695                    23872463.426
 125592028.937 6  97864002.03843  23899383.633                    23899396.039
 108496505.920 8  84542853.48146  20646180.828                    20646186.836
 124585272.522 7  97079363.52844  23707761.375                    23707771.574
 11  8 23  0 17  0.0000000  0  9G10G12G17G05G04G25G09G02G30
 109842215.774 8  85591460.72946  20902258.047                    20902266.258
 111848853.006 8  87155029.262 7  21284129.578                    21284137.699
 122717600.244 7  95624204.155 6  23352384.570                    23352394.516
 113837191.536 7  88704398.179 7  21662484.094                    21662493.824
 115481700.811 8  89985891.03745  21975427.484                    21975437.156
 125353920.797 7  97678428.782 6  23854063.461                    23854074.215
 125671686.083 6  97926072.48043  23914541.320                    23914554.184
 108501120.893 8  84546449.56946  20647058.922                    20647064.910
 124488727.696 7  97004133.85343  23689389.375                    23689398.621
 11  8 23  0 17 30.0000000  0  9G10G12G17G05G04G25G09G02G30
 109854691.448 8  85601182.03946  20904632.188                    20904640.465
 111795635.787 8  87113561.309 7  21274002.492                    21274010.496
 122772130.091 7  95666694.900 6  23362761.375                    23362771.078
 113753683.691 8  88639327.199 7  21646592.422                    21646602.570
 115560372.687 8  90047193.74645  21990398.781                    21990407.832
 125257497.658 7  97603293.942 6  23835714.172                    23835725.633
 125751454.209 6  97988229.31643  23929721.016                    23929734.223
 108506000.905 8  84550252.19546  20647987.555                    20647993.879
 124392465.360 7  96929124.31743  23671071.102                    23671081.066
 11  8 23  0 18  0.0000000  0  9G10G12G17G05G04G25G09G02G30
 109867796.099 8  85611393.44646  20907125.828                    20907134.836
 111742883.052 8  87072455.282 7  21263964.234                    21263972.484
 122826826.811 7  95709315.653 6  23373170.078                    23373179.691
 113670533.825 8  88574535.167 7  21630769.539                    21630779.070
 115639142.995 8  90108573.15045  22005387.836                    22005397.324
 125161290.601 7  97528327.490 6  23817405.891                    23817418.535
 125831330.130 6  98050470.10443  23944920.922                    23944933.867
 108511145.122 8  84554260.68546  20648966.438                    20648972.809
 124296488.657 7  96854337.34943  23652807.945                    23652817.496
 11  8 23  0 18 30.0000000  0  9G10G12G17G05G04G25G09G02G30
 109881529.080 8  85622094.47546  20909739.000                    20909747.984
 111690596.879 8  87031712.814 7  21254014.438                    21254022.414
 122881690.948 7  95752066.864 6  23383609.227                    23383619.504
 113587744.738 8  88510024.241 7  21615015.539                    21615024.621
 115718009.883 8  90170027.82845  22020396.258                    22020405.230
 125065302.237 7  97453531.388 6  23799140.195                    23799152.637
 125911310.607 6  98112792.42843  23960141.039                    23960154.000
 108516552.448 8  84558474.19546  20649995.438                    20650001.809
 124200800.169 7  96779774.98743  23634598.156                    23634608.219
 11  8 23  0 19  0.0000000  0  9G10G12G17G05G04G25G09G02G30
 109895890.167 8  85633284.92846  20912471.695                    20912480.484
 111638779.276 8  86991335.480 7  21244153.797                    21244162.148
 122936722.771 7  95794948.756 6  23394082.266                    23394092.090
 113505318.940 8  88445796.407 7  21599330.461                    21599339.672
 115796971.363 8  90231556.22445  22035421.508                    22035430.758
 124969535.079 7  97378907.682 7  23780916.336                    23780929.340
 125991392.221 6  98175193.53043  23975379.500                    23975392.914
 108522221.140 8  84562891.38446  20651074.250                    20651080.344
 124105402.694 7  96705439.32943  23616444.227                    23616454.113
 11  8 23  0 19 30.0000000  0  9G10G12G17G05G04G25G09G02G30
 109910878.949 8  85644964.48946  20915324.117                    20915332.691
 111587432.160 8  86951324.752 7  21234382.828                    21234391.035
 122991922.955 7  95837961.854 6  23404586.852                    23404596.641
 113423259.326 8  88381853.914 7  21583715.281                    21583724.305
 115876025.650 8  90293156.94345  22050465.555                    22050474.723
 124873991.825 7  97304458.445 7  23762735.453                    23762748.031
 126071571.686 6  98237670.87142  23990637.719                    23990650.984
 108528150.395 8  84567511.58646  20652202.250                    20652208.250
 124010299.175 7  96631332.70643  23598347.570                    23598355.926
 11  8 23  0 20  0.0000000  0  9G10G12G17G05G04G25G09G02G30
 109926495.081 8  85657132.89946  20918295.836                    20918303.965
 111536557.674 8  86911682.322 7  21224701.672                    21224709.555
 123047291.719 7  95881106.301 6  23415122.594                    23415133.152
 113341568.397 7  88318198.712 7  21568169.867                    21568178.660
 115955170.896 8  90354828.54245  22065526.336                    22065535.129
 124778675.132 7  97230185.761 7  23744597.547                    23744609.695
 126151845.521 6  98300221.74342  24005913.430                    24005927.098
 108534338.531 8  84572333.52246  20653379.813                    20653385.820
 123915492.290 7  96557457.23543  23580306.547                    23580315.203
 11  8 23  0 20 30.0000000  0  9G10G12G17G05G04G25G09G02G30
 109942737.958 8  85669789.68246  20921386.359                    20921395.094
 111486158.147 8  86872409.982 7  21215111.445                    21215119.055
 123102829.910 7  95924382.785 6  23425691.445                    23425701.824
 113260249.026 8  88254833.027 7  21552694.938                    21552704.582
 116034405.484 7  90416569.74445  22080603.805                    22080613.129
 124683587.743 7  97156091.717 7  23726502.398                    23726514.918
 126232210.475 5  98362843.72242  24021206.430                    24021219.570
 108540784.676 8  84577356.49946  20654606.484                    20654612.824
 123820984.945 7  96483815.18144  23562321.930                    23562331.008
 11  8 23  0 21  0.0000000  0  9G10G12G17G05G04G25G09G02G30
 109959607.101 8  85682934.46846  20924596.570                    20924605.305
 111436235.701 8  86833509.392 7  21205611.164                    21205619.230
 123158537.809 7  95967791.503 6  23436291.898                    23436302.320
 113179303.810 8  88191758.907 7  21537291.563                    21537301.070
 116113727.696 7  90478379.22045  22095698.180                    22095707.563
 124588732.342 7  97082178.463 6  23708452.297                    23708464.520
 126312663.227 5  98425533.96342  24036516.828                    24036529.926
 108547487.696 8  84582579.63646  20655882.188                    20655888.086
 123726780.008 7  96410408.76844  23544395.477                    23544404.637
 11  8 23  0 21 30.0000000  0  9G10G12G17G05G04G25G09G02G30
 109977101.390 8  85696566.38046  20927925.523                    20927934.270
 111386791.641 8  86794981.580 7  21196202.313                    21196210.422
 123214415.770 7  96011332.748 6  23446925.711                    23446935.574
 113098735.018 7  88128978.109 7  21521959.750                    21521969.098
 116193135.309 7  90540255.25645  22110809.172                    22110818.500
 124494111.127 7  97008447.697 6  23690446.719                    23690458.199
 126393200.191 5  98488289.89142  24051842.078                    24051855.211
 108554445.709 8  84588001.47146  20657206.156                    20657212.566
 123632879.930 7  96337239.92243  23526526.008                    23526536.953
 11  8 23  0 22  0.0000000  0  9G10G12G17G05G04G25G09G02G30
 109995220.844 8  85710685.43146  20931373.836                    20931382.531
 111337828.637 8  86756828.610 7  21186885.117                    21186892.660
 123270464.579 7  96055007.101 6  23457590.844                    23457601.211
 113018545.881 8  88066493.120 7  21506700.625                    21506709.574
 116272626.886 7  90602196.72145  22125935.570                    22125945.801
 124399727.265 7  96934901.852 6  23672486.086                    23672497.195
 126473818.233 5  98551109.03442  24067183.609                    24067196.211
 108561657.887 8  84593621.33446  20658578.586                    20658584.625
 123539287.939 6  96264311.09044  23508716.641                    23508726.652
 11  8 23  0 22 30.0000000  0  9G10G12G17G05G04G25G09G02G30
 110013965.318 8  85725291.52346  20934940.656                    20934949.719
 111289348.795 8  86719052.131 7  21177659.555                    21177667.551
 123326684.779 7  96098814.971 6  23468289.531                    23468299.766
 112938738.762 8  88004305.822 7  21491513.570                    21491522.742
 116352200.855 7  90664202.37945  22141078.648                    22141088.219
 124305583.418 7  96861543.045 6  23654570.898                    23654582.301
 126554514.405 6  98613989.05642  24082539.766                    24082552.402
 108569123.584 8  84599438.76146  20659999.281                    20660005.594
 123446006.741 6  96191624.51244  23490965.664                    23490976.035
 11  8 23  0 23  0.0000000  0  9G10G12G17G05G04G25G09G02G30
 110033334.001 8  85740384.00646  20938626.508                    20938635.414
 111241353.928 8  86681653.556 7  21168525.891                    21168534.395
 123383076.612 7  96142756.612 6  23479020.445                    23479030.996
 112859316.430 8  87942418.345 7  21476399.961                    21476408.777
 116431855.626 7  90726271.01345  22156236.352                    22156245.531
 124211682.235 7  96788373.293 6  23636702.656                    23636713.516
 126635285.248 5  98676927.25542  24097908.281                    24097922.609
 108576841.193 8  84605452.46746  20661468.078                    20661474.445
 123353039.255 6  96119182.40044  23473274.414                    23473284.441
 11  8 23  0 23 30.0000000  0  9G10G12G17G05G04G25G09G02G30
 110053326.401 8  85755962.49746  20942430.891                    20942440.004
 111193846.453 8  86644634.758 7  21159485.531                    21159494.242
 123439641.125 6  96186832.801 6  23489784.617                    23489794.918
 112780281.841 7  87880833.007 7  21461359.867                    21461369.215
 116511589.650 7  90788401.40345  22171409.195                    22171418.586
 124118026.844 7  96715395.098 6  23618879.422                    23618891.535
 126716128.06615  98739921.54252  24113293.648                    24113307.230
 108584809.990 8  84611661.92346  20662984.148                    20662990.535
 123260388.768 7  96046987.25144  23455643.719                    23455653.348
 11  8 23  0 24  0.0000000  0  9G10G12G17G05G04G25G09G02G30
 110073940.869 8  85772025.70446  20946353.695                    20946362.340
 111146827.914 8  86607996.951 7  21150538.695                    21150546.895
 123496378.005 7  96231043.334 6  23500581.203                    23500591.336
 112701636.743 8  87819551.179 7  21446394.750                    21446404.000
 116591400.331 7  90850591.53745  22186596.594                    22186605.852
 124024619.046 7  96642609.830 6  23601105.281                    23601116.918
 126797038.558 6  98802968.44542  24128690.375                    24128703.703
 108593027.730 8  84618065.35246  20664548.188                    20664554.555
 123168057.179 6  95975040.61344  23438073.617                    23438083.258
 11  8 23  0 24 30.0000000  0  9G10G12G17G05G04G25G09G02G30
 110095176.801 8  85788573.17346  20950394.844                    20950403.961
 111100299.799 8  86571741.281 7  21141684.336                    21141692.691
 123553287.683 7  96275388.480 6  23511411.047                    23511421.043
 112623384.214 8  87758575.230 7  21431502.914                    21431512.309
 116671286.100 7  90912840.17145  22201798.367                    22201807.563
 123931461.567 7  96570019.643 6  23583377.430                    23583389.750
 126878013.512 6  98866065.65442  24144099.992                    24144112.668
 108601493.386 8  84624661.96346  20666159.070                    20666165.324
 123076047.420 7  95903344.74044  23420564.203                    23420574.492
 11  8 23  0 25  0.0000000  0  9G10G12G17G05G04G25G09G02G30
 110117034.012 8  85805604.75146  20954554.313                    20954562.344
 111054264.582 8  86535869.703 7  21132924.180                    21132932.410
 123610370.898 6  96319868.865 6  23522273.578                    23522283.410
 112545526.824 7  87697907.208 7  21416687.430                    21416697.309
 116751245.722 7  90975146.35145  22217014.734                    22217024.027
 123838557.532 7  96497626.910 6  23565699.336                    23565710.461
 126959050.160 5  98929210.98042  24159520.969                    24159533.477
 108610206.108 8  84631451.09846  20667817.141                    20667823.258
 122984362.621 7  95831902.06444  23403117.844                    23403126.969
 11  8 23  0 25 30.0000000  0  9G10G12G17G05G04G25G09G02G30
 110139512.105 8  85823120.14146  20958831.453                    20958840.023
 111008724.929 8  86500384.275 7  21124258.430                    21124266.672
 123667628.494 6  96364485.121 6  23533169.305                    23533179.113
 112468067.597 8  87637549.422 7  21401947.430                    21401956.836
 116831277.890 7  91037509.06445  22232243.836                    22232253.359
 123745909.895 7  96425433.994 6  23548068.898                    23548079.875
 127040145.457 5  98992401.85742  24174952.273                    24174965.289
 108619165.099 8  84638432.12446  20669522.211                    20669528.488
 122893005.905 7  95760715.02044  23385733.656                    23385741.793
 11  8 23  0 26  0.0000000  0  9G10G12G17G05G04G25G09G02G30
 110162609.512 8  85841118.12246  20963226.641                    20963235.301
 110963681.366 8  86465285.410 7  21115686.898                    21115694.820
 123725060.400 6  96409237.219 6  23544097.977                    23544108.180
 112391008.467 8  87577503.402 7  21387283.586                    21387292.977
 116911380.074 7  91099926.30245  22247486.922                    22247496.266
 123653520.573 7  96353442.361 6  23530487.281                    23530498.641
 127121295.499 5  99055635.52042  24190394.914                    24190408.508
 108628368.460 8  84645603.58246  20671273.234                    20671279.531
 122801979.286 7  95689785.23744  23368412.086                    23368420.547
 11  8 23  0 26 30.0000000  0  9G10G12G17G05G04G25G09G02G30
 110186325.830 8  85859598.37146  20967739.492                    20967748.383
 110919136.381 8  86430575.040 7  21107210.273                    21107218.488
 123782667.284 6  96454125.635 6  23555060.813                    23555070.523
 112314352.234 8  87517771.334 7  21372696.531                    21372705.824
 116991551.008 7  91162397.11945  22262742.938                    22262752.617
 123561392.708 7  96281654.403 6  23512956.211                    23512966.969
 127202497.351 5  99118909.39252  24205846.828                    24205860.387
 108637815.312 8  84652964.76246  20673071.141                    20673077.523
 122711285.944 7  95619115.09244  23351153.500                    23351162.176
 11  8 23  0 27  0.0000000  0  9G10G12G17G05G04G25G09G02G30
 110210660.120 8  85878560.18346  20972370.344                    20972379.531
 110875091.999 8  86396254.755 7  21098829.055                    21098837.137
 123840449.522 6  96499150.698 6  23566056.070                    23566065.844
 112238101.491 8  87458355.234 7  21358186.344                    21358195.645
 117071789.018 7  91224920.19645  22278011.750                    22278021.051
 123469528.901 7  96210072.253 6  23495474.914                    23495485.809
 127283747.811 6  99182221.25742  24221309.844                    24221322.316
 108647504.518 8  84660514.79446  20674914.609                    20674921.223
 122620928.745 7  95548706.91344  23333958.234                    23333968.086
 11  8 23  0 27 30.0000000  0  9G10G12G17G05G04G25G09G02G30
 110235611.829 8  85898003.09446  20977118.336                    20977127.367
 110831549.934 8  86362325.888 7  21090543.094                    21090551.148
 123898407.617 6  96544312.828 5  23577086.047                    23577094.984
 112162258.731 8  87399257.036 7  21343753.641                    21343762.832
 117152092.324 7  91287494.14745  22293293.289                    22293302.281
 123377931.825 7  96138697.946 6  23478044.180                    23478055.484
 127365043.560 6  99245568.44343  24236779.594                    24236791.723
 108657434.315 8  84668252.29946  20676804.102                    20676810.383
 122530910.404 7  95478562.78744  23316828.961                    23316837.656
 11  8 23  0 28  0.0000000  0  9G10G12G17G05G04G25G09G02G30
 110261179.781 8  85917926.19746  20981984.227                    20981992.992
 110788512.107 8  86328789.930 7  21082353.563                    21082361.387
 123956541.831 6  96589612.219 5  23588148.070                    23588157.414
 112086826.239 8  87340478.522 7  21329399.828                    21329408.977
 117232459.658 7  91350118.00245  22308586.336                    22308595.965
 123286604.141 7  96067533.520 6  23460665.344                    23460676.777
 127446381.525 6  99308948.51343  24252257.008                    24252271.000
 108667603.802 8  84676176.58346  20678739.648                    20678746.105
 122441233.694 7  95408684.88543  23299763.023                    23299772.301
 11  8 23  0 28 30.0000000  0  9G10G12G17G05G04G25G09G02G30
 110287362.940 8  85938328.67646  20986966.305                    20986975.039
 110745980.262 8  86295648.239 7  21074259.828                    21074267.574
 124014852.770 6  96635049.268 6  23599244.313                    23599254.219
 112011806.826 8  87282021.881 7  21315123.836                    21315132.820
 117312889.278 7  91412790.37145  22323891.141                    22323901.363
 123195548.503 7  95996581.123 6  23443337.844                    23443349.754
 127527758.314 6  99372358.85443  24267742.414                    24267756.746
 108678011.907 8  84684286.80546  20680720.398                    20680726.598
 122351901.459 6  95339075.37044  23282764.828                    23282773.742
 11  8 23  0 29  0.0000000  0  9G10G12G17G05G04G25G09G02G30
 110314160.689 7  85959210.06046  20992066.133                    20992074.770
 110703956.770 8  86262902.664 7  21066262.883                    21066270.895
 124073340.929 6  96680624.399 5  23610373.664                    23610384.039
 111937203.231 8  87223889.276 7  21300926.883                    21300936.301
 117393379.716 7  91475510.14145  22339208.273                    22339218.309
 123104767.832 7  95925842.983 6  23426062.633                    23426074.539
 127609171.050 6  99435797.21843  24283235.492                    24283248.734
 108688657.538 8  84692582.10346  20682745.703                    20682752.328
 122262916.491 6  95269736.48044  23265830.484                    23265840.996
 11  8 23  0 29 30.0000000  0  9G10G12G17G05G04G25G09G02G30
 110341571.642 8  85980569.27946  20997281.750                    20997291.063
 110662442.884 8  86230554.190 7  21058363.289                    21058371.438
 124132006.535 6  96726337.791 5  23621538.023                    23621547.438
 111863017.545 8  87166082.300 7  21286810.250                    21286819.145
 117473929.108 7  91538275.84645  22354536.898                    22354545.949
 123014264.525 7  95855320.988 7  23408841.273                    23408851.195
 127690616.291 6  99499260.94243  24298733.328                    24298747.965
 108699539.061 8  84701061.22246  20684816.789                    20684823.133
 122174281.548 7  95200670.33244  23248964.000                    23248974.438
 11  8 23  0 30  0.0000000  0  9G10G12G17G05G04G25G09G02G30
 110369595.414 7  86002406.01646  21002614.656                    21002623.320
 110621440.599 8  86198604.370 7  21050560.438                    21050568.703
 124190850.474 6  96772190.171 5  23632735.383                    23632745.836
 111789252.552 8  87108603.138 7  21272773.039                    21272781.680
 117554536.008 7  91601086.37545  22369875.438                    22369885.348
 122924041.592 7  95785017.463 6  23391671.539                    23391682.496
 127772091.086 6  99562747.67943  24314238.484                    24314252.688
 108710655.761 8  84709723.59146  20686931.914                    20686938.270
 122085999.536 6  95131879.18444  23232164.391                    23232175.055
 11  8 23  0 30 30.0000000  0  9G10G12G17G05G04G25G09G02G30
 110398231.019 8  86024719.50546  21008063.727                    21008072.684
 110580952.094 7  86167054.882 7  21042855.836                    21042863.582
 124249873.173 6  96818181.815 5  23643966.656                    23643977.445
 111715911.042 8  87051453.960 7  21258816.438                    21258825.359
 117635199.582 7  91663941.06045  22385225.391                    22385235.000
 122834102.073 7  95714934.804 7  23374556.570                    23374568.191
 127853592.603 6  99626255.25543  24329748.406                    24329761.375
 108722006.925 8  84718568.66746  20689091.992                    20689098.426
 121998073.793 6  95063365.64544  23215433.102                    23215442.211
 11  8 23  0 31  0.0000000  0  9G10G12G17G05G04G25G09G02G30
 110427476.496 8  86047508.20446  21013629.211                    21013637.711
 110540978.219 8  86135906.405 7  21035248.930                    21035256.945
 124309074.44315  96864312.64615  23655232.859                    23655242.973
 111642994.810 8  86994636.175 7  21244940.688                    21244949.941
 117715917.250 7  91726837.88045  22400585.773                    22400595.375
 122744447.809 7  95645074.380 7  23357496.148                    23357507.797
 127935116.701 6  99689780.41543  24345261.055                    24345275.336
 108733590.113 8  84727594.54546  20691296.195                    20691302.309
 121910505.990 7  94995131.04144  23198768.891                    23198778.633
 11  8 23  0 31 30.0000000  0  9G10G12G17G05G04G25G09G02G30
 110457330.923 8  86070771.41246  21019310.336                    21019319.051
 110501521.355 8  86105160.792 7  21027740.820                    21027748.492
 124368454.63915  96910582.82115  23666531.898                    23666543.098
 111570506.106 8  86938151.524 7  21231146.695                    21231155.336
 117796687.608 7  91789775.79745  22415955.656                    22415965.379
 122655081.546 7  95575438.387 7  23340490.039                    23340502.039
 128016660.666 6  99753321.06643  24360778.477                    24360792.129
 108745404.476 8  84736800.56746  20693544.414                    20693550.730
 121823299.141 7  94927177.71143  23182173.648                    23182183.137
 11  8 23  0 32  0.0000000  0  9G10G12G17G05G04G25G09G02G30
 110487792.933 8  86094508.05946  21025107.086                    21025115.516
 110462582.064 8  86074818.480 7  21020330.656                    21020339.293
 124428013.68415  96956992.40515  23677866.320                    23677877.063
 111498447.023 8  86882001.645 7  21217434.016                    21217442.660
 117877508.662 7  91852753.19845  22431335.164                    22431345.023
 122566005.617 7  95506028.636 7  23323539.563                    23323551.242
 128098220.546 6  99816874.05343  24376299.023                    24376312.977
 108757448.225 8  84746185.31546  20695836.656                    20695842.660
 121736455.532 7  94859507.39043  23165647.781                    23165656.715
 11  8 23  0 32 30.0000000  0  9G10G12G17G05G04G25G09G02G30
 110518861.809 8  86118717.57346  21031018.898                    21031027.770
 110424162.603 8  86044881.233 7  21013019.641                    21013028.074
 124487752.73114  97003542.22215  23689233.539                    23689246.582
 111426820.418 8  86826188.746 7  21203804.195                    21203813.102
 117958379.179 7  91915769.14545  22446723.992                    22446734.047
 122477222.869 7  95436847.327 7  23306644.141                    23306657.004
 128179793.312 6  99880437.14842  24391822.531                    24391835.246
 108769720.433 8  84755748.08646  20698171.727                    20698178.293
 121649978.141 6  94792122.45443  23149191.695                    23149200.582
 11  8 23  0 33  0.0000000  0  9G10G12G17G05G04G25G09G02G30
 110550536.304 7  86143399.00346  21037046.945                    21037055.266
 110386264.674 8  86015350.377 7  21005807.984                    21005815.938
 124547673.03214  97050232.53315  23700636.305
 111355628.717 8  86770714.743 7  21190256.883                    21190265.797
 118039297.701 7  91978822.49444  22462122.945                    22462132.191
 122388735.988 7  95367896.578 7  23289805.516                    23289818.539
 128261376.436 6  99944008.31942  24407346.648                    24407360.746
 108782220.173 8  84765488.16446  20700550.531                    20700556.176
 121563869.849 6  94725025.14944  23132806.133                    23132815.824
 11  8 23  0 33 30.0000000  0  9G10G12G17G05G04G25G09G02G30
 110582815.896 8  86168551.93546  21043189.273                    21043198.195
 110348890.854 8  85986227.932 7  20998696.305                    20998703.961
 124607773.27815  97097063.85215  23712072.086
 111284874.739 8  86715581.822 7  21176792.563                    21176801.621
 118120263.379 7  92041912.60644  22477529.547                    22477539.207
 122300548.530 7  95299179.092 7  23273024.031                    23273036.727
 128342966.999 6 100007585.29542  24422873.586                    24422887.223
 108794946.663 8  84775404.92546  20702971.969                    20702978.477
 121478134.043 6  94658218.06744  23116491.094                    23116500.719
 11  8 23  0 34  0.0000000  0  9G10G12G17G05G04G25G09G02G30
 110615698.746 8  86194174.93046  21049446.563                    21049455.711
 110312042.064 8  85957514.588 7  20991684.133                    20991692.277
 124668054.33615  97144036.05415  23723543.563                    23723554.910
 111214560.583 8  86660791.618 7  21163412.094                    21163421.262
 118201274.284 7  92105037.95944  22492946.305                    22492955.660
 122212662.602 7  95230696.557 6  23256300.336                    23256312.207
 128424561.569 6 100071165.34342  24438400.273                    24438414.176
 108807898.221 8  84785497.06346  20705436.289                    20705442.840
 121392772.979 7  94591703.00344  23100247.789                    23100257.316
 11  8 23  0 34 30.0000000  0  9G10G12G17G05G04G25G09G02G30
 110649183.881 8  86220267.24646  21055818.953                    21055827.438
 110275720.256 8  85929211.879 7  20984772.219                    20984780.301
 124728516.88315  97191149.67715  23735049.242                    23735061.066
 111144688.936 8  86606346.229 7  21150115.648                    21150125.172
 118282328.984 7  92168197.45245  22508370.250                    22508380.012
 122125080.990 7  95162451.183 6  23239634.672                    23239645.691
 128506157.310 5 100134746.34242  24453927.477                    24453941.383
 108821074.074 8  84795763.97346  20707943.820                    20707950.363
 121307789.559 7  94525482.17844  23084075.695                    23084086.055
 11  8 23  0 35  0.0000000  0  9G10G12G17G05G04G25G09G02G30
 110683270.253 8  86246828.04746  21062305.180                    21062313.699
 110239927.167 8  85901321.166 7  20977960.719                    20977968.688
 124789161.351 5  97238405.085 5  23746590.586                    23746601.715
 111075261.810 8  86552247.219 7  21136904.375                    21136913.898
 118363426.314 7  92231390.15944  22523802.914                    22523812.551
 122037806.473 7  95094445.083 7  23223026.414                    23223038.121
 128587750.915 5                  24469453.672
 108834473.010 8  84806204.72146  20710493.609                    20710500.137
 121223186.569 7  94459557.82244  23067976.500                    23067986.023
 11  8 23  0 35 30.0000000  0  9G10G12G17G05G04G25G09G02G30
 110717956.036 8  86273855.93146  21068905.563                    21068913.926
 110204663.986 8  85873843.376 7  20971250.563                    20971258.590
 124849987.709 5  97285802.242 5  23758164.508                    23758176.633
 111006281.254 8  86498496.180 7  21123777.648                    21123786.645
 118444564.416 7  92294614.63745  22539242.492                    22539252.066
 121950841.406 7  95026680.111 7  23206477.594                    23206488.996
 128669339.371 5                  24484979.070
 108848093.180 8  84816817.84346  20713085.773                    20713091.676
 121138966.390 7  94393931.75144  23051949.688                    23051959.684
 11  8 23  0 36  0.0000000  0  9G10G12G17G05G04G25G09G02G30
 110753240.007 8  86301349.92446  21075619.688                    21075628.414
 110169932.072 8  85846779.544 7  20964641.516                    20964649.078
 124910996.677 5  97333341.638 5  23769773.414                    23769785.832
 110937749.782 8  86445095.081 7  21110736.742                    21110745.777
 118525741.762 7  92357869.68844  22554690.492                    22554700.012
 121864188.392 7  94959158.325 7  23189988.617                    23189999.594
 128750919.24315                  24500503.734
 108861933.700 8  84827602.67346  20715719.180                    20715725.348
 121055131.653 7  94328606.01244  23035996.539                    23036005.762
 11  8 23  0 36 30.0000000  0  8G10G12G17G05G04G25G02G30
 110789121.242 8  86329309.32046  21082447.547                    21082456.035
 110135733.481 8  85820131.294 7  20958133.711                    20958141.750
 124972189.035 5  97381023.932 5  23781419.914                    23781430.070
 110869670.428 8  86392046.272 7  21097781.859                    21097790.637
 118606957.563 7  92421154.72545  22570145.344                    22570154.594
 121777850.752 7  94891882.305 7  23173558.141                    23173570.426
 108875993.827 8  84838558.63946  20718394.547                    20718400.551
 120971685.658 7  94263583.23044  23020117.289                    23020126.309
 11  8 23  0 37  0.0000000  0  8G10G12G17G05G04G25G02G30
 110825598.407 8  86357733.09045  21089389.047                    21089397.828
 110102069.883 8  85793899.926 7  20951727.766                    20951735.816
 125033564.538 6  97428848.987 5  23793098.313                    23793110.043
 110802045.088 8  86339351.255 7  21084912.617                    21084922.152
 118688210.312 7  92484468.53344  22585607.133                    22585616.617
 121691830.944 7  94824853.936 7  23157188.563                    23157201.266
 108890272.322 8  84849684.74046  20721111.750                    20721118.016
 120888630.977 7  94198865.34844  23004312.406                    23004320.977
 11  8 23  0 37 30.0000000  0  8G10G12G17G05G04G25G02G30
 110862669.718 8  86386619.81446  21096443.742                    21096452.367
 110068942.258 8  85768086.199 7  20945423.430                    20945431.461
 125095123.550 6  97476816.987 5  23804813.195                    23804823.586
 110734875.573 8  86287011.414 7  21072131.000                    21072139.961
 118769497.942 7  92547809.51744  22601075.672                    22601085.383
 121606131.224 7  94758074.993 7  23140880.836                    23140893.230
 108904767.702 8  84860979.84846  20723870.031                    20723876.367
 120805969.962 7  94134454.21044  22988582.859                    22988591.121
 11  8 23  0 38  0.0000000  0  8G10G12G17G05G04G25G02G30
 110900333.334 8  86415968.06646  21103611.023                    21103619.359
 110036351.715 8  85742690.974 7  20939221.898                    20939230.297
 125156865.783 6  97524927.778 6  23816562.914                    23816572.969
 110668163.891 8  86235028.339 7  21059436.336                    21059444.996
 118850818.803 7  92611176.39245  22616550.555                    22616559.996
 121520753.794 7  94691547.168 7  23124634.242                    23124645.547
 108919477.933 8  84872442.36046  20726669.398                    20726675.750
 120723704.773 7  94070351.50344  22972927.914                    22972936.727
 11  8 23  0 38 30.0000000  0  8G10G12G17G05G04G25G02G30
 110938588.035 8  86445776.93046  21110890.164                    21110898.918
 110004300.335 8  85717715.883 7  20933122.703                    20933130.941
 125218792.016 6  97573181.937 5  23828346.555                    23828356.941
 110601912.558 8  86183403.961 7  21046829.133                    21046837.488
 118932171.611 7  92674568.16644  22632031.742                    22632041.098
 121435701.522 7  94625272.718 6  23108449.648                    23108460.430
 108934402.275 8  84884071.72246  20729509.547                    20729515.922
 120641838.290 7  94006559.47844  22957348.930                    22957358.578
 11  8 23  0 39  0.0000000  0  8G10G12G17G05G04G25G02G30
 110977432.619 8  86476045.43145  21118282.250                    21118290.805
 109972789.144 8  85693161.731 7  20927126.383                    20927134.516
 125280902.268 6  97621579.539 5  23840165.500                    23840175.828
 110536123.445 8  86132139.755 7  21034309.734                    21034318.813
 119013555.295 7  92737983.99645  22647518.313                    22647528.020
 121350977.265 7  94559253.856 6  23092327.375                    23092337.773
 108949539.903 8  84895867.27246  20732390.180                    20732396.359
 120560373.357 7  93943080.32944  22941846.992                    22941856.832
 11  8 23  0 39 30.0000000  0  8G10G12G17G05G04G25G02G30
 111016865.364 8  86506772.23945  21125786.109                    21125794.410
 109941819.376 8  85669029.452 7  20921232.883                    20921240.707
 125343196.863 6  97670120.736 5  23852020.000                    23852029.930
 110470798.647 8  86081237.355 7  21021879.063                    21021887.559
 119094968.121 7  92801422.54244  22663010.461                    22663020.254
 121266583.522 8  94493492.535 6  23076267.594                    23076278.199
 108964889.183 8  84907827.74846  20735311.008                    20735317.383
 120479312.510 7  93879916.04444  22926421.805                    22926431.215
 11  8 23  0 40  0.0000000  0  8G10G12G17G05G04G25G02G30
 111056884.331 8  86537955.84845  21133401.648                    21133409.777
 109911392.326 8  85645320.077 7  20915443.031                    20915450.512
 125405675.763 6  97718805.547 6  23863910.016                    23863919.723
 110405940.427 8  86030698.531 7  21009536.641                    21009545.773
 119176408.482 7  92864882.52044  22678508.172                    22678518.711
 121182522.469 8  94427990.428 6  23060270.961                    23060281.785
 108980448.531 8  84919951.89946  20738271.703                    20738277.883
 120398657.975 7  93817068.41944  22911073.484                    22911083.102
 11  8 23  0 40 30.0000000  0  9G10G12G17G05G04G25G09G02G30
 111097487.137 8  86569594.39146  21141127.961                    21141136.719
 109881508.594 8  85622034.066 7  20909756.133                    20909764.137
 125468338.445 6  97767633.599 6  23875833.117                    23875844.477
 110341549.936 8  85980524.161 7  20997283.672                    20997291.984
 119257874.219 7  92928362.27244  22694010.508                    22694020.355
 121098795.775 7  94362748.881 6  23044338.367                    23044349.113
 129484271.88315                  24640051.844
 108996215.745 8  84932238.04146  20741272.016                    20741278.680
 120318411.310 6  93754538.60744  22895803.148                    22895812.402
 11  8 23  0 41  0.0000000  0  9G10G12G17G05G04G25G09G02G30
 111138673.616 8  86601687.74346  21148965.305                    21148974.258
 109852170.507 8  85599173.227 7  20904173.117                    20904181.133
 125531186.347 5  97816605.969 6  23887793.078                    23887804.223
 110277630.511 8  85930716.854 7  20985119.914                    20985128.961
 119339364.957 7  92991861.50444  22709517.797                    22709527.555
 121015407.447 7  94297770.991 7  23028469.820                    23028481.441
 129565595.452 5                  24655528.906
 109012191.230 8  84944686.46946  20744312.094                    20744318.418
 120238576.603 7  93692329.82044  22880611.016                    22880619.840
 11  8 23  0 41 30.0000000  0  9G10G12G17G05G04G25G09G02G30
 111180441.998 8  86634234.52346  21156913.680                    21156922.414
 109823379.494 8  85576738.675 7  20898694.477                    20898702.465
 125594219.804 6  97865722.904 6  23899788.359                    23899798.898
 110214184.473 8  85881278.421 7  20973046.336                    20973055.652
 119420879.696 7  93055379.44244  22725029.148                    22725039.012
 120932360.156 7  94233058.851 7  23012666.398                    23012677.828
 129646876.743 5                  24670996.359
 109028373.884 8  84957296.32246  20747391.688                    20747397.793
 120159156.555 7  93630444.10944  22865497.039                    22865506.965
 11  8 23  0 42  0.0000000  0  9G10G12G17G05G04G25G09G02G30
 111222791.066 8  86667233.78045  21164972.609                    21164981.570
 109795137.523 8  85554731.946 7  20893320.086                    20893328.266
 125657439.474 6  97914984.985 6  23911818.375                    23911829.137
 110151214.024 8  85832210.576 7  20961063.781                    20961072.480
 119502417.440 7  93118915.30644  22740545.313                    22740555.531
 120849656.887 7  94168614.785 7  22996928.445                    22996939.773
 129728112.889 5                  24686455.039
 109044762.787 8  84970066.90446  20750510.414                    20750516.707
 120080154.076 7  93568883.78644  22850463.820                    22850473.320
 11  8 23  0 42 30.0000000  0  9G10G12G17G05G04G25G09G02G30
 111265719.238 7  86700684.29545  21173141.328                    21173150.383
 109767445.339 8  85533153.623 7  20888050.883                    20888058.379
 125720845.160 6  97964392.006 6  23923884.734                    23923894.699
 110088721.075 8  85783514.818 7  20949171.492                    20949180.219
 119583976.481 7  93182467.73744  22756066.000                    22756075.617
 120767299.920 7  94104440.553 7  22981256.656                    22981267.980
 129809300.907 6                  24701905.656
 109061356.344 8  84982996.93946  20753667.875                    20753674.336
 120001571.467 7  93507650.59244  22835510.570                    22835519.254
 11  8 23  0 43  0.0000000  0  9G10G12G17G05G04G25G09G02G30
 111309224.489 8  86734584.48545  21181420.297                    21181429.031
 109740304.443 8  85512004.884 7  20882885.797                    20882893.691
 125784437.199 6  98013944.241 6  23935985.773                    23935995.965
 110026707.681 8  85735192.735 7  20937370.930                    20937379.688
 119665555.446 7  93246035.69144  22771590.227                    22771599.375
 120685291.718 7  94040538.084 7  22965650.914                    22965662.617
 129890437.786 6                  24717344.133
 109078153.500 8  84996085.61946  20756864.414                    20756871.129
 119923411.215 7  93446746.52744  22820636.953                    22820645.785
 11  8 23  0 43 30.0000000  0  9G10G12G17G05G04G25G09G02G30
 111353304.987 8  86768932.91546  21189808.664                    21189816.875
 109713715.798 8  85491286.444 7  20877825.688                    20877834.148
 125848215.789 6  98063641.808 6  23948121.938                    23948132.918
 109965176.056 8  85687246.041 7  20925661.742                    20925670.438
 119747153.081 7  93309618.19744  22787117.242                    22787127.027
 120603635.015 7  93976909.509 6  22950112.172                    22950122.941
 129971520.632 6                  24732774.047
 109095152.977 8  85009331.96546  20760099.180                    20760105.801
 119845675.861 7  93386173.52344  22805844.344                    22805853.945
 11  8 23  0 44  0.0000000  0  9G10G12G17G05G04G25G09G02G30
 111397959.134 8  86803728.33046  21198306.008                    21198314.672
 109687680.565 8  85470999.261 7  20872871.750                    20872880.129
 125912181.196 6  98113484.966 6  23960294.891                    23960305.102
 109904128.067 8  85639676.221 7  20914044.602                    20914053.148
 119828768.250 7  93373214.36044  22802648.539                    22802658.000
 120522332.365 7  93913556.831 7  22934640.625                    22934651.742
 130052546.285 6                  24748192.891
 109112353.532 8  85022735.00046  20763372.227                    20763378.570
 119768368.064 7  93325933.68044  22791133.516                    22791142.270
 11  8 23  0 44 30.0000000  0  9G10G12G17G05G04G25G09G02G30
 111443185.344 8  86838969.52645  21206912.164                    21206920.332
 109662200.710 8  85451144.829 7  20868023.359                    20868031.219
 125976333.652 6  98163473.868 6  23972502.359                    23972513.035
 109843565.721 8  85592484.824 7  20902519.930                    20902528.797
 119910399.811 7  93436823.29444  22818182.695                    22818192.840
 120441386.571 7  93850482.174 7  22919237.578                    22919248.371
 130133511.888 5                  24763600.898
 109129754.373 8  85036294.09346  20766683.547                    20766690.332
 119691490.595 7  93266029.16044  22776503.867                    22776512.824
 11  8 23  0 45  0.0000000  0  9G10G12G17G05G04G25G09G02G30
 111488981.997 8  86874655.20946  21215627.094                    21215635.449
 109637276.391 8  85431723.290 7  20863280.063                    20863287.945
 126040673.441 6  98213608.773 6  23984745.297                    23984756.496
 109783491.110 8  85545673.489 7  20891088.063                    20891097.020
 119992046.158 7  93500443.74844  22833719.492                    22833728.953
 120360799.982 7  93787687.433 7  22903901.734                    22903913.359
 130214414.284 5                  24778994.844
 109147353.963 8  85050008.07046  20770032.906                    20770039.152
 119615045.621 7  93206461.66744  22761957.258                    22761966.391
 11  8 23  0 45 30.0000000  0  9G10G12G17G05G04G25G09G02G30
 111535347.168 8  86910783.91046  21224450.297                    21224458.922
 109612909.094 8  85412735.792 7  20858643.188                    20858651.164
 126105200.784 6  98263889.803 6  23997024.984                    23997035.934
 109723906.132 8  85499243.674 7  20879749.477                    20879758.238
 120073706.189 7  93564074.87844  22849259.219                    22849268.332
 120280575.059 7  93725174.502 7  22888635.758                    22888647.078
 130295250.591 6                  24794377.938
 109165151.057 8  85063875.92946  20773419.469                    20773425.660
 119539035.657 7  93147233.14144  22747492.242                    22747502.195
 11  8 23  0 46  0.0000000  0  9G10G12G17G05G04G25G09G02G30
 111582279.221 8  86947354.33746  21233380.734                    21233389.633
 109589100.262 8  85394183.466 7  20854112.633                    20854120.234
 126169916.083 5  98314317.269 6  24009339.938                    24009350.930
 109664813.151 8  85453197.229 7  20868504.258                    20868513.102
 120155378.708 7  93627715.74544  22864800.445                    22864809.824
 120200714.626 7  93662945.597 7  22873438.898                    22873449.863
 130376018.130 5 101591817.30852  24809748.039                    24809760.762
 109183145.066 8  85077897.24746  20776843.469                    20776849.930
 119463463.457 7  93088345.72644  22733111.320                    22733120.621
 11  8 23  0 46 30.0000000  0  9G10G12G17G05G04G25G09G02G30
 111629776.390 8  86984365.11846  21242419.219                    21242427.918
 109565851.300 8  85376067.403 7  20849688.609                    20849696.801
 126234818.960 5  98364890.939 6  24021689.086                    24021701.066
 109606213.643 8  85407535.309 7  20857353.398                    20857362.082
 120237062.521 7  93691365.40544  22880344.195                    22880354.051
 120121221.229 7  93601002.680 7  22858311.914                    22858323.117
 130456713.986 5 101654696.85542  24825105.031                    24825118.254
 109201334.242 8  85092070.63446  20780304.922                    20780311.105
 119388331.575 7  93029801.40244  22718814.570                    22718823.656
 11  8 23  0 47  0.0000000  0  9G10G12G17G05G04G25G09G02G30
 111677836.342 8  87021814.43046  21251565.266                    21251573.906
 109543162.932 8  85358388.157 7  20845370.773                    20845378.910
 126299909.807 5  98415611.044 6  24034075.523                    24034087.582
 109548109.490 8  85362259.380 7  20846296.578                    20846305.285
 120318756.206 7  93755022.77144  22895890.383                    22895900.469
 120042097.132 7  93539347.549 7  22843254.195                    22843266.637
 130537334.937 5 101717518.10342  24840447.422                    24840460.773
 109219717.479 8  85106395.23446  20783802.922                    20783809.457
 119313642.167 7  92971601.86745  22704601.555                    22704611.883
 11  8 23  0 47 30.0000000  0  9G10G12G17G05G04G25G09G02G30
 111726457.186 8  87059700.79145  21260817.289                    21260825.715
 109521035.247 8  85341145.812 7  20841160.328                    20841168.176
 126365188.447 5  98466477.551 5  24046499.016                    24046510.406
 109490502.380 8  85317370.769 7  20835334.156                    20835342.988
 120400458.362 7  93818686.74644  22911437.555                    22911447.918
 119963344.689 7  93477981.993 7  22828268.156                    22828280.238
 130617877.748 5                  24855773.242
 109238293.386 8  85120869.97046  20787338.070                    20787344.207
 119239397.402 7  92913748.81645  22690473.211                    22690482.758
 11  8 23  0 48  0.0000000  0  8G10G12G17G05G04G25G02G30
 111775638.720 8  87098024.07146  21270175.867                    21270184.723
 109499471.280 8  85324342.735 7  20837056.586                    20837064.641
 126430656.554 4  98517491.651 5  24058953.969                    24058967.715
 109433395.791 8  85272872.169 7  20824467.047                    20824475.680
 120482169.005 7  93882357.34344  22926986.695                    22926997.105
 119884967.958 7  93416909.210 6  22813354.008                    22813364.992
 109257062.217 8  85135495.03346  20790909.547                    20790915.859
 119165601.415 7  92856245.45444  22676430.469                    22676440.020
 11  8 23  0 48 30.0000000  0  8G10G12G17G05G04G25G02G30
 111825378.657 7  87136782.46845  21279641.133                    21279649.813
 109478471.876 8  85307979.564 7  20833060.680                    20833068.625
 126496314.278 4  98568653.509 5  24071451.375
 109376791.328 8  85228764.832 7  20813695.781                    20813704.332
 120563886.893 7  93946033.58944  22942536.797                    22942547.852
 119806969.313 7  93356131.060 7  22798511.539                    22798522.723
 109276022.792 8  85150269.49746  20794517.695                    20794523.875
 119092256.561 7  92799093.63244  22662473.570                    22662482.910
 11  8 23  0 49  0.0000000  0  8G10G12G17G05G04G25G02G30
 111875673.938 7  87175973.61745  21289212.063                    21289220.707
 109458037.259 8  85292056.494 7  20829172.172                    20829180.113
 126562160.66314  98619962.29415  24083983.188
 109320689.710 8  85185049.314 7  20803019.898                    20803028.762
 120645610.124 6  94009713.98844  22958088.352                    22958098.965
 119729350.272 7  93295648.716 7  22783741.680                    22783752.586
 109295173.129 8  85165191.84946  20798161.766                    20798168.039
 119019364.193 7  92742294.39244  22648602.273                    22648611.750
 11  8 23  0 49 30.0000000  0  7G10G12G05G04G25G02G30
 111926521.757 7  87215595.30146  21298888.031                    21298896.711
 109438167.063 8  85276573.249 7  20825391.141                    20825398.730
 109265091.948 8  85141726.424 7  20792440.273                    20792448.742
 120727336.438 7  94073396.80144  22973640.172                    22973650.816
 119652112.343 7  93235463.336 7  22769043.445                    22769054.746
 109314510.739 8  85180260.12546  20801841.648                    20801848.000
 118946925.712 7  92685848.83544  22634818.078                    22634827.227
 11  8 23  0 50  0.0000000  0  7G10G12G05G04G25G02G30
 111977920.629 8  87255646.38245  21308669.094                    21308677.566
 109418862.927 8  85261531.063 7  20821717.359                    20821725.922
 109210000.342 8  85098797.938 8  20781956.070                    20781964.648
 120809065.103 7  94137081.44544  22989193.375                    22989203.574
 119575258.527 7  93175577.274 7  22754419.023                    22754430.246
 109334034.942 8  85195473.78946  20805556.703                    20805562.914
 118874943.970 7  92629759.18744  22621120.258                    22621129.801
 11  8 23  0 50 30.0000000  0  7G10G12G05G04G25G02G30
 112029869.386 8  87296125.94145  21318554.797                    21318563.379
 109400126.206 8  85246931.026 7  20818151.945                    20818160.313
 109155417.234 8  85056265.676 8  20771569.086                    20771578.113
 120890795.458 7  94200767.45044  23004745.969                    23004755.563
 119498791.896 7  93115992.932 7  22739867.070                    22739878.781
 109353745.434 8  85210832.61646  20809307.508                    20809313.930
 118803422.097 7  92574027.87145  22607510.039                    22607519.305
 11  8 23  0 51  0.0000000  0  7G10G12G05G04G25G02G30
 112082365.825 7  87337032.27546  21328544.219                    21328552.781
 109381958.052 8  85232774.036 7  20814694.734                    20814702.789
 109101344.289 8  85014130.960 8  20761279.625                    20761288.625
 120972526.353 7  94264453.88444  23020298.805                    23020309.094
 119422714.901 7  93056712.198 7  22725390.352                    22725401.492
 109373640.880 8  85226335.56646  20813093.758                    20813099.910
 118732362.322 7  92518656.64944  22593987.539                    22593997.074
 11  8 23  0 51 30.0000000  0  7G10G12G05G04G25G02G30
 112135407.591 7  87378363.54745  21338637.484                    21338646.223
 109364358.717 8  85219060.261 8  20811345.625                    20811353.570
 109047783.157 8  84972395.046 8  20751087.266                    20751096.098
 121054256.477 7  94328139.70044  23035851.523                    23035860.867
 119347029.776 7  92997736.807 7  22710987.617                    22710999.160
 109393720.007 8  85241981.64246  20816914.750                    20816920.738
 118661766.806 7  92463647.18445  22580553.555                    22580562.848
 11  8 23  0 52  0.0000000  0  7G10G12G05G04G25G02G30
 112188992.942 7  87420118.37545  21348834.508                    21348843.184
 109347329.791 8  85205790.965 7  20808105.516                    20808112.996
 108994735.744 8  84931059.437 8  20740992.570                    20741001.641
 121135985.054 7  94391824.32844  23051404.813                    23051413.285
 119271739.256 7  92939068.931 7  22696660.328                    22696671.395
 109413981.793 8  85257770.06146  20820770.273                    20820776.684
 118591638.256 7  92409001.57444  22567208.977                    22567218.059
 11  8 23  0 52 30.0000000  0  8G10G12G17G05G04G25G02G30
 112243117.802 7  87462293.59446  21359134.500                    21359142.707
 109330869.887 8  85192965.076 7  20804972.883                    20804980.684
 127028282.28715                  24172697.586
 108942201.831 8  84890123.955 8  20730995.781                    20731004.145
 121217708.830 7  94455505.19244  23066955.164                    23066965.207
 119196843.941 7  92880709.005 7  22682408.469                    22682419.625
 109434423.606 8  85273698.75546  20824660.578                    20824666.883
 118521977.055 7  92354720.15444  22553952.070                    22553961.289
 11  8 23  0 53  0.0000000  0  8G10G12G17G05G04G25G02G30
 112297784.082 7  87504890.68645  21369536.758                    21369545.367
 109314983.620 8  85180586.160 8  20801950.078                    20801958.301
 127095641.236 5  99035681.77715  24185514.914
 108890186.951 8  84849592.911 8  20721097.555                    20721106.320
 121299430.771 7  94519184.62644  23082506.391                    23082516.391
 119122350.081 7  92822661.890 7  22668233.023                    22668244.504
 109455047.701 8  85289769.48346  20828584.984                    20828591.324
 118452789.354 7  92300807.69044  22540786.906                    22540795.754
 11  8 23  0 53 30.0000000  0  8G10G12G17G05G04G25G02G30
 112352987.779 8  87547906.55545  21380041.883                    21380050.668
 109299669.795 8  85168653.307 7  20799035.945                    20799044.070
 127163189.81215  99088316.99814  24198369.031
 108838690.555 8  84809465.893 8  20711298.016                    20711306.594
 121381147.519 7  94582860.01944  23098057.039                    23098066.738
 119048257.980 8  92764927.839 7  22654133.266                    22654144.953
 109475850.817 8  85305979.71246  20832543.781                    20832549.977
 118384075.425 7  92247264.40945  22527711.109                    22527719.797
 11  8 23  0 54  0.0000000  0  8G10G12G17G05G04G25G02G30
 112408726.480 8  87591339.31045  21390648.563                    21390657.551
 109284928.643 8  85157166.692 8  20796230.594                    20796238.738
 127230927.926 5  99141099.926 4  24211259.492
 108787714.240 8  84769744.123 8  20701597.836                    20701605.754
 121462857.992 7  94646530.50344  23113605.445                    23113616.254
 118974570.017 7  92707508.712 7  22640111.438                    22640122.219
 109496832.009 8  85322328.69646  20836536.430                    20836542.746
 118315837.380 7  92194091.95845  22514725.570                    22514734.551
 11  8 23  0 54 30.0000000  0  8G10G12G17G05G04G25G02G30
 112464997.727 8  87635187.04445  21401356.570                    21401365.523
 109270761.280 8  85146127.188 7  20793534.547                    20793543.012
 127298855.624 5  99194030.580 5  24224185.203
 108737260.089 8  84730429.245 8  20691996.258                    20692005.082
 121544561.178 7  94710195.36344  23129153.516                    23129164.020
 118901288.596 8  92650406.387 7  22626165.797                    22626177.277
 109517990.043 8  85338815.48846  20840562.188                    20840568.523
 118248077.535 7  92141292.14445  22501831.258                    22501840.242
 11  8 23  0 55  0.0000000  0  8G10G12G17G05G04G25G02G30
 112521800.164 7  87679448.67545  21412166.039                    21412174.688
 109257168.816 8  85135535.642 7  20790948.047                    20790956.367
 127366973.114 5  99247109.098 5  24237149.102
 108687329.212 8  84691522.106 8  20682494.672                    20682503.434
 121626256.161 7  94773853.79744  23144699.602                    23144709.945
 118828416.486 7  92593623.004 7  22612298.938                    22612310.328
 109539324.245 8  85355439.54546  20844622.406                    20844627.879
 118180798.526 7  92088867.00544  22489028.305                    22489036.738
 11  8 23  0 55 30.0000000  0  8G10G12G17G05G04G25G02G30
 112579131.102 7  87724122.13145  21423075.508                    21423084.656
 109244151.408 8  85125392.214 7  20788471.133                    20788479.148
 127435280.427 5  99300335.583 5  24250146.820
 108637923.176 8  84653023.926 8  20673092.781                    20673101.711
 121707941.602 7  94837504.80644  23160243.633                    23160253.527
 118755955.723 7  92537160.124 7  22598510.211                    22598521.402
 109560833.021 8  85372199.63346  20848715.086                    20848721.273
 118114002.269 7  92036818.03744  22476317.359                    22476326.363
 11  8 23  0 56  0.0000000  0  8G10G12G17G05G04G25G02G30
 112636988.447 7  87769205.77845  21434085.102                    21434094.340
 109231709.997 8  85115697.594 7  20786103.484                    20786111.582
 127503777.359 5  99353709.746 5  24263182.063
 108589043.821 8  84614936.155 8  20663792.016                    20663800.309
 121789616.817 6  94901147.82444  23175785.898                    23175796.070
 118683908.789 8  92481019.726 7  22584799.992                    22584811.203
 109582515.387 8  85389094.98846  20852840.938                    20852846.977
 118047691.081 7  91985147.03344  22463697.773                    22463708.383
 11  8 23  0 56 30.0000000  0  8G10G12G17G05G04G25G02G30
 112695370.278 7  87814698.10845  21445194.852                    21445203.816
 109219845.287 8  85106452.361 7  20783845.336                    20783853.832
 127572464.424 5  99407232.099 5  24276252.102                    24276262.012
 108540692.724 8  84577260.024 8  20654591.047                    20654599.383
 121871280.540 6  94964781.93444  23191326.164                    23191335.578
 118612278.218 7  92425203.738 7  22571168.891                    22571180.086
 109604370.373 8  85406124.84346  20857000.102                    20857006.090
 117981867.360 7  91933855.86144  22451172.875                    22451181.816
 11  8 23  0 57  0.0000000  0  8G10G12G17G05G04G25G02G30
 112754274.186 7  87860597.25845  21456403.773                    21456412.676
 109208557.615 8  85097656.772 7  20781697.789                    20781705.477
 127641341.395 5  99460902.404 5  24289359.320                    24289369.309
 108492871.153 8  84539996.495 8  20645490.852                    20645499.293
 121952931.956 6  95028406.42944  23206863.703                    23206873.328
 118541066.349 7  92369714.029 7  22557617.570                    22557628.934
 109626396.981 8  85423288.43246  20861191.672                    20861197.691
 117916533.225 7  91882946.20944  22438740.375                    22438749.102
 11  8 23  0 57 30.0000000  0  8G10G12G17G05G04G25G02G30
 112813697.988 7  87906901.50545  21467712.156                    21467720.387
 109197848.017 8  85089311.628 7  20779659.438                    20779667.617
 127710408.95414  99514720.89915  24302500.352                    24302512.633
 108445580.955 8  84503147.022 8  20636491.422                    20636500.273
 122034570.027 6  95092020.54044  23222399.383                    23222408.727
 118470275.750 7  92314552.568 7  22544146.430                    22544157.316
 109648594.346 8  85440585.08546  20865415.266                    20865422.031
 117851691.106 7  91832419.93944  22426400.781                    22426409.895
 11  8 23  0 58  0.0000000  0  8G10G12G17G05G04G25G02G30
 112873639.065 7  87953608.82845  21479118.555                    21479126.699
 109187716.435 8  85081416.878 7  20777731.727                    20777740.047
 127779665.28014  99568687.33115  24315679.156
 108398823.267 8  84466712.501 8  20627593.477                    20627602.340
 122116193.618 6  95155623.35244  23237930.891                    23237941.012
 118399908.316 7  92259720.841 7  22530756.375                    22530767.723
 109670960.699 7  85458013.39746  20869671.820                    20869678.094
 117787342.741 7  91782278.40445  22414155.656                    22414164.852
 11  8 23  0 58 30.0000000  0  7G10G12G05G04G25G02G30
 112934095.812 7  88000717.96845  21490623.195                    21490631.750
 109178164.034 8  85073973.446 8  20775913.641                    20775922.160
 108352599.945 8  84430694.356 8  20618798.063                    20618806.375
 122197802.169 6  95219214.46643  23253460.906                    23253470.207
 118329967.031 7  92205221.147 7  22517446.797                    22517458.277
 109693495.720 7  85475573.15246  20873960.430                    20873965.852
 117723490.890 7  91732523.77145  22402005.031                    22402014.180
 11  8 23  0 59  0.0000000  0  8G10G12G05G04G25G29G02G30
 112995065.108 7  88048226.50245  21502225.305                    21502233.496
 109169190.996 8  85066981.457 7  20774206.398                    20774214.844
 108306911.700 8  84395093.166 8  20610103.719                    20610112.176
 122279393.975 7  95282792.51843  23268986.836                    23268996.934
 118260453.540 7  92151054.813 7  22504219.234                    22504229.547
 129604842.93716 100990836.29916  24662989.406                    24662999.934
 109716197.769 8  85493263.05946  20878280.234                    20878286.512
 117660137.031 7  91683157.18045  22389949.523                    22389958.859
 11  8 23  0 59 30.0000000  0  8G10G12G05G04G25G29G02G30
 113056545.602 7  88096133.38145  21513924.047                    21513932.992
 109160797.897 8  85060441.376 7  20772609.047                    20772617.625
 108261760.709 8  84359910.617 8  20601511.930                    20601520.102
 122360968.723 7  95346357.27144  23284510.438                    23284521.043
 118191370.749 7  92097224.081 7  22491073.172                    22491084.031
 129525285.643 6 100928843.675 6  24647850.070                    24647861.570
 109739066.159 8  85511082.59146  20882631.961                    20882638.402
 117597283.893 7  91634180.74245  22377988.711                    22377998.406
 11  8 23  1  0  0.0000000  0  9G10G12G17G05G04G25G29G02G30
 113118535.121 7  88144436.89645  21525720.781                    21525729.059
 109152985.783 8  85054354.022 7  20771122.617                    20771130.410
 128058590.09715  99786043.52815  24368759.875
 108217148.907 8  84325148.205 8  20593022.328                    20593030.875
 122442526.050 6  95409908.42844  23300030.477                    23300040.262
 118122721.477 7  92043731.156 7  22478009.203                    22478020.387
 129445648.194 6 100866788.621 6  24632695.656                    24632706.813
 109762100.247 8  85529031.22746  20887015.086                    20887021.449
 117534933.988 7  91585596.43745  22366123.641                    22366133.004
 11  8 23  1  0 30.0000000  0  9G10G12G17G05G04G25G29G02G30
 113181030.411 7  88193134.52245  21537613.102                    21537621.586
 109145754.192 8  85048719.017 7  20769746.727                    20769754.703
 128128797.508 5  99840750.655 5  24382119.695
 108173076.417 8  84290806.039 8  20584635.563                    20584643.895
 122524063.952 6  95473444.45444  23315546.461                    23315556.680
 118054506.898 7  91990576.944 7  22465028.438                    22465039.680
 129365930.047 6 100804670.669 6  24617526.344                    24617536.277
 109785298.272 8  85547107.60546  20891429.656                    20891436.199
 117473088.542 7  91537405.22045  22354354.891                    22354364.121
 11  8 23  1  1  0.0000000  0  9G10G12G17G05G04G25G29G02G30
 113244029.381 7  88242224.62145  21549601.383                    21549609.902
 109139103.892 8  85043536.964 7  20768480.953                    20768489.258
 128199194.87715  99895605.69014  24395515.727
 108129544.899 8  84256885.406 8  20576351.813                    20576360.070
 122605581.799 6  95536964.84244  23331058.680                    23331068.512
 117986729.736 7  91937763.573 7  22452130.813                    22452141.758
 129286132.026 6 100742490.487 6  24602340.922                    24602351.219
 109808659.457 8  85565311.12246  20895875.133                    20895881.375
 117411749.828 7  91489608.83745  22342682.633                    22342692.254
 11  8 23  1  1 30.0000000  0  9G10G12G17G05G04G25G29G02G30
 113307529.197 7  88291704.98845  21561684.898                    21561693.375
 109133034.646 8  85038807.697 7  20767326.125                    20767334.012
 128269781.773 5  99950608.567 4  24408947.773
 108086555.871 8  84223387.504 8  20568171.289                    20568179.508
 122687078.314 7  95600468.59844  23346567.734                    23346576.590
 117919392.004 7  91885292.602 7  22439316.313                    22439328.133
 129206254.664 6 100680248.439 6  24587140.734                    24587151.230
 109832182.131 8  85583640.47846  20900351.156                    20900357.457
 117350919.787 7  91442208.81645  22331106.922                    22331115.898
 11  8 23  1  2  0.0000000  0  9G10G12G17G05G04G25G29G02G30
 113371527.896 7  88341574.09645  21573863.789                    21573872.145
 109127547.394 8  85034531.910 8  20766282.023                    20766290.020
 128340558.424 5 100005759.073 3  24422416.461
 108044110.384 8  84190313.132 8  20560093.711                    20560102.332
 122768552.715 6  95663955.15544  23362070.875                    23362081.270
 117852496.217 7  91833165.990 7  22426586.867                    22426598.215
 129126298.760 6 100617945.168 6  24571925.398                    24571935.605
 109855865.805 8  85602095.28846  20904858.227                    20904864.176
 117290600.555 7  91395206.83045  22319628.680                    22319637.680
 11  8 23  1  2 30.0000000  0  9G10G12G17G05G04G25G29G02G30
 113436023.280 7  88391830.23645  21586136.492                    21586145.406
 109122642.888 8  85030710.230 8  20765348.609                    20765356.754
 128411524.628 5                  24435920.898
 108002209.661 8  84157663.243 8  20552120.766                    20552129.203
 122850004.528 6  95727424.09644  23377570.258                    23377580.602
 117786044.583 7  91781385.468 7  22413941.586                    22413952.832
 129046264.931 7 100555581.184 6  24556695.305                    24556706.250
 109879709.559 8  85620674.84546  20909395.164                    20909401.656
 117230794.348 7  91348604.57245  22308248.141                    22308256.746
 11  8 23  1  3  0.0000000  0  9G10G12G17G05G04G25G29G02G30
 113501012.649 8  88442471.29845  21598503.492                    21598512.551
 109118320.568 8  85027342.191 8  20764525.938                    20764533.891
 128482680.319 5                  24449461.852
 107960854.750 8  84125438.674 8  20544251.164                    20544259.563
 122931432.203 6  95790874.22944  23393065.852                    23393076.270
 117720039.145 7  91729952.637 7  22401381.367                    22401392.645
 128966153.382 7 100493156.643 6  24541450.922                    24541461.281
 109903711.801 8  85639377.89346  20913962.852                    20913969.051
 117171502.830 7  91302403.36345  22296965.586                    22296973.793
 11  8 23  1  3 30.0000000  0  9G10G12G17G05G04G25G29G02G30
 113566493.850 8  88493495.60145  21610964.570                    21610972.855
 109114581.135 8  85024428.369 7  20763814.523                    20763822.695
 128554025.654 5                  24463037.625
 107920047.097 8  84093640.533 8  20536485.516                    20536493.801
 123012835.264 6  95854305.14444  23408556.719                    23408566.184
 117654482.270 7  91678869.338 7  22388906.375                    22388917.820
 128885964.744 7 100430672.004 6  24526191.141                    24526202.332
 109927871.740 8  85658203.82346  20918560.617                    20918567.082
 117112728.117 7  91256604.87045  22285780.977                    22285789.930
 11  8 23  1  4  0.0000000  0  9G10G12G17G05G04G25G29G02G30
 113632463.962 7  88544900.87845  21623518.109                    21623526.695
 109111424.139 7  85021968.370 8  20763213.867                    20763222.203
 128625560.268 5 100227840.26714  24476651.266
 107879787.872 8  84062269.737 8  20528824.586                    20528833.066
 123094212.773 6  95917716.16444  23424042.102                    23424051.992
 117589376.180 7  91628137.289 7  22376517.508                    22376528.844
 128805699.637 6 100368127.786 6  24510917.063                    24510928.016
 109952188.368 8  85677151.84646  20923187.625                    20923194.176
 117054472.211 7  91211210.63645  22274694.766                    22274704.129
 11  8 23  1  4 30.0000000  0  9G10G12G17G05G04G25G29G02G30
 113698920.699 7  88596685.34645  21636164.789                    21636173.199
 109108850.604 8  85019963.023 7  20762724.055                    20762732.180
 128697284.250 5 100283729.056 5  24490300.930
 107840078.370 8  84031327.308 8  20521267.992                    20521275.961
 123175563.988 6  95981106.68444  23439522.336                    23439532.945
 117524723.154 7  91577758.292 7  22364214.117                    22364225.422
 128725359.068 6 100305524.791 6  24495629.445                    24495639.750
 109976660.832 8  85696221.29746  20927844.859                    20927851.102
 116996737.259 7  91166222.34745  22263707.977                    22263717.449
 11  8 23  1  5  0.0000000  0  9G10G12G17G05G04G25G29G02G30
 113765862.062 7  88648847.44245  21648902.953                    21648911.352
 109106860.477 8  85018412.286 8  20762345.336                    20762353.496
 128769197.57214 100339765.47715  24503983.641
 107800920.158 8  84000814.446 8  20513816.492                    20513824.605
 123256888.212 6  96044476.16843  23454997.914                    23455008.121
 117460525.567 7  91527734.190 7  22351997.109                    22352008.914
 128644943.535 6 100242863.364 5  24480326.328                    24480336.500
 110001288.407 8  85715411.60746  20932531.125                    20932537.660
 116939525.199 7  91121641.51145  22252820.938                    22252830.543
 11  8 23  1  5 30.0000000  0  8G10G12G05G04G25G29G02G30
 113833285.588 8  88701385.27345  21661733.016                    21661741.758
 109105454.391 8  85017316.638 7  20762078.039                    20762086.152
 107762314.121 8  83970731.849 8  20506469.961                    20506478.434
 123338184.751 7  96107824.09843  23470468.375                    23470478.164
 117396785.834 7  91478066.867 7  22339868.047                    22339879.211
 128564454.168 6 100180144.389 6  24465009.422                    24465020.016
 110026070.020 8  85734721.95546  20937247.109                    20937253.051
 116882838.403 7  91077469.97245  22242034.414                    22242043.566
 11  8 23  1  6  0.0000000  0  8G10G12G05G04G25G29G02G30
 113901188.296 7  88754296.47045  21674654.383                    21674663.137
 109104631.930 8  85016675.755 7  20761921.352                    20761929.703
 107724261.082 8  83941080.161 8  20499228.781                    20499236.988
 123419452.243 6  96171149.38743  23485933.313                    23485942.863
 117333505.462 7  91428757.487 7  22327826.594                    22327837.496
 128483890.835 6 100117367.774 6  24449678.625                    24449689.547
 110051004.088 8  85754151.09746  20941991.859                    20941997.953
 116826677.936 7  91033708.55545  22231347.188                    22231356.801
 11  8 23  1  6 30.0000000  0  8G10G12G05G04G25G29G02G30
 113969567.508 7  88807578.98745  21687666.516                    21687675.715
 109104393.292 8  85016489.801 8  20761875.852                    20761884.344
 107686762.279 8  83911860.351 8  20492092.664                    20492101.152
 123500689.799 6  96234451.35743  23501392.289                    23501402.461
 117270686.599 7  91379807.738 7  22315872.695                    22315883.277
 128403254.198 6 100054534.075 6  24434334.008                    24434344.848
 110076089.643 8  85773698.27846  20946765.227                    20946771.730
 116771045.817 7  90990358.83245  22220760.906                    22220770.082
 11  8 23  1  7  0.0000000  0  8G10G12G05G04G25G29G02G30
 114038421.342 8  88861231.34045  21700769.219                    21700777.859
 109104738.881 8  85016759.091 7  20761941.711                    20761949.617
 107649818.571 8  83883073.082 8  20485062.578                    20485071.297
 123581897.044 6  96297729.68043  23516845.031                    23516855.309
 117208331.832 7  91331219.631 7  22304006.680                    22304017.602
 128322545.187 6  99991643.986 6  24418975.469                    24418986.449
 110101326.098 8  85793363.04946  20951567.727                    20951573.613
 116715944.308 7  90947422.57445  22210275.164                    22210284.727
 11  8 23  1  7 30.0000000  0  8G10G12G05G04G25G29G02G30
 114107747.517 7  88915251.74345  21713961.234                    21713970.168
 109105669.464 8  85017484.215 7  20762118.641                    20762126.742
 107613431.598 8  83854719.630 8  20478138.273                    20478146.684
 123663073.426 6  96360983.97943  23532293.172                    23532302.516
 117146443.656 7  91282995.106 7  22292230.047                    22292239.832
 128241765.041 6  99928698.512 6  24403603.891                    24403613.949
 110126713.121 8  85813145.13746  20956398.492                    20956404.758
 116661375.568 7  90904901.49445  22199891.719                    22199900.152
 11  8 23  1  8  0.0000000  0  8G10G12G05G04G25G29G02G30
 114177542.345 7  88969637.32745  21727243.250                    21727251.195
 109107183.363 8  85018663.872 7  20762406.734                    20762415.199
 107577601.424 8  83826800.045 8  20471320.016                    20471328.328
 123744217.091 6  96424212.77644  23547734.430                    23547743.520
 117085023.043 7  91235134.951 7  22280541.930                    22280552.398
 128160913.847 6  99865697.625 6  24388217.367                    24388228.742
 110152248.324 8  85833042.69146  20961257.820                    20961263.934
 116607340.373 7  90862796.15745  22189608.875                    22189618.246
 11  8 23  1  8 30.0000000  0  8G10G12G05G04G25G29G02G30
 114247803.651 7  89024386.39145  21740613.070                    21740621.668
 109109281.043 8  85020298.412 8  20762806.016                    20762814.484
 107542329.269 8  83799315.286 8  20464607.953                    20464616.102
 123825327.683 6  96487415.78144  23563168.930                    23563178.922
 117024072.389 7  91187640.968 7  22268942.953                    22268954.648
 128079991.926 6  99802641.671 6  24372819.438                    24372829.801
 110177930.988 8  85853055.15746  20966145.289                    20966150.711
 116553840.770 7  90821108.17045  22179428.195                    22179437.289
 11  8 23  1  9  0.0000000  0  8G10G12G05G04G25G29G02G30
 114318529.100 7  89079497.14245  21754071.758                    21754080.352
 109111962.935 8  85022388.192 7  20763316.445                    20763324.355
 107507616.268 8  83772266.225 8  20458002.234                    20458010.496
 123906404.684 7  96550592.59743  23578597.195                    23578607.063
 116963593.887 7  91140514.893 7  22257434.555                    22257445.434
 127999000.200 6  99739531.323 6  24357406.875                    24357417.453
 110203760.409 8  85873181.99246  20971060.383                    20971066.816
 116500878.763 7  90779839.07845  22169350.063                    22169358.578
 11  8 23  1  9 30.0000000  0  8G10G12G05G04G25G29G02G30
 114389716.175 7  89134967.59945  21767618.383                    21767627.535
 109115229.088 8  85024933.229 7  20763937.852                    20763946.184
 107473463.584 8  83745653.780 8  20451503.477                    20451511.938
 123987447.416 7  96613742.72743  23594019.617                    23594029.402
 116903589.925 7  91093758.615 7  22246016.047                    22246026.645
 127917939.911 6  99676367.570 6  24341981.258                    24341991.895
 110229736.050 8  85893422.74546  20976003.391                    20976009.406
 116448456.287 7  90738990.42845  22159374.234                    22159383.531
 11  8 23  1 10  0.0000000  0  8G10G12G05G04G25G29G02G30
 114461362.132 8  89190795.62345  21781251.891                    21781261.047
 109119079.307 8  85027933.380 8  20764670.656                    20764678.168
 107439871.997 8  83719478.553 8  20445110.813                    20445119.469
 124068454.963 7  96676865.48144  23609434.938                    23609444.340
 116844062.375 7  91047373.563 7  22234688.844                    22234699.844
 127836811.443 6  99613150.658 6  24326543.219                    24326552.984
 110255856.660 8  85913776.45846  20980973.797                    20980980.141
 116396574.982 7  90698563.43345  22149501.203                    22149510.480
 11  8 23  1 10 30.0000000  0  8G10G12G05G04G25G29G02G30
 114533464.538 7  89246979.32045  21794972.891                    21794981.359
 109123513.403 8  85031388.495 7  20765514.070                    20765522.660
 107406842.545 8  83693741.356 8  20438825.516                    20438833.641
 124149426.764 7  96739960.34744  23624843.086                    23624853.281
 116785013.307 7  91001361.352 7  22223451.914                    22223462.688
 127755615.383 7  99549881.077 6  24311091.883                    24311102.293
 110282121.412 8  85934242.49146  20985971.898                    20985978.082
 116345236.649 7  90658559.57645  22139731.727                    22139740.496
 11  8 23  1 11  0.0000000  0  8G10G12G05G04G25G29G02G30
 114606020.551 7  89303516.47545  21808779.906                    21808788.250
 109128530.897 8  85035298.220 7  20766469.313                    20766477.414
 107374375.519 8  83668442.405 8  20432647.469                    20432655.648
 124230361.735 7  96803026.52944  23640244.539                    23640254.648
 116726444.530 7  90955723.401 7  22212306.563                    22212316.855
 127674352.551 7  99486559.444 6  24295629.055                    24295638.598
 110308528.950 7  85954819.79646  20990996.953                    20991003.152
 116294442.770 7  90618979.96545  22130066.172                    22130075.273
 11  8 23  1 11 30.0000000  0  8G10G12G05G04G25G29G02G30
 114679027.441 7  89360404.95645  21822672.250                    21822681.113
 109134131.893 8  85039662.614 7  20767535.102                    20767543.195
 107342471.946 8  83643582.524 8  20426576.195                    20426584.855
 124311258.966 7  96866063.28144  23655638.289                    23655649.234
 116668357.792 8  90910461.072 7  22201252.906                    22201263.445
 127593023.314 6  99423186.096 6  24280151.539                    24280161.758
 110335078.007 8  85975507.38246  20996049.164                    20996055.344
 116244194.781 7  90579825.73045  22120504.023                    22120513.324
 11  8 23  1 12  0.0000000  0  8G10G12G05G04G25G29G02G30
 114752482.596 7  89417642.75145  21836650.422                    21836658.902
 109140316.354 8  85044481.661 7  20768711.734                    20768719.754
 107311132.705 8  83619162.373 8  20420612.336                    20420620.855
 124392118.221 7  96929070.41744  23671026.117                    23671036.113
 116610755.426 8  90865576.183 7  22190291.172                    22190302.508
 127511628.995 6  99359762.025 6  24264662.523                    24264673.223
 110361768.227 8  85996304.95946  21001128.102                    21001134.008
 116194494.653 7  90541098.40045  22111046.164                    22111055.766
 11  8 23  1 12 30.0000000  0  8G10G12G05G04G25G29G02G30
 114826383.880 7  89475228.16745  21850713.484                    21850721.984
 109147084.579 8  85049755.579 7  20770000.133                    20770007.816
 107280358.915 8  83595182.832 8  20414756.438                    20414765.141
 124472938.953 7  96992047.60044  23686405.547                    23686415.500
 116553639.803 7  90821070.548 7  22179422.914                    22179433.613
 127430170.478 6  99296287.964 6  24249161.398                    24249171.984
 110388599.035 8  86017212.09446  21006233.758                    21006239.805
 116145344.418 7  90502799.56545  22101692.664                    22101702.367
 11  8 23  1 13  0.0000000  0  8G10G12G05G04G25G29G02G30
 114900728.473 7  89533159.03545  21864860.656                    21864869.375
 109154436.154 8  85055484.073 7  20771399.078                    20771406.918
 107250151.332 8  83571644.487 8  20409008.008                    20409016.063
 124553720.401 7  97054994.11144  23701777.516                    23701788.086
 116497012.619 8  90776945.538 7  22168646.148                    22168657.676
 127348648.802 6  99232764.634 6  24233648.539                    24233658.953
 110415569.474 8  86038228.02446  21011366.117                    21011372.223
 116096745.535 7  90464930.33845  22092445.711                    22092454.660
 11  8 23  1 13 30.0000000  0  8G10G12G05G04G25G29G02G30
 114975513.635 7  89591433.18045  21879091.445                    21879100.449
 109162370.537 8  85061666.697 7  20772908.719                    20772916.828
 107220510.642 8  83548547.876 8  20403367.805                    20403375.926
 124634462.107 6  97117909.68743  23717142.375                    23717152.570
 116440876.052 8  90733202.794 7  22157964.438                    22157975.355
 127267064.460 7  99169192.434 6  24218123.398                    24218133.703
 110442678.690 8  86059352.10346  21016524.820                    21016531.059
 116048699.784 7  90427492.15045  22083302.453                    22083311.684
 11  8 23  1 14  0.0000000  0  8G10G12G05G04G25G29G02G30
 115050737.007 7  89650048.78745  21893406.555                    21893415.336
 109170887.983 8  85068303.655 7  20774529.578                    20774537.781
 107191437.945 8  83525893.861 8  20397835.172                    20397843.582
 124715163.404 6  97180793.74743  23732498.805                    23732509.758
 116385232.061 8  90689843.889 7  22147375.367                    22147386.285
 127185418.367 6  99105572.084 5  24202587.164                    24202596.719
 110469926.146 8  86080583.89946  21021709.898                    21021716.117
 116001208.671 7  90390486.13645  22074265.383                    22074274.559
 11  8 23  1 14 30.0000000  0  8G10G12G05G04G25G29G02G30
 115126394.907 7  89709002.97745  21907803.219                    21907811.992
 109179987.197 8  85075393.942 7  20776261.109                    20776269.023
 107162932.874 8  83503682.151 8  20392410.859                    20392419.133
 124795822.310 6  97243644.78343  23747848.523                    23747858.926
 116330081.388 8  90646869.373 7  22136881.094                    22136891.895
 127103710.293 6  99041903.427 5  24187038.531                    24187048.316
 110497309.000 8  86101921.19446  21026920.859                    21026926.801
 115954272.821 7  90353912.80645  22065333.938                    22065342.672
 11  8 23  1 15  0.0000000  0  8G10G12G05G04G25G29G02G30
 115202485.265 7  89768294.16645  21922283.102                    21922292.297
 109189668.290 8  85082937.649 7  20778103.164                    20778111.227
 107134996.539 8  83481913.608 8  20387094.766                    20387102.941
 124876439.264 6  97306463.08943  23763188.836                    23763199.113
 116275426.855 8  90604281.461 7  22126480.039                    22126491.340
 127021942.272 6  98978188.108 5  24171478.172                    24171488.086
 110524827.757 8  86123364.40146  21032157.328                    21032163.750
 115907894.498 7  90317773.91345  22056507.953                    22056517.148
 11  8 23  1 15 30.0000000  0  8G10G12G05G04G25G29G02G30
 115279005.030 7  89827919.95145  21936844.461                    21936853.223
 109199931.028 8  85090934.584 8  20780056.039                    20780064.188
 107107629.423 8  83460588.618 8  20381886.813                    20381895.383
 124957013.461 6  97369248.13843  23778521.719                    23778532.188
 116221270.077 7  90562081.431 7  22116174.031                    22116185.320
 126940114.362 6  98914426.085 5  24155906.883                    24155915.980
 110552481.131 8  86144912.49946  21037419.391                    21037426.012
 115862075.017 7  90282070.45145  22047788.617                    22047797.988
 11  8 23  1 16  0.0000000  0  8G10G12G05G04G25G29G02G30
 115355951.745 7  89887878.41045  21951487.109                    21951495.379
 109210775.053 8  85099384.477 7  20782119.453                    20782127.828
 107080832.501 8  83439707.927 8  20376787.508                    20376795.816
 125037544.435 6  97431999.49243  23793847.141                    23793856.898
 116167613.147 7  90520270.863 7  22105963.750                    22105974.961
 126858228.205 6  98850618.669 6  24140324.461                    24140334.195
 110580268.758 8  86166565.20246  21042707.742                    21042713.965
 115816816.125 7  90246803.82345  22039176.602                    22039185.242
 11  8 23  1 16 30.0000000  0  8G10G12G05G04G25G29G02G30
 115433322.411 7  89948167.21745  21966209.938                    21966217.977
 109222199.649 8  85108286.756 7  20784293.641                    20784302.199
 107054605.986 8  83419271.716 8  20371797.211                    20371805.586
 125118031.172 6  97494716.39643  23809162.789                    23809172.965
 116114457.540 8  90478850.925 7  22095848.641                    22095860.000
 126776283.920 7  98786765.980 6  24124731.453                    24124741.734
 110608189.029 8  86188321.26346  21048020.578                    21048027.008
 115772118.902 7  90211974.85645  22030671.102                    22030679.695
 11  8 23  1 17  0.0000000  0  8G10G12G05G04G25G29G02G30
 115511114.851 7  90008784.68345  21981013.445                    21981021.570
 109234204.685 8  85117641.318 8  20786578.328                    20786586.098
 107028950.741 8  83399280.651 8  20366914.852                    20366923.047
 125198473.398 6  97557398.61843  23824470.758                    23824480.926
 116061805.416 8  90437823.320 7  22085829.477                    22085839.840
 126694282.764 7  98722868.986 6  24109127.273                    24109137.129
 110636241.750 8  86210180.53846  21053358.813                    21053364.730
 115727985.110 7  90177584.91345  22022272.625                    22022281.500
 11  8 23  1 17 30.0000000  0  8G10G12G05G04G25G29G02G30
 115589326.326 7  90069728.66645  21995896.422                    21995904.879
 109246790.022 8  85127448.078 7  20788973.539                    20788981.379
 107003867.504 8  83379735.296 8  20362141.617                    20362149.988
 125278870.511 6  97620045.66643  23839769.617                    23839779.766
 116009658.559 8  90397189.422 7  22075906.078                    22075917.504
 126612225.730 6  98658928.470 6  24093511.922                    24093522.223
 110664426.076 8  86232142.35746  21058722.297                    21058728.262
 115684416.137 7  90143635.09245  22013981.352                    22013990.621
 11  8 23  1 18  0.0000000  0  8G10G12G05G04G25G29G02G30
 115667953.642 7  90130996.71045  22010858.555                    22010867.254
 109259954.705 8  85137706.277 7  20791478.094                    20791486.234
 106979356.306 8  83360635.695 8  20357477.406                    20357485.574
 125359221.452 6  97682656.73843  23855060.008                    23855069.832
 115958018.448 7  90356950.366 7  22066079.367                    22066090.758
 126530113.591 6  98594945.020 6  24077886.258                    24077897.145
 110692740.630 8  86254205.63446  21064110.086                    21064116.273
 115641413.093 7  90110126.26445  22005798.156                    22005807.078
 11  8 23  1 18 30.0000000  0  8G10G12G05G04G25G29G02G30
 115746993.875 7  90192586.51545  22025899.984                    22025908.504
 109273697.595 8  85148415.029 7  20794093.875                    20794101.625
 106955417.563 8  83341982.157 8  20352921.844                    20352930.129
 125439526.009 6  97745231.70643  23870341.797                    23870351.738
 115906886.741 8  90317107.478 7  22056349.648                    22056360.652
 126447946.713 6  98530918.923 6  24062250.898                    24062260.895
 110721184.365 8  86276369.58246  21069522.781                    21069529.145
 115598977.243 7  90077059.39345  21997722.695                    21997731.660
 11  8 23  1 19  0.0000000  0  8G10G12G05G04G25G29G02G30
 115826444.660 7  90254496.21945  22041018.609                    22041027.621
 109288018.799 8  85159574.409 7  20796818.500                    20796826.863
 106932052.119 8  83323775.347 8  20348475.625                    20348483.844
 125519783.335 7  97807769.88944  23885614.422                    23885624.078
 115856265.363 8  90277662.257 7  22046716.438                    22046727.664
 126365726.425 6  98466851.224 6  24046604.766                    24046614.574
 110749756.766 8  86298633.78946  21074959.992                    21074966.090
 115557110.187 7  90044435.74145  21989756.070                    21989765.352
 11  8 23  1 19 30.0000000  0  8G10G12G05G04G25G29G02G30
 115906303.503 7  90316723.87245  22056215.266                    22056224.453
 109302918.215 8  85171184.350 7  20799654.023                    20799662.207
 106909260.151 8  83306015.404 8  20344138.383                    20344146.672
 125599993.172 7  97870271.08743  23900877.375                    23900887.496
 115806156.340 8  90238616.278 7  22037180.742                    22037191.840
 126283453.861 6  98402742.833 6  24030948.195                    24030958.125
 110778457.276 8  86320997.81546  21080421.547                    21080427.484
 115515813.409 8  90012256.45545  21981897.586                    21981906.199
 11  8 23  1 20  0.0000000  0  8G10G12G05G04G25G29G02G30
 115986567.411 7  90379267.19745  22071488.719                    22071497.875
 109318395.253 8  85183244.372 8  20802599.328                    20802607.707
 106887042.444 8  83288702.936 8  20339910.672                    20339918.418
 125680155.203 7  97932734.99443  23916131.656                    23916142.109
 115756561.456 8  90199970.926 7  22027743.180                    22027754.430
 126201129.911 6  98338594.372 6  24015282.836                    24015292.934
 110807285.265 8  86343461.18446  21085907.320                    21085913.316
 115475088.410 7  89980522.71645  21974147.750                    21974156.656
 11  8 23  1 20 30.0000000  0  8G10G12G05G04G25G29G02G30
 116067233.639 7  90442123.99445  22086839.102                    22086847.746
 109334448.891 8  85195753.703 7  20805654.180                    20805662.254
 106865399.467 8  83271838.308 8  20335792.195                    20335799.961
 125760269.026 6  97995161.39743  23931376.453                    23931385.441
 115707482.493 8  90161727.577 7  22018404.180                    22018415.074
 126118755.721 6  98274406.772 6  23999607.836                    23999618.254
 110836240.108 8  86366023.39546  21091417.352                    21091423.211
 115434936.460 7  89949235.49745  21966507.281                    21966515.738
 11  8 23  1 21  0.0000000  0  8G10G12G05G04G25G29G02G30
 116148299.156 7  90505291.93745  22102265.836                    22102273.855
 109351078.383 8  85208711.756 7  20808818.672                    20808826.973
 106844331.250 8  83255421.546 8  20331782.555                    20331790.488
 125840333.269 6  98057549.14743  23946612.094                    23946622.227
 115658920.623 8  90123887.154 7  22009162.805                    22009173.578
 126036331.759 6  98210180.374 6  23983922.867                    23983932.711
 110865320.091 8  86388683.11746  21096951.125                    21096956.926
 115395358.418 7  89918395.47845  21958975.500                    21958984.336
 11  8 23  1 21 30.0000000  0  8G10G12G05G04G25G29G02G30
 116229760.801 7  90568768.55845  22117767.906                    22117774.949
 109368282.721 8  85222117.722 7  20812092.367                    20812100.539
 106823837.603 8  83239452.512 8  20327882.883                    20327891.160
 125920347.571 6  98119897.98643  23961838.984                    23961848.254
 115610877.175 8  90086450.703 7  22000020.781                    22000031.824
 125953858.782 6  98145915.798 6  23968228.844                    23968238.848
 110894524.227 8  86411439.59946  21102508.375                    21102514.645
 115356355.054 7  89888003.26245  21951553.586                    21951562.477
 11  8 23  1 22  0.0000000  0  8G10G12G05G04G25G29G02G30
 116311615.516 7  90632551.46144  22133343.820                    22133351.590
 109386061.379 8  85235971.221 7  20815475.500                    20815483.680
 106803918.777 8  83223931.376 8  20324092.555                    20324100.457
 126000311.079 6  98182207.26643  23977054.789                    23977064.926
 115563353.681 8  90049419.414 7  21990977.141                    21990988.266
 125871337.921 7  98081613.905 6  23952525.328                    23952535.441
 110923851.490 8  86434292.01346  21108089.125                    21108095.230
 115317927.535 7  89858059.74245  21944241.148                    21944249.680
 11  8 23  1 22 30.0000000  0  8G10G12G05G04G25G29G02G30
 116393861.681 7  90696639.39544  22148994.445                    22149002.914
 109404414.510 8  85250272.352 7  20818968.250                    20818976.211
 106784576.287 8  83208859.347 8  20320411.961                    20320419.836
 126080224.271 6  98244477.36143  23992262.609                    23992271.980
 115516352.977 8  90012795.490 7  21982033.188                    21982043.973
 125788770.849 7  98017275.979 6  23936814.000                    23936823.754
 110953302.611 8  86457240.95946  21113693.070                    21113699.668
 115280078.290 7  89828566.83245  21937038.125                    21937047.531
 11  8 23  1 23  0.0000000  0  8G10G12G05G04G25G29G02G30
 116476496.247 7  90761029.96544  22164719.734                    22164728.105
 109423340.801 8  85265020.111 7  20822570.000                    20822577.777
 106765809.698 8  83194236.063 8  20316840.500                    20316848.535
 126160086.292 6  98306707.52543  24007459.383                    24007469.262
 115469876.102 8  89976579.755 7  21973188.883                    21973199.734
 125706158.058 7  97952902.424 6  23921092.484                    23921102.820
 110982876.086 8  86480285.24546  21119320.875                    21119327.086
 115242807.846 7  89799524.93245  21929946.016                    21929955.293
 11  8 23  1 23 30.0000000  0  8G10G12G05G04G25G29G02G30
 116559515.916 7  90825720.62945  22180517.422                    22180526.004
 109442839.539 8  85280213.919 7  20826280.219                    20826288.313
 106747619.110 8  83180061.615 8  20313379.000                    20313386.711
 126239896.303 6  98368897.19443  24022646.383                    24022656.121
 115423924.215 8  89940773.099 7  21964444.688                    21964455.340
 125623500.182 7  97888493.754 6  23905363.695                    23905373.625
 111012570.696 8  86503423.91646  21124971.289                    21124977.801
 115206117.041 7  89770934.70345  21922964.156                    21922972.824
 11  8 23  1 24  0.0000000  0  8G10G12G05G04G25G29G02G30
 116642918.386 7  90890709.57544  22196388.656                    22196396.824
 109462909.870 8  85295853.136 7  20830099.344                    20830107.242
 106730005.326 8  83166336.614 8  20310027.086                    20310034.688
 126319654.199 6  98431046.24443  24037823.477                    24037834.582
 115378499.429 8  89905377.159 7  21955800.281                    21955811.668
 125540798.902 7  97824051.274 6  23889626.008                    23889635.129
 111042386.269 8  86526656.84746  21130645.594                    21130651.367
 115170007.362 7  89742797.28345  21916092.648                    21916102.234
 11  8 23  1 24 30.0000000  0  8G10G12G05G04G25G29G02G30
 116726700.982 7  90955994.73345  22212331.586                    22212340.289
 109483551.328 8  85311937.376 7  20834027.539                    20834035.496
 106712968.709 8  83153061.368 8  20306785.336                    20306793.242
 126399359.914 6  98493154.66643  24052991.227                    24053001.766
 115333603.559 8  89870393.377 7  21947256.938                    21947268.445
 125458055.257 7  97759575.756 6  23873879.852                    23873889.313
 111072322.461 8  86549983.77646  21136342.195                    21136348.016
 115134480.306 7  89715113.85645  21909332.328                    21909341.043
 11  8 23  1 25  0.0000000  0  8G10G12G05G04G25G29G02G30
 116810860.395 7  91021573.49645  22228346.406                    22228355.188
 109504762.770 8  85328465.765 7  20838063.930                    20838071.758
 106696508.440 8  83140235.210 8  20303652.656                    20303660.660
 126479012.419 6  98555221.57943  24068148.609                    24068159.316
 115289237.648 8  89835822.539 7  21938814.047                    21938825.484
 125375270.052 7  97695067.863 6  23858126.664                    23858135.250
 111102377.862 8  86573403.59846  21142061.141                    21142067.203
 115099536.431 7  89687884.86545  21902682.609                    21902691.613
 11  8 23  1 25 30.0000000  0  8G10G12G05G04G25G29G02G30
 116895392.888 7  91087442.97045  22244433.250                    22244441.328
 109526542.509 8  85345436.972 7  20842208.875                    20842216.617
 106680624.181 8  83127857.897 8  20300630.156                    20300638.219
 126558610.587 6  98617246.17243  24083295.977                    24083305.578
 115245402.318 8  89801665.167 7  21930473.031                    21930483.727
 125292443.593 7  97630527.837 6  23842365.469                    23842374.457
 111132550.526 8  86596914.80846  21147802.695                    21147808.688
 115065176.019 7  89661110.52245  21896144.258                    21896153.230
 11  8 23  1 26  0.0000000  0  8G10G12G05G04G25G29G02G30
 116980297.175 7  91153602.15845  22260589.695                    22260597.965
 109548891.160 8  85362851.489 7  20846461.281                    20846469.578
 106665317.893 8  83115930.937 8  20297717.398                    20297725.707
 126638155.207 6  98679229.05343  24098431.969                    24098442.395
 115202100.573 8  89767923.556 7  21922232.891                    21922243.648
 125209578.149 6  97565957.441 6  23826596.586                    23826606.109
 111162841.886 8  86620518.48246  21153567.063                    21153573.176
 115031401.392 7  89634792.63445  21889716.711                    21889725.855
 11  8 23  1 26 30.0000000  0  8G10G12G05G04G25G29G02G30
 117065569.540 7  91220048.17545  22276816.297                    22276824.855
 109571806.689 8  85380707.740 7  20850822.023                    20850829.813
 106650588.378 8  83104453.430 8  20294914.750                    20294922.527
 126717645.059 6  98741169.20343  24113558.789                    24113568.340
 115159332.868 8  89734598.092 7  21914094.227                    21914105.176
 125126674.001 6  97501356.894 6  23810819.516                    23810829.480
 111193249.820 8  86644212.99046  21159353.555                    21159359.867
 114998212.630 7  89608931.26945  21883401.227                    21883409.891
 11  8 23  1 27  0.0000000  0  8G10G12G05G04G25G29G02G30
 117151207.973 7  91286779.42744  22293112.891                    22293121.293
 109595289.232 8  85399005.807 7  20855290.305                    20855298.559
 106636436.592 8  83093426.091 8  20292221.328                    20292229.484
 126797080.467 6  98803066.96343  24128674.680                    24128685.527
 115117101.486 8  89701690.527 7  21906057.883                    21906069.207
 125043732.875 6  97436727.576 6  23795036.367                    23795047.211
 111223774.811 8  86667998.72046  21165162.195                    21165168.098
 114965611.493 7  89583527.78045  21877197.367                    21877206.402
 11  8 23  1 27 30.0000000  0  8G10G12G05G04G25G29G02G30
 117237209.031 7  91353793.24344  22309478.039                    22309486.863
 109619337.123 8  85417744.415 7  20859866.664                    20859874.656
 106622861.792 8  83082848.346 8  20289638.164                    20289646.582
 126876460.386 6  98864921.45943  24143780.102                    24143790.434
 115075407.297 8  89669201.532 7  21898123.844                    21898134.859
 124960755.653 6  97372070.108 6  23779245.914                    23779256.906
 111254415.242 8  86691874.39746  21170992.672                    21170998.762
 114933598.429 7  89558582.52945  21871105.508                    21871114.930
 11  8 23  1 28  0.0000000  0  8G10G12G05G04G25G29G02G30
 117323569.575 7  91421087.16845  22325912.156                    22325920.383
 109643949.094 8  85436922.552 7  20864550.344                    20864558.504
 106609864.014 8  83072720.233 8  20287164.766                    20287173.031
 126955784.370 6  98926732.34343  24158875.266                    24158885.547
 115034251.502 8  89637132.093 7  21890292.297                    21890302.750
 124877742.994 7  97307385.007 6  23763449.523                    23763459.566
 111285170.133 8  86715839.26246  21176846.023                    21176851.656
 114902174.187 7  89534096.08845  21865126.281                    21865134.672
 11  8 23  1 28 30.0000000  0  8G10G12G05G04G25G29G02G30
 117410286.572 7  91488658.85944  22342413.328                    22342422.625
 109669124.161 8  85456539.480 7  20869340.711                    20869348.379
 106597443.108 8  83063041.617 8  20284801.195                    20284809.297
 127035051.917 6  98988499.23244  24173959.563                    24173969.945
 114993635.359 8  89605483.144 7  21882563.141                    21882574.195
 124794695.899 7  97242673.070 6  23747645.977                    23747656.309
 111316038.716 8  86739892.71046  21182719.414                    21182725.574
 114871339.460 7  89510069.02745  21859258.445                    21859266.871
 11  8 23  1 29  0.0000000  0  8G10G12G05G04G25G29G02G30
 117497357.737 7  91556506.52145  22358982.695                    22358991.586
 109694861.433 8  85476594.482 7  20874238.773                    20874246.328
 106585599.369 8  83053812.760 8  20282547.227                    20282555.551
 127114262.821 6  99050222.02143  24189033.422                    24189043.398
 114953560.503 8  89574255.992 7  21874937.086                    21874947.922
 124711615.737 7  97177935.324 6  23731836.500                    23731846.527
 111347020.666 8  86764034.50546  21188615.031                    21188620.859
 114841095.384 7  89486502.20845  21853503.016                    21853511.598
 11  8 23  1 29 30.0000000  0  8G10G12G05G04G25G29G02G30
 117584780.226 7  91624627.94444  22375618.602                    22375627.387
 109721160.230 8  85497087.035 7  20879243.164                    20879250.984
 106574332.845 8  83045033.671 8  20280403.375                    20280411.531
 127193417.017 6  99111900.62843  24204094.828                    24204105.316
 114914028.573 8  89543451.876 7  21867414.555                    21867425.465
 124628504.005 7  97113172.962 6  23716021.273                    23716030.590
 111378115.803 8  86788264.49246  21194532.609                    21194537.988
 114811443.115 7  89463396.54645  21847860.102                    21847868.914
 11  8 23  1 30  0.0000000  0  9G10G12G26G05G04G25G29G02G30
 117672550.515 7  91693020.37445  22392321.000                    22392329.855
 109748018.884 8  85518015.836 7  20884354.031                    20884362.387
 130535612.99916 101716161.87753  24840114.719                    24840126.164
 106563642.601 8  83036703.632 8  20278368.867                    20278377.355
 127272513.467 6  99173534.24743  24219146.547                    24219156.574
 114875040.057 8  89513071.220 7  21859995.383                    21860006.059
 124545361.089 7  97048386.318 6  23700199.555                    23700208.848
 111409322.432 8  86812581.36446  21200470.961                    21200477.148
 114782382.694 7  89440752.05845  21842330.211                    21842339.055
 11  8 23  1 30 30.0000000  0  9G10G12G26G05G04G25G29G02G30
 117760666.751 7  91761682.36245  22409088.805                    22409097.625
 109775437.033 8  85539380.615 7  20889571.781                    20889579.453
 130444186.819 6 101644920.82143  24822716.391                    24822728.680
 106553529.637 8  83028823.430 8  20276444.664                    20276452.914
 127351552.472 6  99235123.08043  24234186.992                    24234197.656
 114836597.301 8  89483115.827 7  21852679.961                    21852690.422
 124462189.116 7  96983576.998 6  23684372.641                    23684382.398
 111440641.066 8  86836985.49846  21206430.500                    21206436.332
 114753915.821 7  89418570.07745  21836913.328                    21836922.242
 11  8 23  1 31  0.0000000  0  9G10G12G26G05G04G25G29G02G30
 117849125.865 7  91830611.52445  22425922.055                    22425930.754
 109803413.521 8  85561180.460 7  20894894.938                    20894903.449
 130352620.619 6 101573570.62243  24805292.633                    24805304.570
 106543993.816 8  83021392.947 8  20274629.836                    20274637.840
 127430533.862 6  99296667.01343  24249217.227                    24249227.090
 114798701.396 8  89453586.558 7  21845468.508                    21845479.707
 124378988.947 7  96918745.698 6  23668540.273                    23668549.473
 111472070.752 8  86861476.17346  21212411.180                    21212417.301
 114726043.248 7  89396851.20045  21831609.359                    21831618.031
 11  8 23  1 31 30.0000000  0  9G10G12G26G05G04G25G29G02G30
 117937924.531 7  91899805.30945  22442820.070                    22442828.551
 109831946.299 8  85583413.779 7  20900324.617                    20900333.457
 130260916.558 6 101502113.00043  24787841.117                    24787852.848
 106535034.209 8  83014411.460 8  20272925.141                    20272933.070
 127509456.722 6  99358165.36643  24264236.031                    24264245.613
 114761353.025 8  89424483.923 7  21838361.320                    21838372.301
 124295761.427 7  96853893.118 6  23652702.438                    23652712.332
 111503610.035 8  86886052.24746  21218412.977                    21218419.270
 114698765.031 7  89375595.44745  21826418.727                    21826427.313
 11  8 23  1 32  0.0000000  0  9G10G12G26G05G04G25G29G02G30
 118027059.422 7  91969261.08344  22459782.039                    22459790.152
 109861034.332 8  85606079.766 7  20905860.484                    20905868.223
 130169077.714 6 101430550.35543  24770365.117                    24770376.508
 106526650.607 8  83007878.815 8  20271329.594                    20271337.813
 127588320.529 6  99419617.72243  24279243.211                    24279252.660
 114724553.245 8  89395808.775 7  21831358.695                    21831369.641
 124212507.717 7  96789020.099 6  23636859.539                    23636868.961
 111535258.285 8  86910713.22746  21224435.563                    21224441.480
 114672081.762 7  89354803.27845  21821340.781                    21821349.758
 11  8 23  1 32 30.0000000  0  9G10G12G26G05G04G25G29G02G30
 118116527.920 7  92038976.79945  22476806.648                    22476815.566
 109890676.563 8  85629177.599 7  20911501.008                    20911509.023
 130077107.020 6 101358884.99443  24752863.445                    24752874.305
 106518843.034 8  83001795.011 8  20269843.844                    20269851.883
 127667125.069 6  99481023.86043  24294239.625                    24294248.348
 114688303.460 8  89367562.184 7  21824460.141                    21824471.484
 124129228.849 7  96724127.495 6  23621012.477                    23621021.160
 111567015.002 7  86935458.72246  21230478.898                    21230484.363
 114645994.232 7  89334475.35245  21816376.367                    21816385.316
 11  8 23  1 33  0.0000000  0  9G10G12G26G05G04G25G29G02G30
 118206327.593 7  92108950.56944  22493895.539                    22493904.441
 109920872.104 8  85652706.570 7  20917247.242                    20917255.539
 129985007.376 6 101287119.13343  24735337.508                    24735349.043
 106511611.369 8  82996159.975 8  20268467.758                    20268475.734
 127745870.250 6  99542383.78442  24309223.797                    24309232.906
 114652605.085 8  89339745.271 7  21817667.219                    21817678.492
 124045926.263 7  96659216.361 6  23605160.414                    23605169.379
 111598880.066 8  86960288.64946  21236542.367                    21236548.477
 114620503.341 7  89314612.32845  21811525.500                    21811534.195
 11  8 23  1 33 30.0000000  0  9G10G12G26G05G04G25G29G02G30
 118296455.118 7  92179179.83544  22511046.031                    22511054.629
 109951619.026 8  85676665.199 7  20923097.969                    20923106.078
 129892781.485 6 101215254.88543  24717787.391                    24717799.441
 106504954.771 8  82990973.044 8  20267201.023                    20267209.141
 127824555.511 6  99603697.01843  24324196.883                    24324206.996
 114617458.942 7  89312358.676 7  21810978.953                    21810989.957
 123962601.140 7  96594287.710 6  23589304.273                    23589313.594
 111630852.451 7  86985202.21046  21242626.508                    21242632.797
 114595609.473 7  89295214.51545  21806788.508                    21806797.418
 11  8 23  1 34  0.0000000  0  9G10G12G26G05G04G25G29G02G30
 118386907.743 7  92249662.39944  22528258.406                    22528267.328
 109982916.315 8  85701052.689 7  20929053.734                    20929062.070
 129800432.342 6 101143294.63043  24700213.172                    24700225.613
 106498873.417 8  82986234.353 8  20266043.750                    20266051.820
 127903180.457 6  99664963.26643  24339158.500                    24339167.984
 114582866.288 8  89285403.370 7  21804396.078                    21804407.703
 123879254.869 7  96529342.570 6  23573443.531                    23573453.211
 111662931.610 7  87010198.96846  21248730.828                    21248737.469
 114571313.274 8  89276282.42145  21802165.461                    21802173.621
 11  8 23  1 34 30.0000000  0  9G10G12G26G05G04G25G29G02G30
 118477682.538 7  92320396.01844  22545532.617                    22545540.777
 110014762.965 8  85725868.246 7  20935113.891                    20935122.387
 129707962.750 6 101071240.48843  24682617.539                    24682628.488
 106493367.027 8  82981943.684 8  20264995.711                    20265003.711
 127981745.142 6  99726182.59842  24354108.656                    24354119.160
 114548828.278 8  89258880.256 7  21797919.164                    21797929.742
 123795888.483 7  96464381.766 6  23557580.203                    23557588.953
 111695116.733 8  87035278.28946  21254855.383                    21254862.168
 114547615.357 8  89257816.53345  21797655.383                    21797664.145
 11  8 23  1 35  0.0000000  0  9G10G12G26G05G04G25G29G02G30
 118568776.896 7  92391378.63244  22562866.797                    22562875.785
 110047157.327 8  85751110.588 7  20941277.961                    20941286.660
 129615375.491 6 100999094.66343  24664998.453                    24665010.230
 106488435.377 8  82978100.867 8  20264057.508                    20264065.457
 128060249.162 6  99787354.56342  24369046.953                    24369058.035
 114515346.033 8  89232790.217 7  21791547.836                    21791558.891
 123712503.409 7  96399406.398 6  23541712.633                    23541720.984
 111727407.315 8  87060439.79846  21261000.352                    21261006.328
 114524516.319 8  89239817.29245  21793259.594                    21793269.168
 11  8 23  1 35 30.0000000  0  9G10G12G26G05G04G25G29G02G30
 118660187.453 7  92462607.61244  22580261.766                    22580270.551
 110080097.888 7  85776778.541 7  20947546.617                    20947554.703
 129522673.398 6 100926859.36343  24647358.164                    24647369.387
 106484077.665 8  82974705.277 8  20263228.141                    20263236.441
 128138692.122 6  99848478.91843  24383975.094                    24383985.000
 114482420.309 8  89207133.837 7  21785282.102                    21785293.129
 123629100.548 7  96334417.207 6  23525841.008                    23525849.992
 111759802.606 8  87085682.88746  21267164.867                    21267170.711
 114502016.363 8  89222284.86445  21788978.031                    21788986.820
 11  8 23  1 36  0.0000000  0  9G10G12G26G05G04G25G29G02G30
 118751911.466 7  92534080.85344  22597716.828                    22597725.004
 110113583.502 8  85802871.207 7  20953918.875                    20953927.211
 129429859.302 6 100854536.80842  24629695.500                    24629707.059
 106480293.268 8  82971756.425 8  20262507.602                    20262516.137
 128217073.534 6  99909555.31643  24398891.352                    24398900.742
 114450052.305 8  89181912.029 7  21779122.531                    21779134.215
 123545681.414 6  96269415.325 6  23509966.750                    23509975.539
 111792302.227 7  87111007.28846  21273349.570                    21273355.191
 114480116.057 8  89205219.70145  21784810.727                    21784819.219
 11  8 23  1 36 30.0000000  0  9G10G12G26G05G04G25G29G02G30
 118843946.480 7  92605796.45644  22615230.148                    22615238.563
 110147612.970 8  85829387.671 7  20960394.438                    20960402.453
 129336936.376 6 100782129.39143  24612012.688                    24612024.828
 106477082.647 8  82969254.669 8  20261896.852                    20261905.082
 128295393.474 6  99970583.86243  24413794.422                    24413804.379
 114418243.302 8  89157125.804 7  21773069.672                    21773080.281
 123462247.506 7  96204401.966 6  23494089.750                    23494098.980
 111824905.656 8  87136412.57046  21279553.688                    21279559.734
 114458816.195 8  89188622.40445  21780757.516                    21780766.328
 11  8 23  1 37  0.0000000  0  9G10G12G26G05G04G25G29G02G30
 118936289.095 6  92677751.72244  22632802.180                    22632810.633
 110182184.620 8  85856326.611 7  20966973.297                    20966981.484
 129243907.737 6 100709639.64742  24594309.914                    24594321.824
 106474444.679 8  82967199.118 8  20261395.000                    20261403.242
 128373651.515 6 100031564.12943  24428685.805                    24428696.223
 114386993.958 8  89132775.689 7  21767123.172                    21767133.855
 123378799.809 7  96139377.844 6  23478209.703                    23478219.262
 111857611.981 8  87161898.03746  21285777.641                    21285783.391
 114438116.845 8  89172493.04345  21776818.797                    21776827.191
 11  8 23  1 37 30.0000000  0  9G10G12G26G05G04G25G29G02G30
 119028936.456 6  92749944.45144  22650432.742                    22650440.984
 110217297.485 8  85883687.265 7  20973654.961                    20973663.070
 129150775.989 6 100637069.57442  24576587.219                    24576599.488
 106472379.221 8  82965589.692 8  20261001.797                    20261009.762
 128451847.773 6 100092496.27643  24443565.984                    24443576.352
 114356305.472 7  89108862.593 7  21761283.539                    21761294.609
 123295339.812 6  96074344.165 6  23462327.508                    23462336.469
 111890421.132 7  87187463.61846  21292020.828                    21292026.895
 114418018.740 8  89156832.18245  21772994.008                    21773002.914
 11  8 23  1 38  0.0000000  0  9G10G12G26G05G04G25G29G02G30
 119121885.876 6  92822372.57844  22668120.297                    22668128.828
 110252949.191 8  85911467.804 7  20980439.063                    20980447.465
 129057544.071 6 100564421.43042  24558846.867                    24558857.629
 106470885.468 8  82964425.741 8  20260717.594                    20260725.500
 128529981.481 6 100153379.67743  24458434.484                    24458445.387
 114326178.506 8  89085387.041 7  21755550.313                    21755561.145
 123211868.527 7  96009301.675 6  23446444.000                    23446453.105
 111923332.101 7  87213108.54646  21298283.438                    21298289.789
 114398521.816 8  89141639.78045  21769284.055                    21769292.918
 11  8 23  1 38 30.0000000  0  9G10G12G26G05G04G25G29G02G30
 119215134.314 7  92895033.69644  22685864.656                    22685873.754
 110289138.720 8  85939667.420 7  20987326.094                    20987334.430
 128964215.231 6 100491697.82843  24541085.969                    24541097.320
 106469963.407 8  82963707.273 8  20260542.227                    20260550.059
 128608052.675 6 100214214.34843  24473290.891                    24473302.074
 114296614.214 8  89062349.941 7  21749924.328                    21749935.281
 123128387.429 7  95944251.542 6  23430557.211                    23430567.348
 111956344.671 8  87238832.62746  21304565.563                    21304572.004
 114379626.774 8  89126916.36545  21765688.313                    21765697.234
 11  8 23  1 39  0.0000000  0  9G10G12G26G05G04G25G29G02G30
 119308678.787 6  92967925.49044  22703665.664                    22703674.801
 110325864.068 8  85968284.556 7  20994314.406                    20994322.441
 128870792.021 6 100418900.62843  24523307.672                    24523319.246
 106469611.640 8  82963433.184 8  20260475.094                    20260483.168
 128686060.928 6 100274999.96643  24488135.469                    24488146.531
 114267613.091 7  89039751.667 7  21744405.836                    21744416.977
 123044897.635 7  95879194.668 6  23414670.297                    23414679.887
 111989457.686 7  87264634.98946  21310866.547                    21310872.707
 114361333.462 8  89112661.84945  21762207.383                    21762216.176
 11  8 23  1 39 30.0000000  0  9G10G12G26G05G04G25G29G02G30
 119402516.667 6  93041045.92244  22721522.578                    22721531.457
 110363124.451 8  85997318.605 7  21001405.328                    21001412.953
 128777277.978 6 100346032.62743  24505512.695                    24505524.207
 106469830.509 8  82963603.748 8  20260516.891                    20260524.984
 128764006.152 6 100335736.48443  24502967.266                    24502978.656
 114239176.604 7  89017593.381 7  21738994.336                    21739005.711
 122961400.869 7  95814132.340 6  23398781.453                    23398791.070
 112022671.405 7  87290515.80846  21317186.969                    21317193.039
 114343642.836 8  89098876.94745  21758840.680                    21758849.754
 11  8 23  1 40  0.0000000  0  9G10G12G26G05G04G25G29G02G30
 119496644.591 6  93114392.36844  22739434.688                    22739443.262
 110400917.935 8  86026768.067 7  21008596.883                    21008604.645
 128683675.592 6 100273095.79343  24487701.633                    24487713.063
 106470618.867 8  82964218.067 8  20260666.953                    20260674.684
 128841888.266 6 100396423.77043  24517788.852                    24517799.008
 114211305.144 8  88995875.362 7  21733690.484                    21733701.254
 122877898.115 7  95749065.328 6  23382891.742                    23382901.473
 112055984.745 7  87316474.26046  21323526.570                    21323532.641
 114326554.638 8  89085561.46545  21755589.141                    21755597.652
 11  8 23  1 40 30.0000000  0  9G10G12G26G05G04G25G29G02G30
 119591059.986 7  93187962.79644  22757401.586                    22757409.707
 110439243.119 8  86056631.840 7  21015890.242                    21015897.801
 128589987.811 6 100200092.42643  24469872.578                    24469884.137
 106471976.318 8  82965275.837 8  20260925.125                    20260932.957
 128919706.792 6 100457061.53543  24532597.375                    24532607.613
 114183999.674 8  88974598.382 7  21728494.586                    21728505.496
 122794390.976 7  95683994.883 6  23367000.375                    23367009.977
 112089397.298 7  87342510.02646  21329884.883                    21329890.895
 114310069.293 8  89072715.75245  21752451.961                    21752460.496
 11  8 23  1 41  0.0000000  0  9G10G12G26G05G04G25G29G02G30
 119685759.598 7  93261754.70444  22775422.219                    22775430.727
 110478098.026 8  86086908.380 7  21023283.633                    21023291.746
 128496217.861 6 100127024.99543  24452029.320                    24452040.051
 106473902.186 8  82966776.533 8  20261291.758                    20261299.750
 128997461.799 6 100517649.83943  24547393.906                    24547403.582
 114157260.939 7  88953763.026 7  21723406.477                    21723417.020
 122710880.669 6  95618921.970 6  23351108.789                    23351118.406
 112122908.643 8  87368622.76346  21336261.414                    21336267.809
 114294186.986 8  89060339.94245  21749429.773                    21749438.020
 11  8 23  1 41 30.0000000  0  9G10G12G26G05G04G25G29G02G30
 119780741.074 7  93335766.23044  22793495.953                    22793504.660
 110517481.386 8  86117596.706 7  21030778.273                    21030786.258
 128402368.911 6 100053896.03543  24434169.938                    24434180.957
 106476395.919 8  82968719.720 8  20261766.125                    20261773.992
 129075152.872 6 100578188.34143  24562177.898                    24562187.309
 114131089.770 8  88933369.899 7  21718426.016                    21718436.688
 122627368.570 6  95553847.658 6  23335217.078                    23335226.648
 112156518.148 8  87394811.98746  21342657.281                    21342663.359
 114278907.879 8  89048434.14045  21746522.164                    21746530.992
 11  8 23  1 42  0.0000000  0  9G10G12G26G05G04G25G29G02G30
 119876001.139 7  93409994.84744  22811624.133                    22811632.063
 110557391.326 8  86148695.352 7  21038372.508                    21038380.867
 128308443.739 7  99980707.69643  24416296.797                    24416307.914
 106479456.451 8  82971104.578 8  20262348.570                    20262356.289
 129152779.590 6 100638676.62843  24576950.016                    24576959.844
 114105486.671 8  88913419.449 7  21713554.148                    21713564.641
 122543856.214 6  95488773.137 7  23319324.578                    23319335.066
 112190225.021 7  87421077.09946  21349071.273                    21349077.445
 114264231.846 8  89036998.26145  21743729.383                    21743738.086
 11  8 23  1 42 30.0000000  0  9G10G12G26G05G04G25G29G02G30
 119971536.738 6  93484438.19144  22829803.141                    22829811.852
 110597826.131 8  86180202.983 7  21046067.422                    21046075.438
 128214445.593 6  99907462.49443  24398409.344                    24398420.824
 106483083.244 8  82973930.674 8  20263038.773                    20263046.277
 129230342.273 6 100699115.08643  24591709.883                    24591720.242
 114080452.533 8  88893912.342 7  21708789.844                    21708800.738
 122460344.622 6  95423699.197 6  23303432.703                    23303443.016
 112224028.858 8  87447417.75046  21355504.125                    21355510.188
 114250159.296 8  89026032.64745  21741051.336                    21741059.832
 11  8 23  1 43  0.0000000  0  9G10G12G26G05G04G25G29G02G30
 120067345.484 7  93559094.35044  22848035.031                    22848043.426
 110638783.930 8  86212118.144 7  21053861.055                    21053869.496
 128120377.412 6  99834162.68643  24380509.234                    24380519.992
 106487275.610 8  82977197.481 8  20263836.102                    20263844.406
 129307840.625 6 100759503.34543  24606456.688                    24606468.066
 114055988.117 8  88874849.167 7  21704134.930                    21704145.340
 122376835.600 6  95358627.244 6  23287541.508                    23287551.145
 112257929.443 7  87473833.80346  21361954.727                    21361961.590
 114236690.334 8  89015537.34545  21738488.602                    21738497.418
 11  8 23  1 43 30.0000000  0  9G10G12G26G05G04G25G29G02G30
 120163424.539 7  93633961.14744  22866318.875                    22866327.098
 110680263.562 8  86244439.926 7  21061754.852                    21061762.563
 128026242.397 6  99760810.85743  24362595.320                    24362606.133
 106492032.898 8  82980904.486 8  20264741.555                    20264749.730
 129385274.500 6 100819841.31742  24621191.547                    24621202.227
 114032094.119 8  88856230.489 7  21699588.156                    21699598.191
 122293330.287 6  95293558.153 6  23271651.320                    23271661.293
 112291926.550 7  87500325.05146  21368424.461                    21368430.609
 114223825.020 8  89005512.41745  21736040.430                    21736049.250
 11  8 23  1 44  0.0000000  0  9G10G12G26G05G04G25G29G02G30
 120259770.607 7  93709036.00044  22884652.867                    22884661.105
 110722262.766 8  86277166.570 7  21069747.078                    21069754.977
 127932043.676 6  99687409.37343  24344669.742                    24344680.238
 106497354.176 8  82985050.962 8  20265754.266                    20265762.258
 129462643.646 6 100880128.96442  24635914.523                    24635924.926
 114008771.111 8  88838056.733 7  21695149.633                    21695160.137
 122209830.378 7  95228493.268 6  23255762.133                    23255771.535
 112326019.517 8  87526891.02146  21374912.234                    21374918.152
 114211563.350 8  88995957.87245  21733706.289                    21733715.613
 11  8 23  1 44 30.0000000  0  9G10G12G26G05G04G25G29G02G30
 120356380.802 6  93784316.68644  22903037.172                    22903045.480
 110764779.901 8  86310296.801 7  21077837.766                    21077845.391
 127837783.945 6  99613960.32143  24326732.820                    24326743.484
 106503238.559 8  82989636.221 8  20266874.008                    20266882.059
 129539947.826 6 100940365.90942  24650625.438                    24650635.707
 113986019.635 7  88820328.315 7  21690820.195                    21690830.766
 122126337.358 7  95163433.762 6  23239874.203                    23239883.281
 112360207.499 7  87553531.02446  21381417.867                    21381423.934
 114199905.243 8  88986873.62045  21731488.258                    21731497.184
 11  8 23  1 45  0.0000000  0  9G10G12G26G05G04G25G29G02G30
 120453252.175 7  93859800.86644  22921470.789                    22921479.406
 110807813.144 8  86343829.195 7  21086027.102                    21086034.555
 127743466.421 6  99540466.33943  24308784.961                    24308795.391
 106509685.045 8  82994659.498 8  20268100.805                    20268108.633
 129617186.907 6 101000552.19942  24665323.156                    24665334.535
 113963840.207 8  88803045.663 7  21686599.570                    21686610.211
 122042852.379 7  95098380.491 6  23223987.695                    23223996.961
 112394489.992 7  87580244.65846  21387942.023                    21387947.781
 114188850.596 8  88978259.61045  21729384.773                    21729393.559
 11  8 23  1 45 30.0000000  0  8G10G12G26G05G25G29G02G30
 120550382.328 6  93935486.68544  22939954.781                    22939962.824
 110851361.206 8  86377762.747 7  21094313.313                    21094321.371
 127649094.710 6  99466930.09243  24290826.797                    24290836.809
 106516693.346 8  83000120.542 8  20269434.297                    20269441.902
 113942233.756 8  88786209.488 7  21682487.820                    21682498.887
 121959377.143 7  95033334.829 6  23208102.289                    23208111.855
 112428867.007 8  87607031.95646  21394483.516                    21394488.938
 114178399.725 8  88970116.09645  21727395.500                    21727404.758
 11  8 23  1 46  0.0000000  0  8G10G12G26G05G25G29G02G30
 120647768.126 6  94011371.73944  22958486.531                    22958495.227
 110895422.234 8  86412096.001 7  21102697.719                    21102706.211
 127554671.678 6  99393353.81743  24272857.781                    24272868.883
 106524262.425 8  83006018.545 8  20270874.484                    20270882.418
 113921200.649 8  88769820.052 7  21678485.273                    21678496.508
 121875912.866 7  94968297.754 6  23192219.773                    23192229.418
 112463337.530 8  87633892.10446  21401042.836                    21401048.289
 114168552.367 8  88962442.82945  21725521.984                    21725530.934
 11  8 23  1 46 30.0000000  0  8G10G12G26G05G25G29G02G30
 120745406.813 7  94087453.84244  22977066.320                    22977075.555
 110939993.478 8  86446826.841 7  21111179.758                    21111187.367
 127460200.064 6  99319739.68543  24254880.313                    24254890.766
 106532391.155 8  83012352.658 8  20272421.680                    20272429.168
 113900741.300 8  88753877.713 7  21674592.031                    21674603.012
 121792461.313 7  94903270.580 6  23176339.320                    23176349.121
 112497901.969 8  87660825.43946  21407620.555                    21407626.191
 114159308.325 8  88955239.68745  21723763.008                    21723771.863
 11  8 23  1 47  0.0000000  0  8G10G12G26G05G25G29G02G30
 120843295.379 6  94163730.65944  22995693.102                    22995702.465
 110985073.675 8  86481954.251 7  21119758.195                    21119766.293
 127365683.387 6  99246090.47043  24236894.094                    24236905.531
 106541078.800 8  83019122.279 8  20274074.734                    20274082.156
 113880856.164 8  88738382.823 7  21670808.297                    21670819.223
 121709023.796 7  94838254.354 6  23160462.000                    23160471.000
 112532559.410 8  87687831.25146  21414215.664                    21414221.027
 114150667.535 8  88948506.61445  21722118.906                    21722127.395
 11  8 23  1 47 30.0000000  0  8G10G12G26G05G25G29G02G30
 120941430.566 6  94240199.63444  23014368.086                    23014376.938
 111030660.362 8  86517476.337 7  21128432.914                    21128441.035
 127271124.689 6  99172408.53543  24218900.203                    24218911.332
 106550323.845 8  83026326.243 8  20275833.727                    20275841.465
 113861545.637 8  88723335.680 7  21667133.406                    21667144.352
 121625601.665 7  94773250.112 6  23144587.219                    23144596.309
 112567309.239 8  87714909.02746  21420827.742                    21420834.051
 114142629.550 8  88942243.27745  21720588.641                    21720597.438
 11  8 23  1 48  0.0000000  0  8G10G12G26G05G25G29G02G30
 121039809.919 6  94316858.86344  23033089.156                    23033097.523
 111076752.723 8  86553392.455 7  21137204.211                    21137211.605
 127176527.179 6  99098696.32243  24200898.305                    24200909.637
 106560126.013 8  83033964.323 8  20277699.086                    20277707.063
 113842810.481 8  88708736.878 7  21663568.109                    21663579.199
 121542196.933 7  94708259.451 6  23128715.500                    23128724.887
 112602151.355 8  87742058.72546  21427458.578                    21427464.355
 114135194.687 8  88936449.88545  21719173.992                    21719183.094
 11  8 23  1 48 30.0000000  0  8G10G12G26G05G25G29G02G30
 121138430.524 6  94393706.09644  23051855.758                    23051864.230
 111123348.156 8  86589700.594 7  21146071.016                    21146078.953
 127081894.216 6  99024956.48143  24182890.672                    24182900.992
 106570484.336 8  83042035.775 8  20279669.969                    20279677.930
 113824651.091 8  88694586.715 7  21660112.656                    21660123.527
 121458810.907 7  94643283.384 6  23112847.508                    23112856.996
 112637085.525 8  87769280.16546  21434106.227                    21434112.070
 114128362.620 7  88931126.20345  21717874.617                    21717883.367
 11  8 23  1 49  0.0000000  0  8G10G12G26G05G25G29G02G30
 121237289.248 7  94470738.87844  23070668.680                    23070675.984
 111170444.340 8  86626398.906 7  21155032.531                    21155041.273
 126987228.407 6  98951191.01143  24164876.328                    24164886.789
 106581396.988 8  83050539.160 8  20281747.164                    20281754.621
 113807067.359 8  88680885.106 7  21656766.750                    21656777.746
 121375444.739 7  94578322.770 6  23096983.727                    23096992.652
 112672110.425 8  87796572.31846  21440770.828                    21440777.316
 114122132.646 8  88926271.67445  21716688.461                    21716697.398
 11  8 23  1 49 30.0000000  0  8G10G12G26G05G25G29G02G30
 121336383.393 6  94547955.12943  23089525.391                    23089533.004
 111218040.056 8  86663486.464 7  21164090.195                    21164098.605
 126892533.371 7  98877402.81243  24146856.578                    24146866.770
 106592863.540 8  83059474.171 8  20283928.898                    20283936.504
 113790059.979 8  88667632.611 7  21653530.125                    21653540.762
 121292100.241 7  94513379.035 6  23081123.680                    23081132.719
 112707226.255 8  87823935.32046  21447453.477                    21447459.500
 114116504.714 8  88921886.29545  21715617.688                    21715626.766
 11  8 23  1 50  0.0000000  0  8G10G12G26G05G25G29G02G30
 121435710.206 6  94625352.63744  23108426.547                    23108434.508
 111266132.800 8  86700961.336 7  21173241.633                    21173249.996
 126797812.147 7  98803594.17643  24128831.813                    24128841.660
 106604882.925 8  83068839.946 8  20286216.133                    20286223.930
 113773629.146 8  88654829.364 7  21650403.305                    21650414.301
 121208779.075 7  94448453.490 6  23065268.328                    23065277.238
 112742432.446 8  87851368.70946  21454152.898                    21454158.855
 114111478.563 8  88917969.79645  21714661.352                    21714670.781
 11  8 23  1 50 30.0000000  0  8G10G12G26G05G25G29G02G30
 121535266.839 7  94702929.24344  23127371.648                    23127379.414
 111314720.392 8  86738821.791 7  21182487.992                    21182496.211
 126703068.112 6  98729767.74643  24110801.938                    24110812.836
 106617454.048 8  83078635.651 8  20288608.305                    20288616.078
 113757775.317 8  88642475.749 7  21647386.641                    21647397.043
 121125482.530 7  94383547.152 6  23049417.188                    23049426.344
 112777729.036 8  87878872.54646  21460869.500                    21460875.621
 114107053.804 8  88914521.94345  21713819.273                    21713828.121
 11  8 23  1 51  0.0000000  0  8G10G12G26G05G25G29G02G30
 121635050.290 6  94780682.57444  23146359.625                    23146367.426
 111363801.280 8  86777066.634 7  21191827.500                    21191835.695
 126608304.259 6  98655925.90543  24092768.984                    24092779.910
 106630575.302 8  83088860.032 8  20291105.203                    20291113.141
 113742498.693 8  88630571.883 7  21644479.500                    21644490.449
 121042212.209 7  94318661.233 6  23033571.297                    23033580.426
 112813115.342 8  87906446.29846  21467603.500                    21467609.473
 114103230.173 8  88911542.49046  21713091.836                    21713100.664
 11  8 23  1 51 30.0000000  0  8G10G12G26G05G25G29G02G30
 121735057.817 6  94858610.50443  23165390.094                    23165398.508
 111413373.161 8  86815694.074 7  21201260.875                    21201268.988
 126513523.861 6  98582071.17443  24074732.883                    24074743.797
 106644246.052 8  83099512.583 8  20293706.469                    20293714.660
 113727799.566 8  88619117.998 7  21641682.398                    21641693.219
 120958969.943 7  94253797.177 6  23017730.836                    23017739.813
 112848590.951 8  87934089.63946  21474354.156                    21474360.070
 114100007.174 7  88909031.06246  21712478.617                    21712487.293
 11  8 23  1 52  0.0000000  0  8G10G12G26G05G25G29G02G30
 121835286.516 7  94936710.76644  23184463.438                    23184471.582
 111463434.587 8  86854702.988 7  21210787.250                    21210795.270
 126418730.282 6  98508206.14343  24056694.391                    24056705.613
 106658465.190 8  83110592.453 8  20296412.414                    20296420.723
 113713678.302 8  88608114.412 7  21638995.266                    21639006.219
 120875757.324 7  94188956.246 6  23001896.031                    23001905.617
 112884155.828 8  87961802.53846  21481122.219                    21481128.117
 114097384.633 8  88906987.51446  21711979.305                    21711988.648
 11  8 23  1 52 30.0000000  0  8G10G12G26G05G25G29G02G30
 121935733.702 7  95014981.33344  23203577.695                    23203585.801
 111513982.688 8  86894091.113 7  21220406.406                    21220414.492
 126323926.834 6  98434333.44843  24038653.844                    24038664.355
 106673231.496 8  83122098.687 8  20299222.359                    20299230.246
 113700134.888 8  88597561.074 7  21636418.070                    21636428.699
 120792575.680 7  94124139.453 7  22986067.344                    22986076.230
 112919809.158 8  87989584.34546  21487906.633                    21487913.184
 114095361.891 7  88905411.33745  21711594.438                    21711602.961
 11  8 23  1 53  0.0000000  0  8G10G12G26G05G25G29G02G30
 122036396.452 7  95093419.85544  23222733.516                    23222741.254
 111565015.469 8  86933856.913 7  21230117.336                    21230125.648
 126229116.689 6  98360455.54743  24020611.875                    24020623.227
 106688543.777 7  83134030.355 8  20302136.266                    20302143.945
 113687169.510 8  88587458.184 7  21633950.977                    21633961.281
 120709426.866 7  94059348.242 7  22970244.484                    22970253.375
 112955550.848 8  88017435.01646  21494707.969                    21494714.008
 114093938.383 8  88904302.11045  21711323.508                    21711332.621
 11  8 23  1 53 30.0000000  0  8G10G12G26G05G25G29G02G30
 122137271.673 7  95172023.92943  23241929.789                    23241937.004
 111616531.160 8  86973999.022 7  21239920.422                    21239928.566
 126134303.299 6  98286575.07843  24002569.930                    24002579.863
 106704400.845 8  83146386.525 8  20305153.453                    20305161.461
 113674782.608 8  88577806.033 7  21631594.023                    21631604.918
 120626312.540 7  93994583.925 7  22954427.969                    22954437.305
 112991380.584 8  88045354.29846  21501526.023                    21501532.273
 114093113.915 8  88903659.64345  21711166.492                    21711175.574
 11  8 23  1 54  0.0000000  0  8G10G12G26G05G25G29G02G30
 122238356.825 7  95250791.62043  23261164.813                    23261172.660
 111668527.582 8  87014515.702 7  21249815.008                    21249823.012
 126039489.966 6  98212694.66543  23984526.898                    23984537.043
 106720801.603 8  83159166.362 8  20308274.680                    20308282.324
 113662974.282 8  88568604.705 7  21629346.625                    21629357.012
 120543233.963 7  93929847.443 7  22938618.758                    22938628.539
 113027298.540 8  88073342.32545  21508360.945                    21508366.813
 114092888.036 7  88903483.61145  21711123.563                    21711132.090
 11  8 23  1 54 30.0000000  0  8G10G12G26G05G25G29G02G30
 122339649.149 7  95329720.74943  23280439.758                    23280448.016
 111721002.034 8  87055404.890 7  21259800.711                    21259808.457
 125944679.491 6  98138816.46843  23966485.234                    23966495.375
 106737744.317 8  83172368.494 8  20311498.547                    20311506.605
 113651744.226 8  88559854.025 7  21627209.594                    21627220.031
 120460193.040 7  93865140.305 7  22922816.516                    22922826.031
 113063303.744 8  88101398.34146  21515212.445                    21515218.426
 114093259.655 8  88903773.18545  21711194.141                    21711202.910
 11  8 23  1 55  0.0000000  0  8G10G12G26G05G25G29G02G30
 122441145.665 7  95408808.99043  23299753.781                    23299762.070
 111773952.820 8  87096665.247 7  21269876.875                    21269884.555
 125849875.574 6  98064943.39443  23948444.125                    23948454.129
 106755228.117 8  83185992.264 8  20314825.617                    20314833.418
 113641092.851 8  88551554.235 7  21625182.773                    21625192.949
 120377191.496 7  93800463.829 7  22907022.148                    22907031.418
 113099396.101 8  88129522.27446  21522080.711                    21522086.715
 114094228.597 7  88904528.18445  21711378.570                    21711387.031
 11  8 23  1 55 30.0000000  0  8G10G12G26G05G25G29G02G30
 122542843.494 6  95488054.00143  23319106.586                    23319115.027
 111827377.661 8  87138294.993 7  21280043.281                    21280051.965
 125755081.506 6  97991077.98843  23930405.227                    23930415.762
 106773251.567 8  83200036.527 8  20318255.203                    20318263.441
 113631020.160 8  88543705.374 7  21623265.703                    21623276.379
 120294230.838 7  93735819.223 6  22891234.969                    22891243.988
 113135575.359 8  88157713.92046  21528965.180                    21528971.367
 114095794.246 7  88905748.14745  21711677.047                    21711685.734
 11  8 23  1 56  0.0000000  0  8G10G12G26G05G25G29G02G30
 122644739.876 7  95567453.81144  23338496.281                    23338505.492
 111881274.592 8  87180292.596 7  21290299.633                    21290308.098
 125660300.685 6  97917222.87243  23912369.148                    23912379.207
 106791813.559 8  83214500.436 8  20321787.742                    20321795.590
 113621526.194 8  88536307.476 7  21621459.516                    21621469.988
 120211312.955 7  93671207.960 6  22875456.086                    22875465.316
 113171841.165 8  88185973.01146  21535866.836                    21535872.715
 114097955.890 7  88907432.54445  21712087.922                    21712096.398
 11  8 23  1 56 30.0000000  0  8G10G12G26G05G25G29G02G30
 122746831.804 7  95647005.92644  23357924.625                    23357933.359
 111935641.101 8  87222656.112 7  21300645.281                    21300653.570
 125565536.176 6  97843380.48343  23894336.383                    23894347.055
 106810912.267 8  83229382.561 8  20325421.992                    20325429.813
 113612610.836 8  88529360.439 7  21619762.781                    21619773.695
 120128439.295 7  93606631.141 6  22859685.641                    22859694.801
 113208193.050 8  88214299.16546  21542784.422                    21542790.145
 114100712.811 8  88909580.78445  21712612.875                    21712621.547
 11  8 23  1 57  0.0000000  0  8G10G12G26G05G25G29G02G30
 122849116.604 7  95726708.40244  23377388.484                    23377397.477
 111990474.867 8  87265383.711 7  21311079.547                    21311088.090
 125470791.228 6  97769553.38843  23876306.977                    23876316.754
 106830546.320 8  83244681.849 8  20329158.320                    20329166.141
 113604273.885 8  88522864.111 7  21618176.617                    21618187.242
 120045611.373 7  93542089.937 6  22843923.891                    22843933.219
 113244630.582 8  88242692.05846  21549718.000                    21549724.133
 114104064.110 7  88912192.17145  21713250.609                    21713259.148
 11  8 23  1 57 30.0000000  0  8G10G12G26G05G25G29G02G30
 122951591.816 7  95806559.24444  23396888.602                    23396898.094
 112045773.571 8  87308473.615 7  21321603.008                    21321610.992
 125376069.367 6  97695744.22743  23858282.094                    23858292.121
 106850714.730 8  83260397.507 8  20332995.883                    20333003.945
 113596515.419 8  88516818.561 7  21616699.836                    21616710.648
 119962831.029 7  93477585.846 6  22828171.336                    22828180.621
 113281153.751 8  88271151.68946  21556668.344                    21556674.039
 114108009.228 8  88915266.29545  21714000.961                    21714009.734
 11  8 23  1 58  0.0000000  0  8G10G12G26G05G25G29G02G30
 123054254.737 7  95886556.34844  23416424.758                    23416434.246
 112101534.931 8  87351924.027 7  21332213.883                    21332221.742
 125281374.048 6  97621955.78543  23840261.305                    23840272.191
 106871416.168 8  83276528.513 8  20336935.227                    20336943.086
 113589335.527 8  88511223.844 7  21615333.484                    21615344.645
 119880099.993 7  93413120.167 6  22812428.055                    22812436.664
 113317762.365 7  88299677.90845  21563634.727                    21563640.090
 114112547.583 7  88918802.67645  21714864.930                    21714873.535
 11  8 23  1 58 30.0000000  0  8G10G12G26G05G25G29G02G30
 123157102.204 7  95966697.23844  23435996.195                    23436005.426
 112157756.792 8  87395733.251 7  21342912.031                    21342920.215
 125186708.666 6  97548190.63243  23822246.891                    23822257.688
 106892649.065 8  83293073.641 8  20340975.672                    20340983.594
 113582733.973 8  88506079.788 7  21614077.313                    21614088.230
 119797420.200 7  93348694.411 6  22796693.977                    22796703.238
 113354456.139 8  88328270.47645  21570616.844                    21570622.684
 114117678.245 7  88922800.60045  21715841.219                    21715850.660
 11  8 23  1 59  0.0000000  0  8G10G12G26G05G25G29G02G30
 123260131.442 6  96046979.79243  23455601.117                    23455610.332
 112214437.028 8  87439899.678 7  21353698.250                    21353706.383
 125092076.535 6  97474451.40544  23804239.523                    23804249.688
 106914411.997 8  83310031.780 8  20345117.320                    20345124.777
 113576710.736 8  88501386.377 7  21612931.148                    21612941.996
 119714793.239 7  93284309.829 7  22780971.430                    22780979.977
 113391234.702 8  88356929.10546  21577615.781                    21577622.027
 114123400.611 7  88927259.57745  21716929.898                    21716939.273
 11  8 23  1 59 30.0000000  0  8G10G12G26G05G25G29G02G30
 123363339.421 6  96127401.54943  23475241.008                    23475250.344
 112271573.026 7  87484421.223 7  21364570.969                    21364578.953
 124997480.718 6  97400740.45844  23786238.563                    23786248.273
 106936703.087 8  83327401.473 8  20349358.859                    20349366.922
 113571265.396 8  88497143.268 7  21611895.063                    21611905.719
 119632220.984 7  93219967.858 6  22765258.492                    22765267.117
 113428097.945 8  88385653.72546  21584630.602                    21584636.840
 114129713.445 8  88932178.68945  21718131.258                    21718139.992
 11  8 23  2  0  0.0000000  0  8G10G12G26G05G25G29G02G30
 123466723.958 6  96207960.94543  23494914.594                    23494923.250
 112329162.514 7  87529296.139 7  21375529.813                    21375537.867
 124902925.023 6  97327060.76744  23768244.984                    23768254.750
 106959521.578 8  83345182.130 8  20353701.094                    20353708.586
 113566397.955 8  88493350.486 7  21610969.117                    21610979.824
 119549704.961 7  93155669.706 7  22749555.922                    22749564.898
 113465045.846 8  88414444.31746  21591661.531                    21591667.523
 114136616.243 8  88937557.51245  21719444.898                    21719453.980
 11  8 23  2  0 30.0000000  0  8G10G12G26G05G25G29G02G30
 123570281.927 7  96288655.45743  23514622.063                    23514630.125
 112387203.088 7  87574522.551 7  21386574.563                    21386582.313
 124808412.626 6  97253414.84643  23750260.023                    23750269.586
 106982865.534 8  83363372.240 8  20358143.633                    20358151.309
 113562108.098 8  88490007.750 7  21610152.188                    21610163.395
 119467246.885 7  93091416.712 7  22733865.109                    22733873.844
 113502077.695 8  88443300.31745  21598708.406                    21598714.004
 114144107.904 8  88943395.19445  21720870.563                    21720879.242
 11  8 23  2  1  0.0000000  0  9G10G12G26G05G15G25G29G02G30
 123674010.500 7  96369482.89743  23534360.945                    23534368.656
 112445692.271 7  87620098.516 7  21397704.969                    21397712.945
 124713946.951 6  97179805.32843  23732283.992                    23732293.875
 107006733.554 8  83381970.705 8  20362685.359                    20362692.980
 129463730.00016 100880875.21016  24636135.594                    24636146.902
 113558395.570 8  88487114.889 7  21609446.266                    21609456.766
 119384848.717 7  93027210.388 7  22718184.906                    22718193.848
 113539193.378 8  88472221.64146  21605771.578                    21605777.066
 114152187.589 7  88949691.06745  21722408.148                    21722416.754
 11  8 23  2  1 30.0000000  0  9G10G12G26G05G15G25G29G02G30
 123777907.262 7  96450441.42143  23554132.180                    23554139.578
 112504627.717 8  87666022.239 7  21408919.922                    21408927.844
 124619531.292 6  97106234.76043  23714316.320                    23714326.262
 107031124.141 8  83400976.368 8  20367326.695                    20367334.723
 129371067.026 6 100808670.458 6  24618501.367                    24618513.719
 113555260.163 7  88484671.732 7  21608849.281                    21608860.297
 119302511.893 7  92963051.860 7  22702516.539                    22702525.566
 113576392.845 8  88501208.26346  21612849.992                    21612856.090
 114160854.353 7  88956444.42345  21724057.094                    21724066.086
 11  8 23  2  2  0.0000000  0  9G10G12G26G05G15G25G29G02G30
 123881969.300 7  96531528.69443  23573933.867                    23573942.426
 112564007.380 7  87712292.095 7  21420219.203                    21420227.320
 124525169.389 6  97032706.09743  23696360.297                    23696370.609
 107056035.768 8  83420388.045 8  20372067.203                    20372075.039
 129278269.173 6 100736360.600 6  24600842.445                    24600854.617
 113552701.600 8  88482678.064 7  21608361.898                    21608372.840
 119220238.580 7  92898942.820 7  22686860.148                    22686869.543
 113613675.974 8  88530260.05346  21619944.977                    21619950.953
 114170107.292 8  88963654.51945  21725817.906                    21725826.543
 11  8 23  2  2 30.0000000  0  9G10G12G26G05G15G25G29G02G30
 123986193.834 7  96612742.63543  23593766.766                    23593775.391
 112623828.411 8  87758905.861 7  21431602.898                    21431611.090
 124430864.492 6  96959221.81643  23678414.117                    23678424.488
 107081466.786 8  83440204.434 8  20376906.766                    20376914.254
 129185339.374 6 100663947.944 6  24583158.227                    24583170.707
 113550719.592 8  88481133.657 7  21607985.063                    21607996.211
 119138030.588 7  92834884.675 6  22671216.164                    22671224.527
 113651042.506 7  88559376.84446  21627055.641                    21627061.512
 114179945.464 8  88971320.65845  21727690.258                    21727698.859
 11  8 23  2  3  0.0000000  0  9G10G12G26G05G15G25G29G02G30
 124090578.418 7  96694081.25243  23613630.680                    23613639.156
 112684088.812 8  87805862.009 7  21443070.016                    21443078.102
 124336620.344 6  96885784.90743  23660480.188                    23660490.613
 107107415.839 8  83460424.487 8  20381844.805                    20381852.477
 129092279.719 6 100591434.099 6  24565450.180                    24565461.465
 113549313.850 8  88480038.271 7  21607717.594                    21607728.430
 119055889.701 7  92770878.823 6  22655585.852                    22655594.008
 113688492.159 8  88588558.40946  21634181.336                    21634187.527
 114190367.866 8  88979442.02045  21729673.320                    21729682.535
 11  8 23  2  3 30.0000000  0  9G10G12G26G05G15G25G29G02G30
 124195120.285 7  96775542.41443  23633524.531                    23633534.020
 112744786.202 8  87853158.659 7  21454620.453                    21454628.879
 124242439.963 6  96812397.65943  23642558.422                    23642568.238
 107133881.043 8  83481046.735 8  20386880.602                    20386888.539
 128999092.833 6 100518821.108 6  24547717.570                    24547728.422
 113548483.836 8  88479391.521 7  21607559.453                    21607570.227
 118973817.540 7  92706926.510 7  22639968.078                    22639976.828
 113726024.828 8  88617804.65946  21641323.969                    21641329.957
 114201373.279 8  88988017.68045  21731767.805                    21731776.551
 11  8 23  2  4  0.0000000  0  9G10G12G26G05G15G25G29G02G30
 124299816.196 6  96857123.62043  23653447.633                    23653456.184
 112805917.045 8  87900793.055 7  21466253.102                    21466261.223
 124148326.819 6  96739062.80743  23624649.445                    23624659.254
 107160860.522 8  83502069.712 8  20392014.938                    20392022.910
 128905780.860 6 100446110.669 6  24529959.969                    24529971.844
 113548229.049 8  88479192.974 7  21607511.367                    21607521.906
 118891815.845 7  92643029.124 7  22624363.258                    22624372.543
 113763640.150 8  88647115.30346  21648482.250                    21648488.055
 114212960.531 8  88997046.71645  21733972.727                    21733981.340
 11  8 23  2  4 30.0000000  0  9G10G12G26G05G15G25G29G02G30
 124404663.972 6  96938823.16943  23673399.516                    23673408.469
 112867479.550 7  87948763.835 7  21477968.453                    21477975.836
 124054284.593 6  96665783.26743  23606753.211                    23606763.621
 107188353.279 8  83523492.645 8  20397246.570                    20397254.066
 128812346.875 6 100373305.160 6  24512180.109                    24512191.164
 113548549.201 8  88479442.447 7  21607572.148                    21607583.246
 118809886.617 7  92579188.184 7  22608772.984                    22608782.027
 113801338.058 8  88676490.31046  21655655.781                    21655661.957
 114225128.630 8  89006528.34545  21736288.180                    21736297.145
 11  8 23  2  5  0.0000000  0  9G10G12G26G05G15G25G29G02G30
 124509660.605 6  97020638.69443  23693379.969                    23693388.523
 112929471.408 7  87997069.164 7  21489764.859                    21489773.582
 123960316.627 6  96592561.59144  23588871.664                    23588881.680
 107216357.486 7  83545314.119 8  20402575.352                    20402583.508
 128718793.183 6 100300406.335 6  24494377.508                    24494388.391
 113549444.047 8  88480139.713 7  21607742.523                    21607752.559
 118728031.941 7  92515405.343 7  22593196.914                    22593205.918
 113839118.784 8  88705929.84846  21662845.102                    21662851.277
 114237876.634 8  89016461.85345  21738713.875                    21738722.898
 11  8 23  2  5 30.0000000  0  9G10G12G26G05G15G25G29G02G30
 124614803.489 6  97102568.14743  23713387.625                    23713397.125
 112991889.664 7  88045706.744 7  21501642.922                    21501651.414
 123866426.405 6  96519400.47744  23571004.930                    23571015.008
 107244871.172 7  83567532.589 8  20408001.320                    20408008.992
 128625122.108 6 100227416.051 6  24476552.336                    24476562.891
 113550912.733 8  88481284.143 7  21608021.594                    21608032.371
 118646253.282 7  92451681.741 7  22577634.523                    22577643.750
 113876981.741 8  88735433.45946  21670050.039                    21670056.313
 114251203.118 8  89026846.12245  21741250.219                    21741258.625
 11  8 23  2  6  0.0000000  0  9G10G12G26G05G15G25G29G02G30
 124720089.872 7  97184609.50443  23733423.117                    23733432.090
 113054732.070 7  88094674.829 7  21513601.078                    21513609.492
 123772617.296 6  96446302.55543  23553153.727                    23553163.531
 107273892.625 8  83590146.718 8  20413523.797                    20413531.820
 128531336.109 6 100154336.246 5  24458705.734                    24458715.605
 113552954.838 8  88482875.397 7  21608410.430                    21608421.160
 118564552.626 7  92388018.915 7  22562087.547                    22562096.449
 113914926.714 8  88765000.98046  21677270.664                    21677276.883
 114265107.003 8  89037680.32045  21743895.375                    21743904.852
 11  8 23  2  6 30.0000000  0  9G10G12G26G05G15G25G29G02G30
 124825517.260 7  97266760.71743  23753485.891                    23753493.891
 113117996.077 8  88143971.458 7  21525639.898                    21525648.082
 123678892.879 6  96373270.65044  23535317.953                    23535328.613
 107303420.162 8  83613155.203 8  20419142.891                    20419150.766
 128437437.666 6 100081168.785 5  24440836.789                    24440846.508
 113555569.805 7  88484913.028 7  21608908.141                    21608918.871
 118482931.851 7  92324418.340 7  22546555.836                    22546564.527
 113952953.637 8  88794632.36445  21684506.961                    21684513.121
 114279587.036 8  89048963.44245  21746651.195                    21746660.074
 11  8 23  2  7  0.0000000  0  9G10G12G26G05G15G25G29G02G30
 124931083.187 7  97349019.88943  23773574.016                    23773583.086
 113181679.564 7  88193594.938 7  21537758.398                    21537766.719
 123585257.014 7  96300307.69344  23517500.000                    23517510.020
 107333452.683 8  83636557.178 8  20424857.609                    20424865.762
 128343429.717 6 100007916.001 5  24422947.227                    24422958.316
 113558757.504 7  88487396.951 7  21609514.797                    21609525.605
 118401393.073 7  92260881.691 7  22531038.766                    22531048.430
 113991062.680 8  88824327.72845  21691758.859                    21691764.742
 114294642.343 8  89060694.83945  21749516.461                    21749524.547
 11  8 23  2  7 30.0000000  0  9G10G12G26G05G15G25G29G02G30
 125036784.685 7  97431384.68544  23793688.117                    23793697.621
 113245779.445 7  88243542.884 7  21549956.344                    21549964.434
 123491713.023 7  96227416.34644  23499699.227                    23499709.426
 107363988.200 8  83660351.097 8  20430668.688                    20430676.406
 128249314.955 6  99934579.983 6  24405037.414                    24405048.602
 113562517.162 8  88490326.552 7  21610230.195                    21610241.145
 118319938.106 7  92197410.355 7  22515538.688                    22515547.465
 114029253.688 8  88854086.95845  21699026.391                    21699032.543
 114310271.420 8  89072873.34445  21752490.305                    21752498.805
 11  8 23  2  8  0.0000000  0  9G10G12G26G05G15G25G29G02G30
 125142619.070 6  97513852.99343  23813828.023                    23813836.855
 113310292.981 8  88293813.151 7  21562232.992                    21562241.039
 123398264.122 7  96154599.11144  23481916.203                    23481926.066
 107395024.495 8  83684535.243 8  20436574.469                    20436582.363
 128155095.348 6  99861162.284 6  24387108.203                    24387120.207
 113566847.859 8  88493701.112 7  21611054.320                    21611065.316
 118238568.678 7  92134005.679 6  22500054.070                    22500062.395
 114067526.351 8  88883909.82145  21706309.742                    21706315.387
 114326472.859 8  89085497.82245  21755573.266                    21755581.852
 11  8 23  2  8 30.0000000  0  9G10G12G26G05G15G25G29G02G30
 125248583.517 6  97596422.64543  23833991.070                    23834001.789
 113375217.749 8  88344403.865 7  21574587.906                    21574596.180
 123304913.879 7  96081858.75544  23464152.852                    23464162.020
 107426559.632 8  83709108.084 8  20442575.547                    20442583.570
 128060773.541 6  99787664.908 6  24369159.547                    24369171.359
 113571749.034 8  88497520.232 7  21611987.039                    21611998.051
 118157286.582 7  92070669.042 7  22484587.133                    22484595.309
 114105880.414 7  88913796.11645  21713607.828                    21713613.520
 114343245.331 8  89098567.28245  21758764.977                    21758773.773
 11  8 23  2  9  0.0000000  0  9G10G12G26G05G15G25G29G02G30
 125354675.581 6  97679091.74943  23854180.117                    23854190.023
 113440550.950 7  88395312.839 7  21587020.305                    21587028.379
 123211665.804 7  96009197.99544  23446408.047                    23446417.742
 107458592.115 8  83734068.487 8  20448670.820                    20448678.848
 127966352.281 7  99714090.050 6  24351191.570                    24351202.898
 113577220.011 8  88501783.343 7  21613027.813                    21613039.039
 118076093.671 7  92007401.897 6  22469136.367                    22469144.367
 114144315.671 7  88943745.68045  21720922.109                    21720927.773
 114360587.470 8  89112080.63345  21762064.836                    21762073.297
 11  8 23  2  9 30.0000000  0  9G10G12G26G05G15G25G29G02G30
 125460892.365 6  97761858.01743  23874392.570                    23874402.512
 113506289.839 7  88446537.939 7  21599530.023                    21599537.984
 123118523.291 7  95936619.51044  23428683.398                    23428693.090
 107491119.799 8  83759414.753 8  20454861.180                    20454868.406
 127871833.852 7  99640439.492 6  24333205.922                    24333216.211
 113583259.878 8  88506489.735 7  21614177.461                    21614188.363
 117994991.940 7  91944205.790 6  22453703.188                    22453711.449
 114182832.056 7  88973758.44445  21728251.758                    21728257.117
 114378497.790 8  89126036.72746  21765473.297                    21765482.320
 11  8 23  2 10  0.0000000  0  9G10G12G26G05G15G25G29G02G30
 125567231.794 6  97844719.89943  23894629.328                    23894637.863
 113572432.687 7  88498077.816 7  21612116.273                    21612124.977
 123025490.275 7  95864126.29844  23410979.773                    23410989.754
 107524141.692 8  83785146.127 8  20461144.875                    20461152.445
 127777221.237 6  99566715.534 6  24315201.375                    24315211.426
 113589868.439 8  88511639.297 7  21615434.844                    21615446.051
 117913983.569 7  91881082.448 6  22438287.602                    22438295.926
 114221430.068 7  89003834.82445  21735596.516                    21735602.426
 114396975.314 8  89140434.79645  21768989.602                    21768998.656
 11  8 23  2 10 30.0000000  0  9G10G12G26G05G15G25G29G02G30
 125673691.059 6  97927675.14743  23914888.102                    23914896.086
 113638976.352 7  88549929.992 7  21624779.117                    21624787.863
 122932570.304 7  95791721.19144  23393297.922                    23393307.797
 107557655.961 8  83811261.150 8  20467522.453                    20467529.898
 127682517.123 6  99492920.305 6  24297179.305                    24297190.223
 113597044.893 8  88517231.366 7  21616800.570                    21616811.309
 117833070.636 7  91818033.505 6  22422890.672                    22422898.406
 114260109.470 7  89033974.62145  21742956.820                    21742962.520
 114416018.629 8  89155273.74245  21772613.375                    21772622.078
 11  8 23  2 11  0.0000000  0  9G10G12G26G05G15G25G29G02G30
 125780267.457 7  98010721.72543  23935168.789                    23935176.328
 113705917.852 7  88602092.185 7  21637517.969                    21637526.410
 122839766.886 6  95719406.90644  23375637.367                    23375647.270
 107591660.271 8  83837758.044 8  20473992.836                    20474000.609
 127587723.901 6  99419055.657 6  24279139.984                    24279151.059
 113604788.405 8  88523265.299 7  21618274.109                    21618284.898
 117752254.761 7  91755060.172 7  22407511.914                    22407520.203
 114298870.061 7  89064177.68245  21750332.922                    21750338.805
 114435626.248 8  89170552.41445  21776344.234                    21776353.305
 11  8 23  2 11 30.0000000  0  9G10G12G26G05G15G25G29G02G30
 125886958.019 7  98093857.25943  23955471.477                    23955478.809
 113773254.687 7  88654562.422 7  21650331.445                    21650340.234
 122747083.359 7  95647186.04044  23358000.164                    23358009.922
 107626152.393 8  83864635.036 8  20480556.664                    20480564.379
 127492844.053 7  99345123.476 6  24261086.328                    24261096.563
 113613097.923 8  88529740.282 7  21619855.281                    21619865.859
 117671537.885 7  91692163.964 7  22392151.945                    22392160.336
 114337711.385 7  89094443.63645  21757724.453                    21757729.934
 114455796.444 8  89186269.47045  21780182.602                    21780191.766
 11  8 23  2 12  0.0000000  0  9G10G12G26G05G15G25G29G02G30
 125993760.742 7  98177080.17243  23975794.625                    23975802.828
 113840984.725 7  88707339.040 7  21663220.305                    21663228.344
 122654523.447 7  95575061.51144  23340386.828                    23340396.668
 107661131.084 7  83891891.180 8  20487212.797                    20487220.301
 127397880.498 7  99271126.091 6  24243015.211                    24243025.008
 113621972.920 8  88536655.880 7  21621544.273                    21621555.188
 117590922.109 7  91629346.557 7  22376811.055                    22376819.816
 114376633.896 8  89124772.85645  21765131.047                    21765136.645
 114476528.004 8  89202423.95045  21784127.773                    21784136.488
 11  8 23  2 12 30.0000000  0  9G10G12G26G05G15G25G29G02G30
 126100672.899 7  98260388.31443  23996140.273                    23996147.836
 113909104.621 7  88760419.465 7  21676182.953                    21676191.176
 122562090.619 7  95503035.98644  23322797.523                    23322807.008
 107696594.304 8  83919524.875 8  20493961.227                    20493968.426
 127302835.738 7  99197065.386 6  24224928.102                    24224937.484
 113631412.243 8  88544011.226 7  21623340.406                    21623351.121
 117510409.254 7  91566609.345 7  22361489.953                    22361498.504
 114415637.100 8  89155164.96045  21772552.789                    21772558.707
 114497819.139 8  89219014.45345  21788179.477                    21788187.977
 11  8 23  2 13  0.0000000  0  9G10G12G26G05G15G25G29G02G30
 126207691.550 7  98343779.51343  24016504.531                    24016512.563
 113977611.561 7  88813801.474 7  21689219.445                    21689227.672
 122469788.127 7  95431112.04844  23305232.563                    23305242.945
 107732539.617 8  83947534.230 8  20500801.383                    20500808.645
 127207712.313 6  99122943.381 6  24206826.680                    24206836.102
 113641415.072 8  88551805.665 7  21625243.875                    21625254.352
 117430001.367 7  91503953.927 7  22346188.617                    22346198.047
 114454721.178 8  89185620.06845  21779990.523                    21779996.117
 114519668.333 8  89236039.80345  21792336.977                    21792346.098
 11  8 23  2 13 30.0000000  0  9G10G12G26G05G15G25G29G02G30
 126314814.636 6  98427252.08743  24036889.328                    24036898.105
 114046503.218 7  88867483.258 7  21702329.266                    21702337.402
 122377620.254 7  95359293.00444  23287693.203                    23287704.078
 107768965.916 8  83975918.377 8  20507732.961                    20507740.680
 127112513.086 6  99048762.312 6  24188710.008                    24188720.473
 113651980.803 8  88560038.726 7  21627254.336                    21627265.367
 117349700.532 7  91441381.922 7  22330908.047                    22330916.867
 114493886.292 7  89216138.34946  21787443.477                    21787449.488
 114542074.351 8  89253499.05945  21796600.914                    21796609.250
 11  8 23  2 14  0.0000000  0  9G10G12G26G05G15G25G29G02G30
 126422039.602 6  98510803.94243  24057292.844                    24057302.727
 114115776.889 7  88921462.710 7  21715511.852                    21715520.031
 122285590.339 7  95287581.45844  23270180.992                    23270190.398
 107805871.061 8  84004675.651 8  20514756.047                    20514763.703
 127017240.677 6  98974524.229 6  24170580.656                    24170590.641
 113663108.569 8  88568709.733 7  21629372.039                    21629382.445
 117269508.914 7  91378895.008 7  22315647.945                    22315656.934
 114533132.616 7  89246719.89245  21794912.031                    21794917.633
 114565035.571 8  89271390.94245  21800970.133                    21800978.957
 11  8 23  2 14 30.0000000  0  9G10G12G26G05G15G25G29G02G30
 126529363.200 6  98594432.66643  24077716.289                    24077725.023
 114185429.656 7  88975737.585 7  21728765.953                    21728774.320
 122193701.651 7  95215979.94444  23252695.391                    23252704.391
 107843252.387 8  84033803.954 8  20521868.961                    20521876.875
 126921897.499 6  98900230.976 6  24152437.094                    24152448.133
 113674796.968 8  88577817.598 7  21631596.141                    21631606.371
 117189428.256 7  91316494.568 7  22300409.055                    22300417.281
 114572459.378 7  89277364.10445  21802395.266                    21802401.246
 114588550.083 8  89289713.94045  21805444.781                    21805454.129
 11  8 23  2 15  0.0000000  0  9G10G12G26G05G15G25G29G02G30
 126636783.490 6  98678136.73943  24098157.930                    24098167.180
 114255459.159 8  89030306.011 7  21742092.297                    21742100.012
 122101958.322 7  95144491.71244  23235236.758                    23235245.926
 107881108.836 8  84063302.497 8  20529072.695                    20529080.883
 126826486.561 6  98825884.915 6  24134281.227                    24134291.672
 113687045.457 8  88587361.892 7  21633927.039                    21633937.652
 117109460.857 7  91254182.377 7  22285191.656                    22285200.164
 114611867.254 8  89308071.52445  21809893.797                    21809900.449
 114612616.604 8  89308467.09445  21810024.320                    21810033.422
 11  8 23  2 15 30.0000000  0  9G10G12G26G05G15G25G29G02G30
 126744297.538 6  98761913.89943  24118617.820                    24118626.375
 114325861.815 7  89085165.201 7  21755489.508                    21755497.242
 122010363.349 7  95073119.09244  23217806.961                    23217816.566
 107919437.565 8  84093169.047 8  20536366.742                    20536374.398
 126731010.238 6  98751487.920 6  24116111.945                    24116122.852
 113699852.546 8  88597341.471 7  21636364.055                    21636374.605
 117029608.260 7  91191959.644 7  22269996.422                    22270005.207
 114651355.561 7  89338841.62445  21817408.688                    21817414.746
 114637233.031 8  89327648.74545  21814709.109                    21814717.473
 11  8 23  2 16  0.0000000  0  9G10G12G26G05G15G25G29G02G30
 126851903.092 6  98845762.36543  24139093.773                    24139103.262
 114396635.408 7  89140313.445 7  21768956.820                    21768965.570
 121918920.621 7  95001865.10144  23200406.211                    23200415.582
 107958237.395 8  84123402.698 8  20543750.461                    20543758.020
 126635471.983 6  98677042.634 6  24097931.719                    24097942.051
 113713217.711 8  88607755.887 7  21638907.180                    21638918.258
 116949872.847 7  91129828.222 7  22254822.703                    22254831.848
 114690924.852 7  89369674.83645  21824938.141                    21824944.516
 114662398.060 8  89347257.88245  21819497.398                    21819506.609
 11  8 23  2 16 30.0000000  0  9G10G12G26G05G15G25G29G02G30
 126959597.727 6  98929680.19943  24159586.891                    24159596.656
 114467777.188 7  89195748.571 7  21782494.820                    21782503.539
 121827633.766 7  94930732.56244  23183033.891                    23183044.453
 107997505.874 8  84154001.511 8  20551222.789                    20551230.391
 126539873.680 6  98602550.590 6  24079739.789                    24079750.250
 113727139.613 8  88618604.130 7  21641556.422                    21641567.117
 116870256.547 7  91067789.608 7  22239672.992                    22239681.738
 114730575.161 7  89400571.18145  21832483.594                    21832489.789
 114688109.851 8  89367293.06245  21824390.523                    21824399.238
 11  8 23  2 17  0.0000000  0  9G10G12G26G05G15G25G29G02G30
 127067378.914 6  99013665.52543  24180097.516                    24180106.359
 114539284.146 7  89251468.241 7  21796102.375                    21796111.098
 121736506.283 7  94859724.19244  23165693.961                    23165703.441
 108037240.993 8  84184963.970 8  20558784.117                    20558791.680
 126444218.159 6  98528013.935 6  24061537.516                    24061547.375
 113741617.179 8  88629885.367 7  21644311.367                    21644322.555
 116790761.276 7  91005845.298 7  22224544.992                    22224553.887
 114770305.923 7  89431530.22645  21840044.117                    21840050.102
 114714366.513 7  89387752.81045  21829387.047                    21829395.934
 11  8 23  2 17 30.0000000  0  9G10G12G26G05G15G25G29G02G30
 127175244.090 6  99097716.30143  24200623.602                    24200632.555
 114611153.685 7  89307470.468 7  21809778.797                    21809787.195
 121645541.924 7  94788842.95144  23148383.211                    23148393.172
 108077441.087 8  84216288.731 8  20566433.813                    20566441.117
 126348508.449 7  98453435.056 6  24043324.141                    24043334.410
 113756649.570 8  88641598.921 7  21647171.953                    21647183.059
 116711389.388 7  90943997.123 7  22209440.961                    22209449.762
 114810117.839 7  89462552.50245  21847620.266                    21847625.750
 114741166.692 7  89408636.08845  21834487.063                    21834495.570
 11  8 23  2 18  0.0000000  0  9G10G12G26G05G15G25G29G02G30
 127283190.719 6  99181830.52543  24221164.813                    24221173.859
 114683382.948 7  89363752.999 7  21823523.461                    21823531.605
 121554744.061 7  94718091.43344  23131105.047                    23131114.828
 108118103.467 8  84247973.733 8  20574171.555                    20574179.359
 126252746.943 7  98378815.795 6  24025101.320                    24025112.180
 113772235.123 8  88653743.513 7  21650138.219                    21650148.363
 116632142.546 7  90882246.392 7  22194360.906                    22194369.383
 114850010.600 7  89493637.78045  21855211.523                    21855217.477
 114768508.041 7  89429941.04145  21839689.859                    21839698.066
 11  8 23  2 18 30.0000000  0  9G10G12G26G05G15G25G29G02G30
 127391216.178 6  99266006.26643  24241721.828                    24241730.066
 114755968.649 7  89420313.279 7  21837336.430                    21837344.152
 121464116.431 7  94647472.57844  23113858.898                    23113868.742
 108159226.184 8  84280017.426 8  20581996.789                    20582004.680
 126156936.290 7  98304158.243 6  24006869.328                    24006880.633
 113788372.980 8  88666318.476 7  21653208.445                    21653219.277
 116553023.204 7  90820594.987 7  22179304.703                    22179313.547
 114889984.026 7  89524785.92945  21862818.133                    21862823.879
 114796389.053 7  89451666.52445  21844995.648                    21845003.859
 11  8 23  2 19  0.0000000  0  9G10G12G26G05G15G25G29G02G30
 127499318.190 6  99350241.61643  24262292.195                    24262301.988
 114828908.700 7  89477149.673 7  21851216.078                    21851224.082
 121373662.880 7  94576989.36544  23096646.414                    23096655.441
 108200807.552 8  84312418.505 8  20589909.570                    20589917.188
 126061079.657 7  98229464.883 6  23988628.266                    23988639.211
 113805062.071 8  88679322.963 7  21656384.547                    21656394.988
 116474033.313 7  90759044.455 7  22164273.430                    22164282.219
 114930038.344 7  89555997.09145  21870439.836                    21870445.840
 114824808.041 8  89473811.17945  21850403.156                    21850411.859
 11  8 23  2 19 30.0000000  0  9G10G12G26G05G15G25G29G02G30
 127607493.942 6  99434534.45342  24282877.859                    24282887.457
 114902199.881 7  89534259.659 7  21865163.148                    21865171.566
 121283386.971 7  94506644.56144  23079467.055                    23079476.090
 108242845.277 8  84345175.192 8  20597909.383                    20597916.582
 125965179.889 7  98154737.889 6  23970378.742                    23970389.863
 113822301.209 8  88692756.057 7  21659665.102                    21659675.805
 116395174.883 7  90697596.370 7  22149267.406                    22149275.762
 114970173.792 7  89587271.46645  21878077.289                    21878083.211
 114853763.106 7  89496373.58645  21855912.688                    21855921.594
 11  8 23  2 20  0.0000000  0  9G10G12G26G05G15G25G29G02G30
 127715741.425 6  99518883.14642  24303476.148                    24303484.969
 114975839.645 7  89591641.273 7  21879176.063                    21879184.715
 121193292.299 7  94436441.00344  23062322.555                    23062331.406
 108285337.358 7  84378285.932 8  20605995.336                    20606002.473
 125869239.429 7  98079979.208 6  23952122.273                    23952132.762
 113840089.156 8  88706616.788 7  21663049.789                    21663060.879
 116316450.363 7  90636252.633 7  22134286.328                    22134295.039
 115010390.123 7  89618608.88745  21885731.008                    21885736.234
 114883252.354 7  89519352.21945  21861525.023                    21861533.695
 11  8 23  2 20 30.0000000  0  9G10G12G26G05G15G25G29G02G30
 127824057.861 6  99603285.54743  24324088.305                    24324097.016
 115049824.563 8  89649291.843 7  21893255.023                    21893263.406
 121103382.444 7  94366381.44344  23045213.664                    23045222.668
 108328281.471 8  84411748.889 8  20614167.180                    20614174.848
 125773261.028 7  98005190.973 6  23933857.469                    23933868.629
 113858424.502 8  88720904.068 7  21666539.516                    21666550.035
 116237861.423 7  90575014.527 7  22119331.227                    22119339.543
 115050687.591 7  89650009.53645  21893399.125                    21893404.816
 114913273.759 8  89542745.53145  21867237.281                    21867246.934
 11  8 23  2 21  0.0000000  0  9G10G12G26G05G15G25G29G02G30
 127932440.911 6  99687739.83943  24344713.906                    24344721.938
 115124152.595 7  89707209.766 7  21907399.289                    21907407.121
 121013661.112 7  94296468.76944  23028139.820                    23028149.816
 108371675.730 8  84445562.609 8  20622425.188                    20622432.324
 125677247.970 6  97930375.756 6  23915586.773                    23915597.492
 113877306.211 8  88735617.068 7  21670131.977                    21670142.809
 116159410.458 7  90513883.938 7  22104402.477                    22104411.773
 115091066.296 7  89681473.47545  21901082.625                    21901088.965
 114943825.746 7  89566552.24645  21873051.414                    21873060.762
 11  8 23  2 21 30.0000000  0  9G10G12G26G05G15G25G29G02G30
 128040888.354 6  99772244.34243  24365350.813                    24365359.527
 115198820.290 8  89765392.375 7  21921608.516                    21921616.840
 120924132.048 6  94226705.91844  23011103.063                    23011112.016
 108415518.197 8  84479725.587 8  20630767.328                    20630775.340
 125581202.688 6  97855535.407 6  23897309.625                    23897319.387
 113896732.984 8  88750754.827 7  21673829.016                    21673839.668
 116081099.730 7  90452862.629 7  22089500.727                    22089509.602
 115131526.206 7  89713000.68045  21908781.906                    21908788.051
 114974906.206 7  89590770.79445  21878965.883                    21878974.828
 11  8 23  2 22  0.0000000  0  9G10G12G26G05G15G25G29G02G30
 128149397.813 6  99856797.18443  24385999.102                    24386008.004
 115273825.108 7  89823837.663 7  21935880.781                    21935889.449
 120834799.031 7  94157095.84544  22994103.461                    22994113.078
 108459806.866 8  84514236.258 8  20639195.695                    20639202.930
 125485128.041 6  97780672.074 6  23879027.938                    23879037.223
 113916703.715 8  88766316.419 7  21677629.523                    21677639.836
 116002931.217 7  90391952.125 7  22074625.758                    22074634.012
 115172067.862 7  89744591.59145  21916496.852                    21916502.695
 115006513.523 7  89615399.85445  21884980.328                    21884989.563
 11  8 23  2 22 30.0000000  0  9G10G12G26G05G15G25G29G02G30
 128257966.663 6  99941396.21443  24406659.008                    24406668.453
 115349164.131 8  89882543.377 7  21950217.734                    21950225.727
 120745665.258 7  94087641.00244  22977142.102                    22977151.137
 108504538.827 8  84549092.345 8  20647707.922                    20647714.793
 125389026.501 6  97705787.959 6  23860740.633                    23860749.695
 113937216.447 8  88782300.369 7  21681532.938                    21681543.223
 115924906.807 7  90331153.914 7  22059778.180                    22059786.156
 115212690.644 7  89776245.70745  21924227.258                    21924232.934
 115038645.071 7  89640437.43245  21891094.898                    21891104.633
 11  8 23  2 23  0.0000000  0  9G10G12G26G05G15G25G29G02G30
 128366592.245 5 100026039.46143  24427330.305                    24427339.469
 115424833.402 8  89941506.432 7  21964616.828                    21964625.563
 120656734.158 7  94018344.08644  22960218.969                    22960228.219
 108549711.615 8  84584291.936 8  20656303.984                    20656311.191
 125292900.753 6  97630884.911 6  23842447.367                    23842457.922
 113958269.741 8  88798705.516 7  21685538.891                    21685549.758
 115847028.370 7  90270469.456 7  22044958.000                    22044966.434
 115253394.735 7  89807963.17445  21931972.719                    21931978.664
 115071298.847 7  89665881.92345  21897308.945                    21897317.461
 11  8 23  2 23 30.0000000  0  9G10G12G26G05G15G25G29G02G30
 128475272.260 6 100110725.13542  24448011.461                    24448020.859
 115500830.581 8  90000724.987 7  21979078.594                    21979087.066
 120568009.622 7  93949208.13544  22943335.703                    22943344.363
 108595323.294 8  84619833.517 8  20664983.500                    20664991.141
 125196753.826 6  97555965.358 6  23824152.086                    23824161.898
 113979862.379 8  88815530.947 7  21689648.031                    21689658.305
 115769298.357 8  90209900.653 7  22030166.703                    22030174.902
 115294179.779 8  89839743.73845  21939733.984                    21939739.953
 115104472.906 7  89691731.82445  21903621.867                    21903630.672
 11  8 23  2 24  0.0000000  0  9G10G12G26G05G15G25G29G02G30
 128584004.545 6 100195451.65643  24468702.086                    24468710.941
 115577153.143 8  90060197.090 7  21993602.469                    21993611.098
 120479495.612 7  93880236.20644  22926492.094                    22926500.473
 108641372.398 8  84655715.941 8  20673746.539                    20673753.629
 125100588.786 7  97481031.681 6  23805851.977                    23805862.063
 114001993.212 8  88832775.747 7  21693859.609                    21693870.574
 115691719.265 8  90149449.461 7  22015403.945                    22015412.086
 115335046.857 8  89871588.20045  21947510.656                    21947516.688
 115138165.479 8  89717985.77545  21910032.984                    21910041.699
 11  8 23  2 24 30.0000000  0  9G10G12G26G05G15G25G29G02G30
 128692786.338 5 100280216.65342  24489401.281                    24489411.707
 115653797.697 8  90119920.096 7  22008187.547                    22008195.969
 120391195.334 7  93811430.82544  22909688.828                    22909698.066
 108687855.933 8  84691936.895 7  20682591.867                    20682599.324
 125004408.294 7  97406085.947 6  23787549.539                    23787559.234
 114024660.421 8  88850438.504 7  21698172.781                    21698183.223
 115614292.919 8  90089117.307 7  22000670.281                    22000678.586
 115375995.421 7  89903496.17045  21955303.109                    21955308.703
 115172374.194 7  89744641.90945  21916542.828                    21916551.586
 11  8 23  2 25  0.0000000  0  9G10G12G26G05G15G25G29G02G30
 128801615.546 6 100365018.62243  24510111.883                    24510121.645
 115730762.088 8  90179892.323 7  22022833.328                    22022841.930
 120303113.200 7  93742795.42544  22892927.547                    22892936.234
 108734772.497 8  84728495.268 8  20691519.680                    20691527.496
 124908215.592 7  97331130.699 6  23769244.703                    23769253.672
 114047863.122 8  88868518.548 7  21702588.273                    21702598.719
 115537021.845 8  90028906.151 7  21985965.992                    21985974.117
 115417026.168 7  89935468.18445  21963110.547                    21963116.926
 115207097.465 8  89771699.00845  21923150.508                    21923158.684
 11  8 23  2 25 30.0000000  0  9G10G12G26G05G15G25G29G02G30
 128910490.078 6 100449855.87143  24530830.383                    24530840.238
 115808043.220 8  90240111.371 7  22037539.461                    22037547.867
 120215252.533 7  93674332.59644  22876207.484                    22876217.379
 108782119.744 8  84765389.237 8  20700529.430                    20700537.289
 124812013.241 7  97256167.953 6  23750937.539                    23750947.152
 114071599.744 8  88887014.608 7  21707105.266                    21707115.832
 115459908.189 8  89968817.674 7  21971291.852                    21971299.887
 115458139.194 8  89967504.29245  21970934.070                    21970940.078
 115242333.203 7  89799155.44145  21929855.492                    21929864.785
 11  8 23  2 26  0.0000000  0  9G10G12G26G05G15G25G29G02G30
 129019407.540 6 100534726.64643  24551556.344                    24551566.098
 115885637.624 8  90300574.530 7  22052305.391                    22052313.824
 120127616.562 7  93606044.84644  22859531.102                    22859540.621
 108829894.965 8  84802616.687 8  20709621.234                    20709628.262
 124715803.934 7  97181199.774 6  23732629.797                    23732639.336
 114095868.307 8  88905925.194 7  21711723.305                    21711733.914
 115382953.589 7  89908853.116 7  21956647.773                    21956655.246
 115499334.084 7  89999604.19545  21978774.180                    21978779.730
 115278078.797 8  89827009.12845  21936658.055                    21936666.828
 11  8 23  2 26 30.0000000  0  9G10G12G26G05G15G25G29G02G30
 129128365.475 6 100619629.13143  24572289.805                    24572298.984
 115963542.584 7  90361279.666 7  22067130.211                    22067138.703
 120040209.321 7  93537935.35044  22842898.227                    22842907.191
 108878096.129 8  84840176.048 8  20718793.375                    20718800.926
 124619590.557 7  97106228.422 6  23714320.688                    23714330.965
 114120667.492 8  88925249.233 7  21716442.406                    21716453.406
 115306160.556 8  89849014.458 7  21942034.141                    21942042.320
 115540611.202 7  90031768.18945  21986628.336                    21986633.945
 115314332.247 7  89855258.59845  21943556.336                    21943565.059
 11  8 23  2 27  0.0000000  0  9G21G12G26G05G15G25G29G02G30
 132331231.09416 103115339.82853  25181810.508                    25181819.609
 116041756.540 8  90422225.597 7  22082013.602                    22082021.895
 119953036.011 7  93470008.14044  22826308.703                    22826318.383
 108926722.387 8  84878066.643 7  20728046.391                    20728053.719
 124523377.612 6  97031257.418 6  23696011.508                    23696022.156
 114145997.242 8  88944986.705 7  21721262.453                    21721273.504
 115229532.715 7  89789304.526 7  21927451.984                    21927460.555
 115581972.267 7  90063997.57945  21994499.000                    21994504.738
 115351092.954 7  89883903.28145  21950552.281                    21950561.465
 11  8 23  2 27 30.0000000  0  9G21G12G26G05G15G25G29G02G30
 132275600.239 6 103071991.23043  25171223.992                    25171233.855
 116120275.525 8  90483409.192 7  22096955.172                    22096963.488
 119866099.109 7  93402265.15144  22809765.953                    22809775.332
 108975770.499 8  84916285.957 7  20737380.148                    20737387.160
 124427166.609 6  96956287.919 6  23677703.336                    23677712.582
 114171854.763 8  88965135.429 7  21726183.289                    21726194.180
 115153070.970 7  89729724.028 7  21912902.117                    21912910.234
 115623416.273 7  90096291.57445  22002385.406                    22002391.496
 115388357.487 7  89912940.59245  21957642.852                    21957651.461
 11  8 23  2 28  0.0000000  0  9G21G12G26G05G15G25G29G02G30
 132219973.991 6 103028646.25043  25160638.305                    25160649.059
 116199095.107 8  90544827.043 7  22111954.352                    22111962.516
 119779400.571 7  93334707.89845  22793267.992                    22793276.668
 109025236.500 8  84954830.903 7  20746793.086                    20746800.664
 124330959.139 7  96881321.167 6  23659395.609                    23659404.059
 114198237.128 8  88985693.125 7  21731203.750                    21731214.391
 115076776.482 7  89670273.859 7  21898383.547                    21898392.199
 115664941.752 7  90128649.09245  22010287.867                    22010293.430
 115426122.271 7  89942367.68345  21964829.234                    21964838.496
 11  8 23  2 28 30.0000000  0  9G21G12G26G05G15G25G29G02G30
 132164353.073 6 102985305.38543  25150053.336                    25150064.309
 116278213.910 8  90606478.040 7  22127010.023                    22127018.078
 119692945.673 7  93267340.49545  22776816.398                    22776825.098
 109075119.666 8  84993700.902 7  20756285.797                    20756292.988
 124234759.305 6  96806360.356 6  23641088.977                    23641097.711
 114225143.999 8  89006659.529 7  21736323.578                    21736334.117
 115000652.493 7  89610956.540 7  21883897.477                    21883905.852
 115706550.397 7  90161071.40845  22018205.453                    22018211.531
 115464386.456 8  89972183.95745  21972110.633                    21972119.246
 11  8 23  2 29  0.0000000  0  9G21G12G26G05G15G25G29G02G30
 132108736.895 6 102941968.19343  25139469.875                    25139480.504
 116357628.221 7  90668359.296 7  22142122.078                    22142130.293
 119606737.784 7  93200165.56944  22760411.234                    22760420.473
 109125417.613 8  85032894.115 7  20765856.750                    20765864.133
 124138570.031 6  96731407.757 6  23622784.766                    23622794.027
 114252573.453 8  89028033.142 7  21741543.289                    21741554.188
 114924701.025 8  89551773.661 7  21869444.578                    21869452.785
 115748242.013 7  90193558.38945  22026139.164                    22026145.324
 115503147.493 7  90002387.38145  21979486.828                    21979495.469
 11  8 23  2 29 30.0000000  0  9G21G12G26G05G15G25G29G02G30
 132053124.521 7 102898634.02243  25128887.602                    25128898.871
 116437334.962 7  90730468.428 7  22157289.805                    22157297.988
 119520780.415 7  93133185.85245  22744053.938                    22744063.559
 109176127.428 8  85072408.257 7  20775506.914                    20775514.473
 124042393.851 6  96656465.361 6  23604482.570                    23604492.637
 114280523.664 8  89049812.532 7  21746862.172                    21746872.395
 114848924.285 8  89492726.915 7  21855024.703                    21855032.836
 115790016.551 7  90226109.98245  22034088.203                    22034094.445
 115542402.936 8  90032976.03945  21986956.695                    21986965.328
 11  8 23  2 30  0.0000000  0  9G21G12G26G05G15G25G29G02G30
 131997515.605 6 102855302.52943  25118305.883                    25118315.992
 116517331.793 7  90792803.595 7  22172512.875                    22172520.996
 119435077.605 7  93066404.51044  22727745.266                    22727754.172
 109227247.507 8  85112242.094 7  20785234.656                    20785242.074
 123946233.774 6  96581535.510 6  23586184.313                    23586194.629
 114308993.193 8  89071996.590 7  21752279.555                    21752290.410
 114773325.018 8  89433818.457 7  21840638.688                    21840647.168
 115831874.404 7  90258726.50345  22042053.945                    22042059.965
 115582150.801 8  90063948.41645  21994520.539                    21994528.973
 11  8 23  2 30 30.0000000  0  9G21G12G26G05G15G25G29G02G30
 131941909.359 6 102811973.11543  25107723.469                    25107734.125
 116597614.766 7  90855361.734 7  22187789.789                    22187798.680
 119349632.316 7  92999823.79344  22711484.953                    22711494.473
 109278774.625 8  85152393.099 7  20795040.156                    20795047.430
 123850092.719 6  96506620.488 6  23567889.336                    23567899.555
 114337979.959 8  89094583.687 7  21757795.336                    21757805.730
 114697904.052 8  89375048.929 7  21826286.297                    21826294.469
 115873815.609 7  90291407.97045  22050035.414                    22050041.434
 115622388.403 8  90095302.40545  22002177.289                    22002186.234
 11  8 23  2 31  0.0000000  0  9G21G12G26G05G15G25G29G02G30
 131886305.205 6 102768645.35543  25097141.773                    25097152.723
 116678182.069 7  90918141.425 7  22203121.328                    22203130.082
 119264449.270 7  92933447.45144  22695275.250                    22695284.973
 109330707.722 8  85192860.454 7  20804922.609                    20804930.254
 123753974.004 7  96431722.865 6  23549598.430                    23549608.699
 114367482.985 8  89117573.068 7  21763409.813                    21763420.453
 114622665.150 8  89316421.257 7  21811968.781                    21811977.613
 115915841.055 7  90324155.06845  22058032.492                    22058038.461
 115663114.152 8  90127036.76545  22009927.656                    22009936.035
 11  8 23  2 31 30.0000000  0  9G21G12G26G05G15G25G29G02G30
 131830702.546 6 102725318.74443  25086561.484                    25086571.906
 116759029.935 7  90981139.743 7  22218506.313                    22218514.531
 119179531.564 7  92867277.86144  22679115.602                    22679125.352
 109383043.887 8  85233641.873 8  20814881.375                    20814889.102
 123657880.343 7  96356844.815 6  23531312.531                    23531321.777
 114397499.945 8  89140962.910 7  21769121.992                    21769132.695
 114547609.967 7  89257936.748 7  21797686.445                    21797694.840
 115957950.391 7  90356967.52745  22066044.930                    22066051.359
 115704325.165 7  90159149.26145  22017769.633                    22017778.223
 11  8 23  2 32  0.0000000  0  9G21G12G26G05G15G25G29G02G30
 131775100.779 6 102681992.84243  25075980.367                    25075991.273
 116840155.560 7  91044354.504 7  22233944.258                    22233952.516
 119094882.948 7  92801317.94844  22663008.094                    22663017.332
 109435780.650 8  85274735.467 7  20824916.914                    20824924.797
 123561814.490 7  96281988.413 6  23513031.914                    23513040.387
 114428029.119 8  89164751.868 7  21774931.320                    21774942.105
 114472740.804 7  89199597.173 7  21783439.023                    21783447.422
 116000143.904 7  90389845.60445  22074074.289                    22074080.742
 115746019.126 7  90191638.06745  22025703.984                    22025712.820
 11  8 23  2 32 30.0000000  0  9G21G12G26G05G15G25G29G02G30
 131719499.425 6 102638667.25143  25065399.930                    25065410.770
 116921556.035 7  91107783.424 7  22249433.938                    22249443.184
 119010507.067 7  92735570.56045  22646951.961                    22646960.551
 109488915.842 8  85316139.509 8  20835028.625                    20835035.984
 123465779.535 7  96207156.067 6  23494756.578                    23494764.738
 114459068.720 8  89188938.580 7  21780837.711                    21780848.719
 114398060.026 7  89141404.402 7  21769227.938                    21769236.156
 116042421.585 7  90422789.25245  22082119.938                    22082125.719
 115788193.667 8  90224501.35245  22033729.234                    22033738.410
 11  8 23  2 33  0.0000000  0  9G21G12G26G05G15G25G29G02G30
 131663898.048 6 102595341.69643  25054818.680                    25054830.074
 117003228.201 7  91171424.035 7  22264975.984                    22264984.914
 118926407.698 7  92670038.63845  22630948.648                    22630957.230
 109542447.352 8  85357852.378 7  20845214.852                    20845222.578
 123369778.475 7  96132350.130 6  23476488.750                    23476497.055
 114490617.262 8  89213521.850 7  21786841.586                    21786852.504
 114323569.794 8  89083360.091 7  21755052.938                    21755061.277
 116084784.088 7  90455799.02645  22090180.656                    22090187.570
 115830846.797 8  90257737.56345  22041846.117                    22041855.313
 11  8 23  2 33 30.0000000  0  9G21G12G26G05G15G25G29G02G30
 131608295.826 6 102552015.39543  25044238.422                    25044249.141
 117085169.260 7  91235274.173 7  22280569.094                    22280577.551
 118842588.533 7  92604725.05145  22614997.898                    22615007.371
 109596372.612 8  85399872.061 7  20855476.891                    20855484.270
 123273814.326 7  96057572.959 6  23458226.469                    23458236.465
 114522672.683 8  89238500.110 7  21792941.430                    21792952.266
 114249272.670 8  89025466.257 7  21740914.656                    21740923.223
 116127231.395 7  90488874.88345  22098258.500                    22098264.164
 115873975.875 7  90291344.63745  22050053.453                    22050062.219
 11  8 23  2 34  0.0000000  0  9G21G12G26G05G15G25G29G02G30
 131552692.076 6 102508687.95642  25033657.422                    25033667.488
 117167375.980 7  91299331.326 7  22296212.109                    22296220.633
 118759053.016 7  92539632.47844  22599101.492                    22599110.957
 109650689.296 8  85442196.743 7  20865812.891                    20865820.535
 123177890.167 7  95982826.960 6  23439973.477                    23439982.813
 114555233.071 8  89263871.833 7  21799137.500                    21799148.063
 114175170.499 8  88967724.324 7  21726813.242                    21726821.996
 116169763.743 7  90522016.97345  22106351.531                    22106357.852
 115917578.279 7  90325320.54145  22058350.508                    22058359.281
 11  8 23  2 34 30.0000000  0  9G21G12G26G05G15G25G29G02G30
 131497086.342 6 102465358.78142  25023075.469                    25023085.289
 117249845.569 7  91363593.328 7  22311905.492                    22311914.148
 118675805.189 7  92474764.09344  22583259.625                    22583269.164
 109705395.216 8  85484824.727 7  20876223.000                    20876230.605
 123082008.879 7  95908114.330 6  23421728.070                    23421737.020
 114588296.834 8  89289635.785 7  21805429.445                    21805439.707
 114101266.092 8  88910136.495 7  21712749.742                    21712757.875
 116212381.474 8  90555225.60945  22114461.805                    22114467.527
 115961651.961 7  90359663.66745  22066737.180                    22066746.211
 11  8 23  2 35  0.0000000  0  9G21G12G26G05G15G25G29G02G30
 131441477.832 6 102422027.58542  25012494.391                    25012502.762
 117332574.479 7  91428057.373 7  22327648.828                    22327657.273
 118592848.224 7  92410122.33944  22567473.039                    22567482.895
 109760487.465 8  85527753.748 7  20886706.969                    20886714.449
 122986173.100 7  95833437.192 6  23403490.852                    23403500.160
 114621861.466 8  89315790.058 7  21811816.367                    21811827.137
 114027561.099 8  88852704.050 7  21698724.461                    21698732.090
 116255084.474 7  90588500.70445  22122588.125                    22122593.574
 116006193.888 7  90394371.67645  22075213.477                    22075221.633
 11  8 23  2 35 30.0000000  0  9G21G12G26G05G15G25G29G02G30
 131385866.006 6 102378693.79642  25001910.719                    25001921.512
 117415559.813 7  91492721.242 7  22343439.992                    22343448.738
 118510185.826 7  92345710.10044  22551743.500                    22551752.762
 109815963.865 8  85570982.115 7  20897263.625                    20897271.285
 122890385.858 7  95758797.882 6  23385262.711                    23385271.953
 114655925.107 8  89342333.133 7  21818298.453                    21818308.953
 113954058.020 8  88795428.953 7  21684737.320                    21684744.770
 116297873.142 7  90621842.56545  22130729.430                    22130735.848
 116051201.629 8  90429442.65445  22083777.992                    22083786.750
 11  8 23  2 36  0.0000000  0  9G21G12G26G05G15G25G29G02G30
 131330250.470 6 102335357.15842  24991327.109                    24991338.039
 117498798.556 7  91557582.573 7  22359279.789                    22359289.027
 118427821.692 7  92281530.31244  22536070.430                    22536079.258
 109871821.797 8  85614507.775 7  20907892.797                    20907900.691
 122794650.040 7  95684198.596 6  23367044.523                    23367053.508
 114690485.996 8  89369263.693 7  21824875.516                    21824885.633
 113880759.060 8  88738312.911 7  21670788.469                    21670796.879
 116340747.707 7  90655251.31745  22138889.234                    22138894.742
 116096672.926 7  90464874.80945  22092431.188                    22092440.301
 11  8 23  2 36 30.0000000  0  9G21G12G26G05G15G25G29G02G30
 131274630.452 6 102292016.95942  24980743.352                    24980753.785
 117582287.742 7  91622639.051 7  22375166.961                    22375175.965
 118345759.584 7  92217585.84045  22520454.352                    22520462.527
 109928059.096 8  85658329.039 7  20918594.492                    20918601.992
 122698968.750 7  95609641.801 6  23348836.914                    23348846.422
 114725542.233 8  89396580.223 7  21831546.047                    21831557.145
 113807666.501 8  88681357.691 7  21656879.063                    21656887.660
 116383708.597 7  90688727.35045  22147064.445                    22147069.852
 116142605.227 8  90500666.20645  22101171.625                    22101180.164
 11  8 23  2 37  0.0000000  0  9G21G12G26G05G15G25G29G02G30
 131219005.704 6 102248673.10642  24970157.773                    24970168.297
 117666024.976 7  91687888.810 7  22391102.195                    22391111.176
 118264003.615 7  92153879.93244  22504896.797                    22504905.234
 109984674.101 8  85702444.632 7  20929368.289                    20929375.676
 122603345.571 7  95535130.282 6  23330640.625                    23330650.180
 114761092.214 8  89424281.483 7  21838311.203                    21838321.957
 113734783.289 8  88624565.597 7  21643010.648                    21643018.371
 116426756.146 7  90722270.90345  22155255.914                    22155261.523
 116188996.403 7  90536815.15745  22109999.633                    22110008.254
 11  8 23  2 37 30.0000000  0  9G21G12G26G05G15G25G29G02G30
 131163375.380 6 102205324.91842  24959572.125                    24959582.086
 117750006.616 7  91753329.043 7  22407082.961                    22407092.199
 118182556.922 7  92090415.03444  22489397.953                    22489406.914
 110041663.818 8  85746852.215 7  20940212.969                    20940219.961
 122507782.999 7  95460665.996 6  23312455.242                    23312464.395
 114797133.500 8  89452365.583 7  21845169.563                    21845180.410
 113662111.523 8  88567938.274 7  21629181.203                    21629189.078
 116469890.464 7  90755882.06345  22163463.703                    22163469.773
 116235843.500 7  90573319.36845  22118914.281                    22118922.934
 11  8 23  2 38  0.0000000  0  9G21G12G26G05G15G25G29G02G30
 131107739.178 6 102161972.14742  24948983.875                    24948994.859
 117834229.860 7  91818957.516 7  22423110.164                    22423119.316
 118101423.384 7  92027194.13445  22473958.516                    22473967.875
 110099025.878 8  85791549.923 7  20951128.109                    20951136.109
 122412283.981 7  95386251.253 6  23294282.828                    23294291.246
 114833664.216 8  89480831.058 7  21852121.016                    21852131.941
 113589653.218 8  88511477.271 7  21615393.094                    21615401.086
 116513111.763 7  90789561.01545  22171689.109                    22171695.016
 116283144.094 8  90610176.95345  22127915.086                    22127924.488
 11  8 23  2 38 30.0000000  0  9G21G12G26G05G15G25G29G02G30
 131052096.262 6 102118614.13942  24938395.758                    24938406.066
 117918691.198 7  91884771.524 7  22439182.773                    22439191.527
 118020606.476 7  91964219.94845  22458579.766                    22458588.625
 110156757.923 8  85836535.938 7  20962114.523                    20962121.688
 122316851.674 7  95311888.501 6  23276121.977                    23276130.719
 114870682.257 8  89509676.279 7  21859165.727                    21859176.449
 113517410.889 8  88455184.578 7  21601645.516                    21601653.648
 116556420.461 7  90823308.07045  22179930.023                    22179936.211
 116330895.577 7  90647385.88245  22137001.719                    22137011.156
 11  8 23  2 39  0.0000000  0  9G21G12G26G05G15G25G29G02G30
 130996446.083 6 102075250.39742  24927806.594                    24927815.609
 118003387.684 7  91950768.772 7  22455300.367                    22455308.059
 117940110.026 7  91901495.49445  22443261.383                    22443271.090
 110214857.486 8  85881808.320 7  20973170.320                    20973177.914
 122221489.199 7  95237580.172 6  23257975.758                    23257984.297
 114908185.636 8  89538899.677 7  21866302.047                    21866313.285
 113445386.724 8  88399061.894 7  21587940.008                    21587947.891
 116599816.646 7  90857123.28245  22188188.219                    22188194.063
 116379095.359 7  90684944.14445  22146174.070                    22146182.977
 11  8 23  2 39 30.0000000  0  9G21G12G26G05G15G25G29G02G30
 130940787.542 6 102031880.21943  24917214.867                    24917224.609
 118088315.545 7  92016946.325 7  22471461.281                    22471469.863
 117859936.812 7  91839022.90445  22428005.414                    22428014.270
 110273321.052 8  85927364.341 7  20984295.906                    20984303.000
 122126198.686 7  95163327.879 6  23239842.219                    23239850.723
 114946171.441 8  89568498.975 7  21873530.531                    21873541.680
 113373581.989 8  88343110.197 7  21574275.789                    21574283.828
 116643300.077 7  90891006.48545  22196462.727                    22196468.227
 116427740.094 8  90722849.11445  22155430.961                    22155439.418
 11  8 23  2 40  0.0000000  0  9G21G12G26G05G15G25G29G02G30
 130885120.898 6 101988503.72243  24906622.133                    24906632.063
 118173473.360 7  92083303.051 7  22487666.305                    22487674.605
 117780091.559 7  91776805.87245  22412810.664                    22412819.773
 110332148.000 8  85973203.519 7  20995489.688                    20995497.254
 122030984.441 7  95089134.999 6  23221723.383                    23221732.949
 114984638.684 8  89598473.440 7  21880850.711                    21880861.449
 113302000.763 8  88287332.649 7  21560654.320                    21560662.223
 116686871.902 7  90924958.59545  22204754.297                    22204760.238
 116476828.268 7  90761099.61145  22164771.969                    22164780.887
 11  8 23  2 40 30.0000000  0  9G21G12G26G05G15G25G29G02G30
 130829445.141 6 101945120.11843  24896026.563                    24896036.512
 118258857.030 7  92149835.755 7  22503914.633                    22503922.742
 117700577.420 7  91714846.84245  22397680.188                    22397688.781
 110391335.138 8  86019323.360 7  21006753.141                    21006760.406
 121935849.115 7  95015003.619 6  23203619.484                    23203629.094
 115023584.891 8  89628821.112 7  21888261.977                    21888272.559
 113230644.907 8  88231730.705 7  21547075.680                    21547084.043
 116730532.158 7  90958979.55845  22213062.203                    22213068.434
 116526356.784 7  90799693.25045  22174196.789                    22174205.621
 11  8 23  2 41  0.0000000  0  9G21G12G26G05G15G25G29G02G30
 130773759.847 6 101901729.10543  24885430.328                    24885440.387
 118344463.701 7  92216542.220 7  22520204.766                    22520213.195
 117621398.280 7  91653148.83845  22382612.789                    22382621.602
 110450879.954 8  86065721.902 7  21018084.125                    21018091.863
 121840795.615 7  94940935.976 6  23185531.031                    23185541.293
 115063007.896 8  89659540.335 7  21895763.961                    21895774.730
 113159516.652 8  88176306.111 7  21533540.383                    21533548.496
 116774280.919 7  90993069.51745  22221387.938                    22221393.242
 116576323.148 7  90838628.05045  22183705.805                    22183713.918
 11  8 23  2 41 30.0000000  0  9G21G12G26G05G15G25G29G02G30
 130718064.578 6 101858330.32643  24874831.719                    24874842.254
 118430290.302 7  92283420.064 7  22536537.133                    22536545.270
 117542557.610 7  91591714.58245  22367609.117                    22367618.379
 110510780.345 8  86112397.529 7  21029482.719                    21029489.625
 121745826.776 7  94866934.334 6  23167459.602                    23167468.535
 115102905.637 8  89690629.464 7  21903356.359                    21903366.586
 113088618.093 8  88121060.499 7  21520049.148                    21520057.121
 116818119.045 7  91027229.09845  22229729.883                    22229735.344
 116626724.638 7  90877901.92345  22193296.672                    22193305.375
 11  8 23  2 42  0.0000000  0  9G21G12G26G05G15G25G29G02G30
 130662358.681 6 101814923.29843  24864231.531                    24864241.359
 118516333.689 7  92350466.844 7  22552910.703                    22552918.613
 117464058.990 7  91530546.86145  22352672.195                    22352681.141
 110571033.614 8  86159348.136 7  21040948.625                    21040956.125
 121650945.859 7  94793001.196 6  23149404.117                    23149413.273
 115143275.818 8  89722086.740 7  21911038.375                    21911049.461
 113017952.088 8  88065996.112 7  21506601.500                    21506609.281
 116862046.379 8  91061458.21845  22238088.820                    22238094.883
 116677558.526 7  90917512.71545  22202970.094                    22202978.641
 11  8 23  2 42 30.0000000  0  9G21G12G26G05G15G25G29G02G30
 130606641.140 6 101771507.12243  24853627.703                    24853638.504
 118602590.356 7  92417679.823 7  22569324.711                    22569332.824
 117385905.577 7  91469648.11745  22337799.633                    22337808.902
 110631637.036 8  86206571.565 7  21052481.492                    21052488.199
 121556155.658 7  94719138.776 6  23131365.648                    23131375.578
 115184115.885 8  89753910.156 7  21918809.813                    21918820.336
 112947520.110 8  88011114.067 7  21493199.023                    21493206.711
 116906063.396 7  91095757.21545  22246464.938                    22246470.934
 116728821.678 7  90957458.02945  22212724.719                    22212733.645
 11  8 23  2 43  0.0000000  0  9G21G12G26G05G15G25G29G02G30
 130550911.987 6 101728081.96043  24843022.633                    24843033.273
 118689058.052 7  92485057.244 7  22585778.969                    22585787.090
 117308101.613 7  91409021.69045  22322994.164                    22323003.027
 110692588.627 8  86254066.313 7  21064079.867                    21064087.355
 121461459.377 7  94645349.531 6  23113346.953                    23113355.418
 115225424.137 8  89786098.405 7  21926670.750                    21926681.617
 112877325.027 8  87956416.630 7  21479841.148                    21479848.910
 116950170.456 7  91130126.34945  22254858.375                    22254864.555
 116780511.966 7  90997736.14045  22222561.836                    22222570.176
 11  8 23  2 43 30.0000000  0  9G21G12G26G05G15G25G29G02G30
 130495170.530 6 101684647.11243  24832415.859                    24832426.152
 118775733.497 7  92552596.526 7  22602272.633                    22602281.094
 117230650.674 7  91348670.34244  22308255.773                    22308264.297
 110753885.879 8  86301830.414 7  21075744.172                    21075751.645
 121366860.335 7  94571636.071 6  23095344.789                    23095353.633
 115267198.285 8  89818649.691 7  21934619.891                    21934630.871
 112807369.345 8  87901905.748 7  21466529.172                    21466537.031
 116994367.697 8  91164565.76545  22263268.750                    22263274.602
 116832626.604 7  91038344.92545  22232478.820                    22232486.973
 11  8 23  2 44  0.0000000  0  9G21G12G26G05G15G25G29G02G30
 130439416.399 6 101641202.51243  24821806.828                    24821816.547
 118862613.652 7  92620295.328 7  22618805.648                    22618814.246
 117153556.314 7  91288596.84145  22293585.656                    22293593.785
 110815526.449 8  86349862.052 7  21087474.141                    21087481.602
 121272361.428 7  94498000.626 6  23077362.227                    23077371.004
 115309436.148 8  89851562.294 7  21942657.570                    21942668.270
 112737655.439 8  87847583.259 7  21453262.758                    21453270.488
 117038655.462 7  91199075.73545  22271696.258                    22271702.324
 116885162.930 7  91079282.32045  22242475.484                    22242484.453
 11  8 23  2 44 30.0000000  0  9G21G12G26G05G15G25G29G02G30
 130383648.655 6 101597747.24743  24811193.523                    24811204.199
 118949695.105 7  92688150.977 7  22635377.227                    22635385.340
 117076822.150 7  91228804.02345  22278983.039                    22278991.801
 110877507.733 8  86398159.162 7  21099268.734                    21099276.176
 121177965.825 7  94424445.673 6  23059399.234                    23059407.598
 115352135.346 8  89884834.402 7  21950783.344                    21950794.000
 112668185.360 8  87793450.757 7  21440043.328                    21440051.309
 117083034.204 7  91233656.59845  22280141.297                    22280147.254
 116938118.025 7  91120545.99945  22252552.195                    22252561.297
 11  8 23  2 45  0.0000000  0  9G21G12G26G05G15G25G29G02G30
 130327866.863 6 101554281.02443  24800578.844                    24800588.484
 119036975.102 7  92756161.335 7  22651985.188                    22651993.977
 117000451.463 7  91169294.44244  22264450.797                    22264458.703
 110939827.128 8  86446719.737 7  21111128.000                    21111135.160
 121083676.315 7  94350973.372 6  23041456.234                    23041465.086
 115395293.574 8  89918464.191 7  21958995.914                    21959006.227
 112598961.787 8  87739510.353 7  21426870.266                    21426878.199
 117127504.497 7  91268308.76145  22288603.594                    22288609.789
 116991489.188 7  91162133.89645  22262709.164                    22262717.656
 11  8 23  2 45 30.0000000  0  9G21G12G26G05G15G25G29G02G30
 130272070.408 6 101510803.39343  24789960.750                    24789970.922
 119124450.193 7  92824323.711 7  22668631.391                    22668640.055
 116924448.039 7  91110071.03745  22249986.961                    22249995.934
 111002482.116 8  86495541.800 7  21123050.547                    21123057.648
 120989495.902 7  94277586.110 6  23023534.336                    23023543.125
 115438908.458 8  89952449.804 7  21967295.367                    21967306.391
 112529986.829 8  87685763.674 7  21413744.664                    21413752.863
 117172066.174 7  91303032.16145  22297083.914                    22297089.434
 117045273.473 7  91204043.71145  22272944.070                    22272953.008
 11  8 23  2 46  0.0000000  0  9G21G12G26G05G15G25G29G02G30
 130216258.986 6 101467314.12043  24779340.367                    24779350.359
 119212118.021 7  92892636.264 7  22685314.469                    22685322.445
 116848815.717 7  91051136.80144  22235594.797                    22235603.336
 111065470.785 8  86544623.900 7  21135037.078                    21135044.383
 120895428.381 7  94204286.820 6  23005633.852                    23005643.121
 115482977.933 8  89986789.656 7  21975681.453                    21975692.242
 112461263.181 8  87632212.804 7  21400667.281                    21400675.160
 117216720.020 7  91337827.39745  22305581.203                    22305586.840
 117099468.455 7  91246273.54245  22283256.664                    22283265.523
 11  8 23  2 46 30.0000000  0  9G21G12G26G05G15G25G29G02G30
 130160431.930 7 101423812.64943  24768717.156                    24768726.203
 119299974.782 7  92961096.040 7  22702032.891                    22702040.742
 116773557.670 7  90992494.20044  22221273.836                    22221282.320
 111128790.196 8  86593963.703 7  21147086.188                    21147093.695
 120801476.075 7  94131077.312 6  22987755.141                    22987764.727
 115527499.428 8  90021481.730 7  21984153.672                    21984164.852
 112392792.863 8  87578859.344 7  21387637.492                    21387645.711
 117261466.105 7  91372694.49045  22314095.992                    22314101.563
 117154071.040 7  91288820.97045  22293647.391                    22293656.020
 11  8 23  2 47  0.0000000  0  9G21G12G26G05G15G25G29G02G30
 130104588.626 6 101380298.47943  24758091.023                    24758099.379
 119388017.393 7  93029700.642 7  22718786.672                    22718795.156
 116698677.462 7  90934146.03045  22207024.508                    22207032.855
 111192437.705 8  86643559.176 7  21159198.148                    21159205.609
 120707642.267 7  94057960.092 6  22969899.250                    22969907.941
 115572470.528 8  90056524.139 7  21992711.609                    21992722.141
 112324578.321 8  87525705.200 7  21374656.867                    21374664.918
 117306304.630 7  91407633.60145  22322627.828                    22322634.523
 117209078.316 7  91331683.77845  22304114.781                    22304123.906
 11  8 23  2 47 30.0000000  0  9G21G12G26G05G15G25G29G02G30
 130048728.588 6 101336771.23642  24747459.500                    24747468.773
 119476243.135 7  93098447.940 7  22735575.141                    22735584.051
 116624178.654 7  90876095.04445  22192847.836                    22192856.176
 111256411.318 8  86693408.750 7  21171371.984                    21171379.293
 120613930.157 7  93984937.710 6  22952066.648                    22952076.070
 115617888.980 8  90091915.133 7  22001354.148                    22001364.934
 112256622.067 8  87472752.307 7  21361725.344                    21361733.227
 117351236.228 7  91442645.24345  22331178.406                    22331184.621
 117264487.557 7  91374859.79845  22314659.141                    22314667.875
 11  8 23  2 48  0.0000000  0  9G21G12G26G05G15G25G29G02G30
 129992851.614 6 101293230.81743  24736826.703                    24736835.992
 119564649.124 7  93167335.686 6  22752398.398                    22752407.027
 116550065.192 7  90818344.32445  22178743.914                    22178753.145
 111320708.710 8  86743510.619 7  21183607.125                    21183614.398
 120520342.828 7  93912012.582 6  22934257.633                    22934266.625
 115663752.708 8  90127653.122 7  22010081.805                    22010092.410
 112188926.741 8  87420002.749 7  21348843.031                    21348850.891
 117396261.330 7  91477729.74245  22339746.633                    22339752.574
 117320296.327 7  91418347.11645  22325279.289                    22325288.387
 11  8 23  2 48 30.0000000  0 10G21G12G26G05G15G25G29G02G30G18
 129936956.785 6 101249676.52043  24726190.734                    24726199.637
 119653231.869 7  93236361.184 6  22769255.266                    22769263.379
 116476340.299 7  90760896.37645  22164714.945                    22164724.199
 111385327.044 8  86793862.587 7  21195903.086                    21195910.980
 120426883.560 7  93839187.233 6  22916472.656                    22916481.445
 115710058.982 8  90163735.938 7  22018893.781                    22018904.785
 112121494.280 8  87367458.024 7  21336011.102                    21336019.066
 117441380.305 7  91512887.39645  22348332.070                    22348338.195
 117376501.432 7  91462143.28745  22335974.359                    22335983.344
 129561975.19215                  24654838.922
 11  8 23  2 49  0.0000000  0 10G21G12G26G05G15G25G29G02G30G18
 129881043.240 6 101206107.58343  24715550.508                    24715559.801
 119741987.825 7  93305521.662 6  22786144.867                    22786153.430
 116403006.853 7  90703753.46745  22150760.164                    22150768.973
 111450263.343 8  86844462.300 7  21208260.305                    21208268.105
 120333554.724 7  93766463.524 6  22898712.742                    22898721.098
 115756804.971 8  90200161.360 7  22027788.953                    22027800.141
 112054326.886 8  87315119.831 7  21323229.875                    21323237.461
 117486592.989 7  91548118.06545  22356935.523                    22356941.898
 117433099.450 7  91506245.62845  22346744.781                    22346753.648
 129472947.524 5                  24637898.172
 11  8 23  2 49 30.0000000  0 10G21G12G26G05G15G25G29G02G30G18
 129825110.348 6 101162523.59343  24704906.180                    24704916.102
 119830914.141 7  93374814.873 7  22803067.305                    22803075.977
 116330068.560 7  90646918.46045  22136880.141                    22136888.820
 111515515.170 8  86895307.899 7  21220677.688                    21220684.684
 120240359.347 7  93693843.802 6  22880978.414                    22880987.070
 115803988.109 8  90236927.460 7  22036767.969                    22036778.945
 111987426.605 8  87262989.794 7  21310498.758                    21310506.773
 117531899.621 7  91583421.94545  22365557.406                    22365563.773
 117490087.611 7  91550651.97245  22357589.156                    22357597.707
 129384086.855 5                  24620989.422
 11  8 23  2 50  0.0000000  0 10G21G12G26G05G15G25G29G02G30G18
 129769158.271 6 101118924.71543  24694259.305                    24694268.137
 119920008.069 7  93444238.681 7  22820021.422                    22820030.137
 116257529.548 7  90590394.59745  22123076.953                    22123085.438
 111581080.598 8  86946397.862 7  21233153.914                    21233161.621
 120147301.023 7  93621330.887 7  22863269.648                    22863278.496
 115851606.687 8  90274032.860 7  22045828.961                    22045840.402
 111920796.757 8  87211070.489 7  21297819.492                    21297827.238
 117577301.188 7  91618799.77945  22374197.180                    22374203.238
 117547463.645 7  91595360.55845  22368507.000                    22368516.719
 129295395.141 5                  24604110.930
 11  8 23  2 50 30.0000000  0 10G21G12G26G05G15G25G29G02G30G18
 129713186.466 6 101075310.38443  24683608.250                    24683617.578
 120009266.474 7  93513790.653 7  22837006.813                    22837015.152
 116185393.060 7  90534184.41245  22109349.445                    22109358.133
 111646957.095 8  86997730.211 7  21245690.148                    21245697.461
 120054382.999 7  93548927.283 6  22845587.625                    22845596.574
 115899658.132 8  90311475.557 7  22054973.141                    22054983.691
 111854439.400 8  87159363.499 7  21285192.094                    21285199.656
 117622797.956 7  91654251.81045  22382855.266                    22382860.930
 117605224.542 7  91640369.02945  22379499.180                    22379507.965
 129206873.967 5                  24587266.773
 11  8 23  2 51  0.0000000  0 10G21G12G26G05G15G25G29G02G30G18
 129657194.929 6 101031680.73943  24672953.016                    24672963.391
 120098687.153 7  93583469.067 6  22854022.578                    22854030.855
 116113663.545 7  90478291.32945  22095699.328                    22095708.438
 111713143.270 8  87049303.861 7  21258284.773                    21258292.152
 119961608.952 7  93476635.870 7  22827933.320                    22827942.027
 115948140.634 8  90349254.133 7  22064199.188                    22064210.188
 111788357.724 8  87107871.332 7  21272617.102                    21272624.902
 117668390.687 7  91689778.59445  22391531.023                    22391537.441
 117663368.019 7  91685675.63144  22390563.703                    22390571.465
 129118525.87714                  24570453.039
 11  8 23  2 51 30.0000000  0  9G21G12G26G05G15G25G29G02G30
 129601182.720 6 100988034.99343  24662294.641                    24662303.555
 120188266.678 7  93653271.254 6  22871069.695                    22871077.863
 116042343.743 8  90422717.51845  22082128.242                    22082136.699
 111779636.001 8  87101116.382 7  21270937.906                    21270945.191
 119868981.501 7  93404458.696 6  22810306.383                    22810315.832
 115997051.350 8  90387366.375 7  22073506.555                    22073517.992
 111722553.624 8  87056595.453 7  21260095.078                    21260102.691
 117714080.180 7  91725380.79545  22400225.641                    22400231.047
 117721890.930 7  91731277.89945  22401700.320                    22401709.098
 11  8 23  2 52  0.0000000  0  9G21G12G26G05G15G25G29G02G30
 129545149.069 6 100944372.49943  24651631.484                    24651640.563
 120278001.224 7  93723194.261 6  22888145.070                    22888154.133
 115971436.803 7  90367465.41045  22068634.664                    22068643.738
 111846431.757 8  87153165.033 7  21283648.906                    21283656.070
 119776503.576 7  93332397.998 7  22792709.156                    22792717.254
 116046386.998 8  90425809.736 7  22082894.422                    22082905.668
 111657028.930 8  87005537.310 7  21247626.109                    21247633.742
 117759865.708 7  91761057.82245  22408938.227                    22408943.680
 117780789.495 7  91777172.88145  22412907.828                    22412916.855
 11  8 23  2 52 30.0000000  0  9G21G12G26G05G15G25G29G02G30
 129489093.281 6 100900692.80143  24640963.633                    24640973.582
 120367887.844 7  93793235.759 6  22905249.719                    22905258.332
 115900946.489 7  90312537.94945  22055220.617                    22055229.879
 111913528.676 8  87205448.350 7  21296417.000                    21296424.293
 119684178.225 7  93260456.226 7  22775140.297                    22775148.840
 116096145.482 8  90464582.593 7  22092363.203                    22092374.188
 111591786.198 8  86954698.864 7  21235210.625                    21235218.578
 117805748.154 7  91796810.35845  22417669.547                    22417674.996
 117840061.175 7  91823358.60445  22424186.945                    22424196.043
 11  8 23  2 53  0.0000000  0  9G21G12G26G05G15G25G29G02G30
 129433015.098 6 100856995.59843  24630293.477                    24630301.961
 120457923.546 7  93863393.406 6  22922383.422                    22922391.777
 115830875.997 7  90257937.61845  22041886.898                    22041895.391
 111980924.194 8  87257964.346 7  21309242.055                    21309249.156
 119592008.585 7  93188635.802 7  22757601.063                    22757610.016
 116146324.160 8  90503682.855 7  22101912.164                    22101922.676
 111526827.962 8  86904082.108 7  21222849.609                    21222857.391
 117851727.766 7  91832638.61145  22426418.977                    22426424.320
 117899703.037 7  91869832.76745  22435536.586                    22435546.359
 11  8 23  2 53 30.0000000  0  9G21G12G26G05G15G25G29G02G30
 129376913.982 6 100813280.53843  24619616.969                    24619625.625
 120548105.066 7  93933664.666 7  22939544.352                    22939553.359
 115761228.661 7  90203667.03545  22028633.125                    22028642.430
 112048615.689 8  87310710.975 7  21322123.469                    21322130.574
 119499997.543 7  93116938.966 7  22740091.445                    22740100.223
 116196920.319 8  90543108.442 7  22111540.180                    22111550.582
 111462156.399 8  86853688.715 7  21210542.984                    21210550.879
 117897804.603 7  91868542.62345  22435186.906                    22435192.992
 117959711.900 7  91916592.92845  22446955.977                    22446964.914
 11  8 23  2 54  0.0000000  0  9G21G12G26G05G15G25G29G02G30
 129320789.316 6 100769547.15043  24608936.602                    24608946.227
 120638429.422 7  94004047.235 7  22956732.641                    22956740.977
 115692007.839 7  90149728.79645  22015460.813                    22015469.816
 112116600.872 8  87363686.454 7  21335060.203                    21335067.586
 119408148.235 7  93045368.148 7  22722612.789                    22722622.051
 116247931.410 8  90582857.342 7  22121247.383                    22121258.285
 111397773.600 8  86803520.335 7  21198291.227                    21198298.898
 117943979.147 7  91904522.77545  22443973.656                    22443979.391
 118020084.780 7  91963636.71345  22458444.680                    22458453.332
 11  8 23  2 54 30.0000000  0  9G21G12G26G05G15G25G29G02G30
 129264641.105 6 100725795.46043  24598251.664                    24598261.469
 120728894.231 7  94074539.256 6  22973947.313                    22973955.660
 115623217.738 7  90096126.17045  22002370.734                    22002379.895
 112184877.966 8  87416889.397 7  21348052.844                    21348060.164
 119316464.471 7  92973926.324 6  22705166.063                    22705174.461
 116299355.557 8  90622928.106 7  22131033.375                    22131043.895
 111333682.830 8  86753579.516 7  21186095.289                    21186103.230
 117990252.339 8  91940579.79445  22452779.555                    22452784.879
 118080819.435 7  92010962.41445  22470001.609                    22470010.559
 11  8 23  2 55  0.0000000  0  9G21G12G26G05G15G25G29G02G30
 129208468.534 6 100682024.73443  24587562.367                    24587572.000
 120819495.768 7  94145137.836 6  22991188.133                    22991196.590
 115554861.305 7  90042861.48545  21989362.977                    21989372.195
 112253443.921 8  87470317.430 7  21361100.383                    21361107.867
 119224949.086 7  92902615.684 6  22687751.586                    22687759.590
 116351189.735 8  90663318.365 7  22140897.023                    22140907.578
 111269886.332 8  86703867.996 7  21173954.906                    21173963.145
 118036624.735 7  91976714.12045  22461603.906                    22461609.367
 118141912.476 7  92058567.37845  22481627.703                    22481636.672
 11  8 23  2 55 30.0000000  0  9G21G12G26G05G15G25G29G02G30
 129152270.789 6 100638234.37643  24576868.789                    24576877.152
 120910230.852 7  94215840.483 7  23008454.398                    23008463.168
 115486941.506 7  89989937.03445  21976438.336                    21976447.230
 112322295.589 8  87523968.094 7  21374202.297                    21374209.816
 119133604.734 7  92831438.324 6  22670368.969                    22670377.836
 116403430.905 8  90704025.751 7  22150838.172                    22150848.734
 111206385.903 8  86654387.176 7  21161871.242                    21161879.680
 118083096.034 7  92012925.50345  22470446.828                    22470452.199
 118203360.464 7  92106448.91645  22493320.820                    22493329.414
 11  8 23  2 56  0.0000000  0  9G21G12G26G05G15G25G29G02G30
 129096047.933 7 100594424.47843  24566169.977                    24566179.078
 121001096.801 7  94286645.087 6  23025746.117                    23025754.699
 115419462.300 8  89937355.89445  21963597.305                    21963606.219
 112391431.209 8  87577840.006 7  21387358.664                    21387366.578
 119042434.841 7  92760396.923 7  22653020.344                    22653028.707
 116456076.914 8  90745048.594 7  22160856.508                    22160866.438
 111143184.812 8  86605139.603 7  21149844.375                    21149852.520
 118129666.891 7  92049214.47845  22479309.211                    22479315.031
 118265160.776 7  92154604.98145  22505081.273                    22505089.590
 11  8 23  2 56 30.0000000  0 10G21G12G26G05G15G25G29G02G30G18
 129039798.567 6 100550593.94843  24555465.930                    24555474.891
 121092089.806 7  94357548.711 6  23043061.508                    23043070.301
 115352426.383 7  89885120.17345  21950840.734                    21950848.996
 112460847.650 8  87631930.752 7  21400568.188                    21400575.695
 118951441.737 7  92689493.241 7  22635705.094                    22635713.168
 116509124.259 8  90786384.190 7  22170950.742                    22170961.355
 111080283.832 8  86556125.876 7  21137875.109                    21137882.977
 118176337.266 7  92085580.99445  22488190.250                    22488195.777
 118327309.614 7  92203032.64945  22516907.313                    22516916.629
 128158364.47515                  24387740.563
 11  8 23  2 57  0.0000000  0 10G21G12G26G05G15G25G29G02G30G18
 128983522.930 6 100506742.91243  24544756.406                    24544765.344
 121183207.206 7  94428549.256 6  23060400.813                    23060409.031
 115285837.433 8  89833232.72545  21938169.023                    21938178.063
 112530543.147 8  87686238.943 7  21413830.852                    21413838.359
 118860629.315 7  92618730.351 7  22618423.359                    22618432.145
 116562571.157 8  90828031.101 7  22181121.320                    22181132.227
 111017686.347 8  86507348.643 7  21125962.688                    21125970.813
 118223108.084 7  92122025.79345  22497090.281                    22497096.422
 118389804.791 7  92251730.17645  22528800.070                    22528808.488
 128072171.312 5                  24371338.141
 11  8 23  2 57 30.0000000  0 10G21G12G26G05G15G25G29G02G30G18
 128927220.652 6 100462871.09943  24534043.063                    24534050.824
 121274446.328 7  94499644.651 6  23077762.727                    23077771.746
 115219699.006 8  89781696.35045  21925583.195                    21925592.090
 112600515.134 8  87740762.578 7  21427146.172                    21427153.484
 118770000.695 7  92548110.683 6  22601177.492                    22601185.660
 116616414.863 8  90869987.222 7  22191367.711                    22191378.363
 110955394.998 8  86458809.947 7  21114109.195                    21114116.984
 118269979.602 7  92158549.04945  22506009.828                    22506015.742
 118452643.272 7  92300695.22145  22540758.039                    22540767.035
 127986165.706 5                  24354972.836
 11  8 23  2 58  0.0000000  0 10G21G12G26G05G15G25G29G02G30G18
 128870891.125 6 100418978.05243  24523323.656                    24523331.594
 121365803.742 7  94570832.210 6  23095147.391                    23095155.902
 115154014.012 7  89730513.29945  21913083.531                    21913091.863
 112670760.682 8  87795499.387 7  21440513.195                    21440520.797
 118679558.851 7  92477636.559 7  22583966.906                    22583975.816
 116670652.390 8  90912250.221 7  22201688.383                    22201698.996
 110893411.572 7  86410511.200 7  21102314.461                    21102322.051
 118316952.381 7  92195151.22045  22514948.336                    22514954.602
 118515821.617 7  92349925.07545  22552780.086                    22552789.496
 127900348.258 6                  24338641.055
 11  8 23  2 58 30.0000000  0 10G21G12G26G05G15G25G29G02G30G18
 128814533.987 6 100375063.51643  24512598.648                    24512607.594
 121457276.496 7  94642109.648 6  23112554.570                    23112562.973
 115088786.173 7  89679686.44945  21900671.109                    21900679.809
 112741277.234 8  87850447.370 7  21453931.945                    21453939.836
 118589307.045 7  92407310.522 7  22566792.508                    22566801.418
 116725281.302 8  90954818.187 7  22212083.961                    22212095.078
 110831738.788 8  86362454.489 7  21090578.406                    21090585.926
 118364026.882 7  92231832.64345  22523906.648                    22523912.461
 118579337.062 7  92399417.59345  22564866.367                    22564875.887
 127814720.779 6                  24322346.570
 11  8 23  2 59  0.0000000  0 10G21G12G26G05G15G25G29G02G30G18
 128758148.827 7 100331127.17643  24501869.367                    24501877.637
 121548861.899 7  94713474.857 6  23129982.859                    23129990.742
 115024018.890 7  89629218.50945  21888346.063                    21888355.277
 112812063.262 8  87905605.325 7  21467402.211                    21467409.535
 118499248.524 7  92337135.126 7  22549655.109                    22549663.672
 116780299.129 8  90997689.211 7  22222553.578                    22222564.211
 110770379.446 8  86314642.032 7  21078901.703                    21078909.918
 118411203.786 7  92268593.85745  22532883.313                    22532889.949
 118643186.786 7  92449170.60845  22577016.656                    22577025.672
 127729284.638 6                  24306088.422
 11  8 23  2 59 30.0000000  0 10G21G12G26G05G15G25G29G02G30G18
 128701734.909 6 100287168.39143  24491133.914                    24491142.066
 121640556.780 7  94784925.372 6  23147431.242                    23147440.371
 114959715.693 7  89579112.17045  21876109.813                    21876118.789
 112883115.924 8  87960971.052 7  21480922.984                    21480930.656
 118409386.435 7  92267112.736 7  22532554.156                    22532563.250
 116835703.098 8  91040861.107 7  22233096.695                    22233107.941
 110709335.516 7  86267075.350 7  21067285.711                    21067293.328
 118458483.327 7  92305435.02145  22541880.570                    22541886.625
 118707367.634 7  92499181.63345  22589230.047                    22589239.191
 127644041.236 6                  24289867.164
 11  8 23  3  0  0.0000000  0 10G21G12G26G05G15G25G29G02G30G18
 128645292.305 6 100243187.25943  24480393.555                    24480401.750
 121732358.133 7  94856458.862 6  23164900.422                    23164909.227
 114895879.435 7  89529369.68545  21863962.727                    21863970.816
 112954432.753 8  88016542.627 7  21494494.039                    21494501.359
 118319723.769 7  92197245.763 7  22515492.266                    22515501.184
 116891490.461 8  91084331.752 7  22243712.516                    22243723.770
 110648609.677 7  86219756.516 7  21055730.086                    21055737.266
 118505866.000 7  92342356.56345  22550897.008                    22550903.211
 118771876.603 7  92549448.33945  22601506.047                    22601514.426
 127558990.976 6  99396709.54852  24273682.492                    24273691.719
 11  8 23  3  0 30.0000000  0 10G21G12G26G05G15G25G29G02G30G18
 128588820.226 6 100199183.17843  24469646.617                    24469655.234
 121824262.460 7  94928072.590 6  23182389.000                    23182398.332
 114832513.399 7  89479993.59845  21851903.891                    21851912.680
 113026011.308 8  88072318.147 7  21508115.320                    21508122.430
 118230263.637 7  92127536.616 7  22498468.539                    22498476.973
 116947658.246 8  91128098.834 7  22254400.898                    22254412.160
 110588203.855 8  86172687.052 7  21044235.180                    21044242.348
 118553352.244 7  92379358.82645  22559934.078                    22559940.020
 118836710.266 7  92599968.06745  22613843.453                    22613852.188
 127474134.935 6  99330588.19542  24257535.148                    24257545.422
 11  8 23  3  1  0.0000000  0 10G21G12G26G05G15G25G29G02G30G18
 128532318.458 6 100155155.96743  24458893.961                    24458903.297
 121916267.324 7  94999764.636 6  23199897.164                    23199906.258
 114769621.414 7  89430986.90245  21839936.523                    21839945.145
 113097849.547 8  88128296.016 7  21521785.617                    21521792.918
 118141009.560 7  92057988.009 7  22481484.203                    22481492.945
 117004204.304 7  91172160.677 7  22265161.070                    22265172.180
 110528121.233 8  86125869.440 7  21032801.813                    21032809.520
 118600942.789 7  92416442.35245  22568990.148                    22568995.832
 118901866.206 7  92650738.90944  22626241.992                    22626250.594
 127389474.974 6  99264619.47042  24241424.266                    24241434.883
 11  8 23  3  1 30.0000000  0 10G21G12G26G05G15G25G29G02G30G18
 128475786.858 6 100111105.47343  24448136.555                    24448145.176
 122008369.632 7  95071532.622 6  23217423.938                    23217432.621
 114707206.438 7  89382351.89345  21828059.258                    21828067.504
 113169944.822 8  88184474.172 7  21535504.641                    21535511.844
 118051964.795 7  91988602.537 7  22464539.633                    22464548.035
 117061125.755 7  91216515.027 7  22275993.070                    22276004.234
 110468364.016 8  86079305.410 7  21021430.344                    21021438.090
 118648637.932 7  92453607.37445  22578066.086                    22578072.051
 118967341.219 7  92701758.34644  22638701.750                    22638710.520
 127305012.092 5  99198804.41242  24225352.234                    24225362.305
 11  8 23  3  2  0.0000000  0 10G21G12G26G05G15G25G29G02G30G18
 128419224.435 6 100067030.96543  24437373.039                    24437381.215
 122100566.253 7  95143374.102 6  23234968.227                    23234977.148
 114645271.277 7  89334090.75545  21816273.367                    21816281.922
 113242294.275 8  88240850.389 7  21549272.211                    21549279.633
 117963131.727 7  91919382.023 7  22447635.047                    22447643.445
 117118419.523 8  91261159.493 7  22286896.086                    22286906.590
 110408934.247 8  86032996.530 7  21010121.063                    21010129.262
 118696437.957 7  92490854.11045  22587161.227                    22587168.285
 119033131.821 7  92753023.75044  22651221.070                    22651229.637
 127220747.030 5  99133143.47742  24209316.938                    24209326.910
 11  8 23  3  2 30.0000000  0 10G21G12G26G05G15G25G29G02G30G18
 128362630.664 6 100022932.02343  24426603.359                    24426612.426
 122192853.714 7  95215286.349 6  23252529.594                    23252539.488
 114583819.453 7  89286206.25445  21804578.633                    21804587.957
 113314895.464 8  88297422.760 7  21563087.734                    21563094.945
 117874513.521 7  91850328.901 7  22430771.484                    22430780.113
 117176082.523 7  91306091.687 7  22297868.781                    22297879.480
 110349833.929 8  85986944.360 7  20998874.734                    20998882.336
 118744343.456 7  92528183.03445  22596277.859                    22596284.156
 119099234.700 7  92804532.47545  22663799.492                    22663808.758
 127136680.660 5  99067637.35542  24193318.047                    24193329.555
 11  8 23  3  3  0.0000000  0 10G21G12G26G05G15G25G29G02G30G18
 128306005.418 6  99978808.61443  24415828.039                    24415837.160
 122285229.373 7  95287267.341 7  23270108.633                    23270118.590
 114522854.036 7  89238700.74745  21792977.461                    21792986.496
 113387746.118 8  88354189.518 7  21576950.844                    21576958.129
 117786113.566 7  91781445.862 7  22413949.773                    22413957.957
 117234112.453 7  91351309.792 7  22308911.250                    22308922.746
 110291065.854 8  85941151.078 7  20987691.461                    20987699.422
 118792354.751 7  92565594.40345  22605414.219                    22605420.305
 119165647.215 7  92856282.45245  22676437.813                    22676447.254
 127052814.384 5  99002287.08742  24177358.906                    24177370.156
 11  8 23  3  3 30.0000000  0 10G21G12G26G05G15G25G29G02G30G18
 128249348.090 6  99934660.16343  24405046.570                    24405055.152
 122377690.267 7  95359314.751 6  23287703.063                    23287713.004
 114462378.179 7  89191576.73945  21781469.633                    21781478.230
 113460843.364 8  88411148.426 7  21590860.680                    21590868.254
 117697935.144 7  91712735.466 7  22397169.422                    22397178.508
 117292506.263 7  91396811.444 7  22320023.570                    22320034.602
 110232632.274 8  85895618.454 7  20976572.148                    20976579.691
 118840472.239 7  92603088.52045  22614571.172                    22614577.191
 119232365.990 7  92908271.07945  22689134.398                    22689142.633
 126969149.287 5  98937093.51742  24161438.313                    24161449.945
 11  8 23  3  4  0.0000000  0 10G21G12G26G05G15G25G29G02G30G18
 128192658.250 6  99890486.41144  24394258.852                    24394267.770
 122470233.270 7  95431426.144 7  23305313.461                    23305323.160
 114402395.062 7  89144836.66745  21770055.063                    21770063.613
 113534185.347 8  88468298.040 7  21604817.203                    21604824.684
 117609981.194 7  91644199.954 7  22380432.945                    22380441.039
 117351261.379 8  91442594.629 7  22331204.469                    22331214.902
 110174535.653 8  85850348.390 7  20965516.078                    20965524.445
 118888696.659 7  92640665.94545  22623747.141                    22623754.098
 119299388.098 7  92960496.09644  22701887.828                    22701897.074
 126885686.43315  98872057.71952  24145554.398                    24145567.660
 11  8 23  3  4 30.0000000  0 10G21G12G26G05G15G25G29G02G30G18
 128135935.715 6  99846287.12043  24383464.281                    24383473.598
 122562855.655 7  95503599.384 6  23322939.133                    23322948.047
 114342908.143 7  89098483.23545  21758735.547                    21758743.625
 113607769.743 8  88525636.550 7  21618819.648                    21618827.266
 117522254.961 7  91575841.882 7  22363738.852                    22363746.934
 117410374.976 7  91488657.134 7  22342452.969                    22342464.066
 110116778.645 7  85805342.964 7  20954525.875                    20954533.316
 118937028.460 7  92678327.07045  22632945.039                    22632950.852
 119366710.392 7  93012955.01044  22714699.164                    22714707.863
 126802427.269 5                  24129711.531
 11  8 23  3  5  0.0000000  0 10G21G12G26G05G15G25G29G02G30G18
 128079179.858 6  99802061.92843  24372664.242                    24372673.426
 122655553.840 7  95575831.692 6  23340579.453                    23340587.844
 114283919.868 7  89052518.38245  21747510.203                    21747518.867
 113681593.218 8  88583161.348 7  21632867.594                    21632875.301
 117434758.912 7  91507663.206 7  22347088.961                    22347097.113
 117469843.683 7  91534996.365 7  22353770.125                    22353780.383
 110059362.850 7  85760603.412 7  20943599.719                    20943607.117
 118985467.661 7  92716071.87245  22642162.641                    22642168.645
 119434329.285 7  93065645.03944  22727566.477                    22727574.957
 126719371.752 5                  24113907.727
 11  8 23  3  5 30.0000000  0 10G21G12G26G05G15G25G29G02G30G18
 128022390.438 6  99757810.52743  24361857.563                    24361866.625
 122748324.916 7  95648120.798 6  23358232.656                    23358241.039
 114225433.992 7  89006945.00045  21736380.695                    21736389.344
 113755654.034 8  88640871.097 7  21646961.195                    21646969.234
 117347496.970 7  91439666.943 7  22330483.352                    22330492.289
 117529664.995 7  91581610.354 7  22365153.695                    22365164.406
 110002290.955 8  85716131.830 7  20932739.266                    20932746.875
 119034014.809 7  92753900.79245  22651401.211                    22651406.914
 119502242.070 7  93118564.07744  22740489.961                    22740498.809
 126636521.757 6                  24098141.531
 11  8 23  3  6  0.0000000  0 10G21G12G26G05G15G25G29G02G30G18
 127965566.688 7  99713532.33644  24351044.688                    24351052.434
 122841165.919 7  95720464.394 6  23375899.688                    23375908.453
 114167453.032 7  88961765.06245  21725346.969                    21725355.594
 113829949.469 8  88698763.650 7  21661099.477                    21661107.004
 117260471.539 7  91371854.970 7  22313922.547                    22313932.113
 117589835.897 7  91628496.752 7  22376603.555                    22376614.508
 109945565.020 8  85671929.833 7  20921944.664                    20921952.145
 119082670.345 7  92791814.18145  22660659.523                    22660665.906
 119570445.295 7  93171709.41944  22753468.656                    22753477.750
 126553877.864 6                  24082414.984
 11  8 23  3  6 30.0000000  0 10G21G12G26G05G15G25G29G02G30G18
 127908708.550 7  99669227.38944  24340224.820                    24340233.516
 122934073.897 6  95792860.169 6  23393579.617                    23393588.324
 114109980.295 7  88916981.13145  21714410.523                    21714418.824
 113904477.165 8  88756837.202 7  21675281.359                    21675288.859
 117173685.932 7  91304229.863 7  22297408.047                    22297416.000
 117650353.775 7  91675653.510 7  22388119.703                    22388130.070
 109889187.687 8  85627999.457 7  20911216.117                    20911223.973
 119131434.861 7  92829812.49244  22669939.539                    22669945.383
 119638936.054 7  93225078.84044  22766501.688                    22766510.457
 126471441.180 6  98549259.70853  24066727.453                    24066736.074
 11  8 23  3  7  0.0000000  0 10G21G12G26G05G15G25G29G02G30G18
 127851815.819 7  99624895.47344  24329398.742                    24329407.113
 123027046.120 7  95865306.009 6  23411271.711                    23411280.617
 114053019.060 7  88872595.78545  21703571.203                    21703578.945
 113979234.871 8  88815089.968 7  21689507.258                    21689514.945
 117087143.814 7  91236794.482 7  22280939.664                    22280948.094
 117711215.861 7  91723078.491 7  22399701.500                    22399712.527
 109833161.662 8  85584342.830 7  20900555.008                    20900563.254
 119180309.087 7  92867896.27445  22679239.945                    22679245.859
 119707711.409 7  93278669.99045  22779589.359                    22779598.621
 126389213.317 6  98485186.17642  24051079.891                    24051089.281
 11  8 23  3  7 30.0000000  0 10G21G12G26G05G15G25G29G02G30G18
 127794888.005 6  99580536.23944  24318565.766                    24318574.184
 123120079.541 6  95937799.543 6  23428976.102                    23428984.207
 113996572.395 7  88828611.40845  21692829.344                    21692837.754
 114054219.914 8  88873519.885 7  21703776.453                    21703784.223
 117000847.641 7  91169550.746 7  22264517.867                    22264526.434
 117772419.075 7  91770769.267 7  22411348.391                    22411359.047
 109777488.887 8  85540961.461 7  20889960.523                    20889968.871
 119229293.246 7  92906065.71945  22688561.672                    22688567.629
 119776767.832 7  93332480.16045  22792730.313                    22792739.590
 126307194.739 5  98421275.82042  24035471.453                    24035481.805
 11  8 23  3  8  0.0000000  0 10G21G12G26G05G15G25G29G02G30G18
 127737924.517 6  99536149.21044  24307725.664                    24307733.418
 123213170.846 7  96010338.203 6  23446690.172                    23446698.652
 113940642.827 7  88785029.95145  21682186.297                    21682194.988
 114129429.998 8  88932125.148 7  21718088.273                    21718095.645
 116914800.449 7  91102501.023 7  22248143.492                    22248152.449
 117833960.267 7  91818723.413 7  22423059.039                    22423070.000
 109722171.383 8  85497856.941 7  20879434.438                    20879441.977
 119278387.838 7  92944321.24545  22697904.023                    22697909.531
 119846102.027 7  93386506.79944  22805923.828                    22805933.527
 126225386.247 5  98357529.03442  24019904.391                    24019914.199
 11  8 23  3  8 30.0000000  0 10G21G12G26G05G15G25G29G02G30G18
 127680925.271 6  99491734.30343  24296879.109                    24296886.504
 123306317.178 7  96082919.710 6  23464415.711                    23464423.848
 113885233.795 7  88741854.11545  21671642.445                    21671650.883
 114204862.937 8  88990904.075 7  21732442.930                    21732450.078
 116829005.988 7  91035648.228 7  22231817.570                    22231826.254
 117895837.023 7  91866939.034 7  22434834.008                    22434844.730
 109667211.896 8  85455031.382 7  20868975.898                    20868983.352
 119327593.571 7  92982663.35744  22707267.070                    22707272.430
 119915711.292 7  93440747.74144  22819170.367                    22819179.992
 126143789.114 6  98293946.98552  24004376.477                    24004386.555
 11  8 23  3  9  0.0000000  0 10G21G12G26G05G15G25G29G02G30G18
 127623890.026 6  99447291.36143  24286025.938                    24286033.602
 123399515.965 6  96155542.101 6  23482151.086                    23482159.570
 113830348.418 7  88699086.32345  21661197.945                    21661206.125
 114280516.210 8  89049854.674 7  21746839.445                    21746846.859
 116743467.356 7  90968994.797 7  22215539.766                    22215548.582
 117958046.457 7  91915413.895 7  22446671.930                    22446683.102
 109612613.005 8  85412486.811 7  20858586.016                    20858593.500
 119376910.801 7  93021092.34944  22716652.133                    22716657.422
 119985592.440 7  93495200.55044  22832468.500                    22832477.922
 126062404.678 6  98230530.78142  23988889.672                    23988899.520
 11  8 23  3  9 30.0000000  0 10G21G12G26G05G15G25G29G02G30G18
 127566818.037 6  99402819.76743  24275164.484                    24275173.160
 123492763.919 7  96228202.815 6  23499895.469                    23499904.547
 113775989.563 7  88656728.81245  21650854.195                    21650862.688
 114356387.477 8  89108975.148 7  21761277.383                    21761284.391
 116658187.275 7  90902542.819 7  22199311.695                    22199320.332
 118020585.484 7  91964145.577 7  22458572.211                    22458583.527
 109558376.719 8  85370224.789 7  20848264.914                    20848272.668
 119426340.002 7  93059608.58944  22726057.875                    22726063.699
 120055742.196 7  93549862.65244  22845817.336                    22845826.984
 125981233.642 6  98167280.70042  23973444.023                    23973453.313
 11  8 23  3 10  0.0000000  0 10G21G12G26G05G15G25G29G02G30G18
 127509709.010 6  99358319.31743  24264296.813                    24264304.668
 123586057.954 7  96300899.438 6  23517648.367                    23517657.973
 113722159.951 7  88614783.67645  21640610.469                    21640619.164
 114432474.041 8  89168263.386 7  21775755.781                    21775763.223
 116573168.701 7  90836294.605 7  22183133.117                    22183141.730
 118083451.072 7  92013131.719 7  22470535.750                    22470546.285
 109504505.271 8  85328247.060 7  20838013.555                    20838021.637
 119475881.575 7  93098212.39644  22735485.789                    22735491.371
 120126157.261 7  93604731.49044  22859217.531                    22859226.074
 125900277.140 6  98104197.81842  23958038.180                    23958047.188
 11  8 23  3 10 30.0000000  0 10G21G12G26G05G15G25G29G02G30G18
 127452563.132 6  99313790.13043  24253421.602                    24253430.285
 123679395.528 7  96373629.997 6  23535409.359                    23535419.352
 113668862.843 7  88573253.48745  21630468.164                    21630476.527
 114508773.994 8  89227717.892 7  21790275.180                    21790282.848
 116488415.385 7  90770253.123 7  22167005.313                    22167013.531
 118146640.679 7  92062370.355 7  22482560.633                    22482571.762
 109451001.461 8  85286555.790 8  20827832.180                    20827839.707
 119525536.210 7  93136904.30544  22744934.008                    22744940.133
 120196834.815 7  93659804.86044  22872667.055                    22872675.762
 125819535.982 5  98041282.68142  23942673.695                    23942682.805
 11  8 23  3 11  0.0000000  0 10G21G12G26G05G15G25G29G02G30G18
 127395380.123 6  99269232.06343  24242540.633                    24242549.148
 123772773.807 7  96446392.273 6  23553179.523                    23553188.059
 113616101.493 7  88532140.75645  21620427.883                    21620436.238
 114585285.202 8  89287337.000 7  21804835.219                    21804842.375
 116403930.379 7  90704420.728 7  22150928.391                    22150936.578
 118210151.516 7  92111859.286 7  22494645.992                    22494657.047
 109397867.827 8  85245152.975 8  20817721.258                    20817728.855
 119575304.587 7  93175684.83444  22754405.289                    22754411.070
 120267771.881 7  93715080.46544  22886165.656                    22886174.586
 125739011.437 5                  23927349.469
 11  8 23  3 11 30.0000000  0 10G21G12G26G05G15G25G29G02G30G18
 127338158.966 6  99224644.23543  24231651.789                    24231660.141
 123866189.295 7  96519183.539 6  23570955.563                    23570964.129
 113563878.150 7  88491447.26145  21610490.266                    21610498.500
 114662004.260 8  89347118.068 7  21819434.148                    21819441.574
 116319716.183 7  90638799.312 7  22134903.070                    22134910.684
 118273980.039 7  92161595.756 7  22506792.523                    22506803.039
 109345105.584 8  85204039.568 7  20807680.977                    20807688.637
 119625186.694 7  93214554.01044  22763898.039                    22763903.418
 120338964.567 7  93770555.25144  22899713.156                    22899722.246
 125658704.087 5  97915957.43552  23912067.508                    23912077.129
 11  8 23  3 12  0.0000000  0 10G21G12G26G05G15G25G29G02G30G18
 127280899.271 6  99180026.39943  24220755.898                    24220763.727
 123959639.095 7  96592001.530 6  23588738.602                    23588747.035
 113512195.578 7  88451175.14745  21600655.383                    21600663.867
 114738929.311 8  89407059.678 7  21834072.305                    21834079.879
 116235775.925 7  90573391.367 7  22118929.367                    22118937.367
 118338123.323 8  92211577.530 7  22518998.945                    22519008.844
 109292717.531 8  85163217.724 8  20797711.664                    20797719.660
 119675183.258 7  93253512.34444  22773411.484                    22773417.082
 120410409.813 7  93826226.82445  22913309.234                    22913318.305
 125578614.679 6  97853550.19442  23896826.727                    23896837.137
 11  8 23  3 12 30.0000000  0 10G21G12G26G05G15G25G29G02G30G18
 127223601.153 7  99135378.59143  24209852.508                    24209861.238
 124053120.170 7  96664843.865 6  23606527.742                    23606536.539
 113461056.539 7  88411326.56645  21590924.258                    21590932.145
 114816057.716 8  89467159.706 7  21848749.469                    21848756.891
 116152112.675 7  90508199.280 7  22103008.359                    22103017.082
 118402578.304 7  92261802.164 7  22531263.359                    22531274.945
 109240705.589 8  85122688.953 8  20787814.188                    20787821.977
 119725294.476 7  93292560.00444  22782947.250                    22782953.215
 120482104.314 7  93882092.63445  22926951.938                    22926961.309
 125498744.100 6  97791313.47443  23881627.453                    23881637.516
 11  8 23  3 13  0.0000000  0 10G21G12G26G05G15G25G29G02G30G18
 127166263.942 6  99090700.33843  24198940.805                    24198950.109
 124146629.850 7  96737708.485 6  23624321.617                    23624330.820
 113410464.316 7  88371904.07045  21581296.617                    21581304.926
 114893387.484 8  89527416.670 7  21863464.852                    21863471.762
 116068729.607 7  90443225.501 7  22087141.703                    22087149.793
 118467342.352 7  92312267.614 7  22543587.508                    22543599.148
 109189072.462 7  85082455.355 8  20777988.516                    20777996.148
 119775521.144 7  93331697.60744  22792504.711                    22792511.094
 120554045.226 7  93938150.45045  22940642.164                    22940651.301
 125419093.437 6  97729248.12043  23866471.023                    23866480.281
 11  8 23  3 13 30.0000000  0 10G21G12G26G05G15G25G29G02G30G18
 127108887.567 6  99045991.58243  24188022.703                    24188030.980
 124240165.222 6  96810593.132 6  23642121.109                    23642130.348
 113360421.747 7  88332909.87245  21571774.109                    21571782.418
 114970916.185 8  89587828.649 7  21878217.977                    21878224.848
 115985630.035 7  90378472.628 7  22071328.352                    22071336.637
 118532412.586 7  92362971.655 7  22555970.086                    22555981.164
 109137820.531 8  85042518.795 8  20768236.172                    20768243.117
 119825863.768 7  93370925.60644  22802085.164                    22802090.891
 120626229.343 7  93994397.79345  22954378.039                    22954387.148
 125339663.886 6  97667355.05443  23851356.320                    23851365.805
 11  8 23  3 14  0.0000000  0 10G21G12G26G05G15G25G29G02G30G18
 127051471.813 6  99001252.10044  24177096.336                    24177105.051
 124333723.540 7  96883495.700 6  23659925.047                    23659933.223
 113310931.646 7  88294346.17945  21562356.023                    21562364.281
 115048641.381 8  89648393.720 7  21893008.781                    21893015.949
 115902817.118 7  90313943.132 7  22055568.938                    22055577.469
 118597786.040 7  92413911.984 7  22568410.477                    22568421.465
 109086952.050 7  85002881.039 8  20758555.789                    20758563.227
 119876322.841 7  93410244.34244  22811687.141                    22811692.559
 120698653.529 7  94050832.21445  22968160.156                    22968169.063
 125260456.201 6  97605634.87143  23836283.719                    23836292.359
 11  8 23  3 14 30.0000000  0 10G21G12G26G05G15G25G29G02G30G18
 126994016.103 7  98956481.50444  24166163.383                    24166172.594
 124427301.661 7  96956413.690 6  23677731.531                    23677740.617
 113261996.477 7  88256214.87445  21553044.047                    21553051.883
 115126560.580 8  89709109.973 7  21907836.273                    21907843.633
 115820293.324 7  90249638.924 7  22039865.883                    22039874.156
 118663459.397 7  92465086.010 7  22580907.711                    22580918.848
 109036469.010 7  84963543.616 7  20748949.172                    20748956.891
 119926898.736 7  93449654.13544  22821311.391                    22821316.652
 120771314.380 7  94107451.02144  22981986.859                    22981996.434
 125181470.920 6  97544088.00943  23821251.930                    23821262.215
 11  8 23  3 15  0.0000000  0 10G21G12G26G05G15G25G29G02G30G18
 126936520.608 7  98911679.90444  24155222.703                    24155231.172
 124520896.818 7  97029344.907 6  23695543.344                    23695552.160
 113213619.421 8  88218518.48345  21543838.328                    21543846.508
 115204672.158 8  89769976.124 7  21922700.734                    21922708.027
 115738062.312 7  90185562.878 7  22024217.867                    22024225.746
 118729430.108 7  92516491.736 7  22593461.461                    22593472.855
 108986374.216 8  84924508.739 7  20739416.266                    20739424.051
 119977592.075 7  93489155.42144  22830957.898                    22830963.855
 120844208.934 7  94164251.92645  22995858.539                    22995867.234
 125102709.400 6  97482715.51343  23806265.008                    23806274.133
 11  8 23  3 15 30.0000000  0 10G21G12G26G05G15G25G29G02G30G18
 126878984.414 7  98866846.58444  24144274.305                    24144282.164
 124614505.638 7  97102286.791 6  23713356.273                    23713365.395
 113165802.609 7  88181258.63145  21534738.828                    21534747.164
 115282972.717 8  89830989.539 7  21937600.383                    21937607.645
 115656126.499 7  90121716.852 7  22008625.570                    22008633.918
 118795694.496 7  92568126.279 7  22606070.977                    22606082.680
 108936668.945 7  84885777.373 7  20729957.977                    20729965.512
 120028403.085 7  93528748.37744  22840627.172                    22840632.816
 120917333.415 7  94221232.02244  23009773.250                    23009782.129
 125024172.038 6  97421517.71943  23791319.883                    23791328.766
 11  8 23  3 16  0.0000000  0 10G21G12G26G05G15G25G29G02G30G18
 126821407.543 7  98821981.58544  24133317.141                    24133325.258
 124708125.430 7  97175237.228 6  23731171.242                    23731180.625
 113118548.959 7  88144437.62445  21525746.422                    21525755.246
 115361460.527 8  89892148.854 7  21952536.195                    21952543.680
 115574489.174 7  90058103.406 7  21993090.281                    21993098.738
 118862249.886 7  92619987.577 7  22618736.344                    22618747.691
 108887355.919 8  84847351.657 7  20720574.102                    20720581.516
 120079332.319 7  93568433.45244  22850318.516                    22850324.789
 120990684.978 7  94278389.04845  23023732.055                    23023741.293
 124945860.039 6  97360495.49143  23776417.133                    23776426.328
 11  8 23  3 16 30.0000000  0 10G21G12G26G05G15G25G29G02G30G18
 126763789.778 7  98777084.71344  24122352.773                    24122360.738
 124801753.640 7  97248194.245 6  23748988.031                    23748997.258
 113071861.715 8  88108057.96745  21516862.828                    21516871.023
 115440133.162 8  89953452.207 7  21967507.281                    21967514.547
 115493153.758 7  89994725.217 7  21977612.688                    21977620.770
 118929093.593 7  92672073.551 7  22631456.727                    22631466.785
 108838437.742 8  84809233.613 7  20711265.117                    20711272.547
 120130380.850 7  93608211.51545  22860032.453                    22860038.613
 121064260.686 7  94335720.73544  23037732.563                    23037742.395
 124867774.043 6  97299649.41742  23761557.039                    23761567.031
 11  8 23  3 17  0.0000000  0 10G21G12G26G05G15G25G29G02G30G18
 126706130.795 7  98732155.72944  24111380.289                    24111388.441
 124895387.230 7  97321155.428 6  23766806.117                    23766815.242
 113025742.811 8  88072121.18045  21508086.500                    21508095.035
 115518988.551 8  90014897.951 7  21982512.750                    21982520.090
 115412123.029 7  89931584.435 7  21962192.930                    21962201.191
 118996222.328 7  92724381.661 7  22644230.648                    22644241.191
 108789916.514 8  84771424.888 7  20702031.555                    20702039.176
 120181548.762 7  93648082.58044  22869769.688                    22869775.996
 121138057.100 7  94393224.40145  23051775.531                    23051784.992
 124789915.076 6  97238980.21542  23746741.430                    23746750.797
 11  8 23  3 17 30.0000000  0 10G21G12G26G05G15G25G29G02G30G18
 126648430.541 7  98687194.58244  24100400.633                    24100408.172
 124989023.496 7  97394118.719 6  23784624.789                    23784632.832
 112980195.521 8  88036629.80645  21499419.008                    21499427.133
 115598024.452 8  90076484.358 7  21997552.859                    21997559.879
 115331400.161 7  89868683.553 7  21946831.773                    21946840.004
 119063633.307 7  92776909.652 7  22657058.617                    22657069.316
 108741794.601 8  84733927.314 8  20692874.578                    20692881.898
 120232836.577 7  93688047.05244  22879529.570                    22879535.316
 121212071.219 7  94450897.71244  23065860.305                    23065868.938
 124712283.949 6  97178488.54143  23731968.805                    23731977.340
 11  8 23  3 18  0.0000000  0 10G21G12G26G05G15G25G29G02G30G18
 126590688.545 7  98642200.89044  24089412.492                    24089420.008
 125082659.083 7  97467081.488 6  23802442.516                    23802451.082
 112935221.795 8  88001585.36645  21490861.148                    21490869.441
 115677238.138 8  90138209.308 7  22012627.008                    22012634.422
 115250987.869 7  89806024.683 7  21931529.547                    21931538.152
 119131323.190 7  92829654.993 7  22669939.633                    22669950.188
 108694073.686 8  84696742.196 7  20683793.281                    20683800.996
 120284244.605 7  93728105.23345  22889312.352                    22889317.926
 121286299.585 7  94508737.96944  23079986.313                    23079994.539
 124634881.126 6  97118174.81243  23717239.508                    23717248.211
